<?xml version="1.0" encoding="UTF-8" standalone="no" ?>
<gpx xmlns="http://www.topografix.com/GPX/1/1" xmlns:xsi="http://www.w3.org/2001/XMLSchema-instance" xsi:schemaLocation="http://www.topografix.com/GPX/1/1 http://www.topografix.com/GPX/1/1/gpx.xsd" version="1.1" creator="VisuGPX - https://www.visugpx.com">
  <metadata>
    <name>Trek au Ladakh</name>
    <desc><![CDATA[Trek au Ladakh - Septembre 2015]]></desc>
  </metadata>
  <trk>
    <name><![CDATA[Nimaling (4800m) - Lhalung La Pass (5340m) - Camp de Chaktsang La (4900m)]]></name>
    <trkseg>
      <trkpt lat="33.78644" lon="77.59483">
        <ele>4859.2</ele>
        <time>2015-09-05T02:59:07Z</time>
      </trkpt>
      <trkpt lat="33.78648" lon="77.59474">
        <ele>4859</ele>
        <time>2015-09-05T02:59:10Z</time>
      </trkpt>
      <trkpt lat="33.78649" lon="77.59468">
        <ele>4859</ele>
        <time>2015-09-05T02:59:16Z</time>
      </trkpt>
      <trkpt lat="33.7865" lon="77.59462">
        <ele>4859</ele>
        <time>2015-09-05T02:59:19Z</time>
      </trkpt>
      <trkpt lat="33.78657" lon="77.59451">
        <ele>4858.8</ele>
        <time>2015-09-05T02:59:32Z</time>
      </trkpt>
      <trkpt lat="33.78657" lon="77.59446">
        <ele>4858.6</ele>
        <time>2015-09-05T02:59:36Z</time>
      </trkpt>
      <trkpt lat="33.78658" lon="77.59443">
        <ele>4858.4</ele>
        <time>2015-09-05T02:59:39Z</time>
      </trkpt>
      <trkpt lat="33.7866" lon="77.5944">
        <ele>4858</ele>
        <time>2015-09-05T02:59:42Z</time>
      </trkpt>
      <trkpt lat="33.78668" lon="77.59428">
        <ele>4858.4</ele>
        <time>2015-09-05T03:00:01Z</time>
      </trkpt>
      <trkpt lat="33.78674" lon="77.59423">
        <ele>4858.6</ele>
        <time>2015-09-05T03:00:08Z</time>
      </trkpt>
      <trkpt lat="33.78675" lon="77.59421">
        <ele>4858.4</ele>
        <time>2015-09-05T03:00:10Z</time>
      </trkpt>
      <trkpt lat="33.78676" lon="77.59419">
        <ele>4858.4</ele>
        <time>2015-09-05T03:00:13Z</time>
      </trkpt>
      <trkpt lat="33.7868" lon="77.59416">
        <ele>4857.4</ele>
        <time>2015-09-05T03:00:38Z</time>
      </trkpt>
      <trkpt lat="33.78674" lon="77.59411">
        <ele>4857.6</ele>
        <time>2015-09-05T03:00:40Z</time>
      </trkpt>
      <trkpt lat="33.78675" lon="77.59415">
        <ele>4858</ele>
        <time>2015-09-05T03:00:43Z</time>
      </trkpt>
      <trkpt lat="33.78678" lon="77.59417">
        <ele>4857.8</ele>
        <time>2015-09-05T03:00:46Z</time>
      </trkpt>
      <trkpt lat="33.7868" lon="77.59418">
        <ele>4857.8</ele>
        <time>2015-09-05T03:00:49Z</time>
      </trkpt>
      <trkpt lat="33.78687" lon="77.59417">
        <ele>4857.4</ele>
        <time>2015-09-05T03:01:01Z</time>
      </trkpt>
      <trkpt lat="33.78689" lon="77.59417">
        <ele>4857.6</ele>
        <time>2015-09-05T03:01:03Z</time>
      </trkpt>
      <trkpt lat="33.78693" lon="77.59427">
        <ele>4857.4</ele>
        <time>2015-09-05T03:01:15Z</time>
      </trkpt>
      <trkpt lat="33.78693" lon="77.5943">
        <ele>4857.2</ele>
        <time>2015-09-05T03:01:17Z</time>
      </trkpt>
      <trkpt lat="33.78694" lon="77.59432">
        <ele>4857</ele>
        <time>2015-09-05T03:01:19Z</time>
      </trkpt>
      <trkpt lat="33.78689" lon="77.59448">
        <ele>4857.8</ele>
        <time>2015-09-05T03:01:33Z</time>
      </trkpt>
      <trkpt lat="33.7869" lon="77.59455">
        <ele>4858</ele>
        <time>2015-09-05T03:01:43Z</time>
      </trkpt>
      <trkpt lat="33.78686" lon="77.59477">
        <ele>4858.6</ele>
        <time>2015-09-05T03:01:59Z</time>
      </trkpt>
      <trkpt lat="33.78685" lon="77.59489">
        <ele>4859</ele>
        <time>2015-09-05T03:02:11Z</time>
      </trkpt>
      <trkpt lat="33.78679" lon="77.595">
        <ele>4859</ele>
        <time>2015-09-05T03:02:22Z</time>
      </trkpt>
      <trkpt lat="33.78674" lon="77.59521">
        <ele>4859.4</ele>
        <time>2015-09-05T03:02:42Z</time>
      </trkpt>
      <trkpt lat="33.78673" lon="77.59525">
        <ele>4859.6</ele>
        <time>2015-09-05T03:02:44Z</time>
      </trkpt>
      <trkpt lat="33.78677" lon="77.59542">
        <ele>4860.2</ele>
        <time>2015-09-05T03:03:07Z</time>
      </trkpt>
      <trkpt lat="33.78679" lon="77.59554">
        <ele>4860.4</ele>
        <time>2015-09-05T03:03:19Z</time>
      </trkpt>
      <trkpt lat="33.78675" lon="77.59574">
        <ele>4860.8</ele>
        <time>2015-09-05T03:03:42Z</time>
      </trkpt>
      <trkpt lat="33.78675" lon="77.59587">
        <ele>4860.8</ele>
        <time>2015-09-05T03:03:57Z</time>
      </trkpt>
      <trkpt lat="33.7867" lon="77.59593">
        <ele>4861</ele>
        <time>2015-09-05T03:04:04Z</time>
      </trkpt>
      <trkpt lat="33.78662" lon="77.59604">
        <ele>4861.2</ele>
        <time>2015-09-05T03:04:14Z</time>
      </trkpt>
      <trkpt lat="33.78653" lon="77.5962">
        <ele>4862.2</ele>
        <time>2015-09-05T03:04:36Z</time>
      </trkpt>
      <trkpt lat="33.78643" lon="77.59638">
        <ele>4862.8</ele>
        <time>2015-09-05T03:04:53Z</time>
      </trkpt>
      <trkpt lat="33.78643" lon="77.59639">
        <ele>4862.8</ele>
        <time>2015-09-05T03:04:54Z</time>
      </trkpt>
      <trkpt lat="33.78633" lon="77.59645">
        <ele>4863.2</ele>
        <time>2015-09-05T03:05:11Z</time>
      </trkpt>
      <trkpt lat="33.78629" lon="77.59661">
        <ele>4863.8</ele>
        <time>2015-09-05T03:05:20Z</time>
      </trkpt>
      <trkpt lat="33.78622" lon="77.59669">
        <ele>4864</ele>
        <time>2015-09-05T03:05:33Z</time>
      </trkpt>
      <trkpt lat="33.78617" lon="77.59674">
        <ele>4864</ele>
        <time>2015-09-05T03:05:38Z</time>
      </trkpt>
      <trkpt lat="33.78611" lon="77.59686">
        <ele>4864.2</ele>
        <time>2015-09-05T03:05:48Z</time>
      </trkpt>
      <trkpt lat="33.78608" lon="77.5969">
        <ele>4864.4</ele>
        <time>2015-09-05T03:05:54Z</time>
      </trkpt>
      <trkpt lat="33.786" lon="77.59702">
        <ele>4864.4</ele>
        <time>2015-09-05T03:06:09Z</time>
      </trkpt>
      <trkpt lat="33.78598" lon="77.59705">
        <ele>4864.4</ele>
        <time>2015-09-05T03:06:13Z</time>
      </trkpt>
      <trkpt lat="33.78596" lon="77.59707">
        <ele>4864.2</ele>
        <time>2015-09-05T03:06:21Z</time>
      </trkpt>
      <trkpt lat="33.78592" lon="77.59712">
        <ele>4864.6</ele>
        <time>2015-09-05T03:06:28Z</time>
      </trkpt>
      <trkpt lat="33.78588" lon="77.59724">
        <ele>4864.8</ele>
        <time>2015-09-05T03:06:35Z</time>
      </trkpt>
      <trkpt lat="33.78587" lon="77.59727">
        <ele>4864.8</ele>
        <time>2015-09-05T03:06:37Z</time>
      </trkpt>
      <trkpt lat="33.78586" lon="77.5973">
        <ele>4864.8</ele>
        <time>2015-09-05T03:06:39Z</time>
      </trkpt>
      <trkpt lat="33.78585" lon="77.59732">
        <ele>4864.8</ele>
        <time>2015-09-05T03:06:41Z</time>
      </trkpt>
      <trkpt lat="33.78585" lon="77.59734">
        <ele>4865</ele>
        <time>2015-09-05T03:06:43Z</time>
      </trkpt>
      <trkpt lat="33.78582" lon="77.59736">
        <ele>4865.2</ele>
        <time>2015-09-05T03:06:46Z</time>
      </trkpt>
      <trkpt lat="33.78568" lon="77.59749">
        <ele>4864.8</ele>
        <time>2015-09-05T03:07:17Z</time>
      </trkpt>
      <trkpt lat="33.78565" lon="77.59762">
        <ele>4865.4</ele>
        <time>2015-09-05T03:07:21Z</time>
      </trkpt>
      <trkpt lat="33.78562" lon="77.5977">
        <ele>4866.4</ele>
        <time>2015-09-05T03:07:26Z</time>
      </trkpt>
      <trkpt lat="33.7856" lon="77.59774">
        <ele>4866.6</ele>
        <time>2015-09-05T03:07:29Z</time>
      </trkpt>
      <trkpt lat="33.78557" lon="77.59778">
        <ele>4866.8</ele>
        <time>2015-09-05T03:07:32Z</time>
      </trkpt>
      <trkpt lat="33.78555" lon="77.59781">
        <ele>4866.4</ele>
        <time>2015-09-05T03:07:36Z</time>
      </trkpt>
      <trkpt lat="33.78546" lon="77.59791">
        <ele>4865.8</ele>
        <time>2015-09-05T03:07:55Z</time>
      </trkpt>
      <trkpt lat="33.78544" lon="77.59794">
        <ele>4866.2</ele>
        <time>2015-09-05T03:07:59Z</time>
      </trkpt>
      <trkpt lat="33.78534" lon="77.59813">
        <ele>4866.6</ele>
        <time>2015-09-05T03:08:18Z</time>
      </trkpt>
      <trkpt lat="33.7853" lon="77.5982">
        <ele>4866.8</ele>
        <time>2015-09-05T03:08:26Z</time>
      </trkpt>
      <trkpt lat="33.78528" lon="77.59824">
        <ele>4866.8</ele>
        <time>2015-09-05T03:08:30Z</time>
      </trkpt>
      <trkpt lat="33.78523" lon="77.59846">
        <ele>4867</ele>
        <time>2015-09-05T03:08:51Z</time>
      </trkpt>
      <trkpt lat="33.78517" lon="77.59854">
        <ele>4867.4</ele>
        <time>2015-09-05T03:09:04Z</time>
      </trkpt>
      <trkpt lat="33.78505" lon="77.59868">
        <ele>4868.6</ele>
        <time>2015-09-05T03:09:33Z</time>
      </trkpt>
      <trkpt lat="33.78502" lon="77.59876">
        <ele>4868.8</ele>
        <time>2015-09-05T03:09:41Z</time>
      </trkpt>
      <trkpt lat="33.785" lon="77.59881">
        <ele>4868.8</ele>
        <time>2015-09-05T03:09:45Z</time>
      </trkpt>
      <trkpt lat="33.78499" lon="77.59881">
        <ele>4868.8</ele>
        <time>2015-09-05T03:09:47Z</time>
      </trkpt>
      <trkpt lat="33.78487" lon="77.59886">
        <ele>4869</ele>
        <time>2015-09-05T03:10:03Z</time>
      </trkpt>
      <trkpt lat="33.7848" lon="77.59911">
        <ele>4869.4</ele>
        <time>2015-09-05T03:10:40Z</time>
      </trkpt>
      <trkpt lat="33.78463" lon="77.59919">
        <ele>4869.4</ele>
        <time>2015-09-05T03:11:06Z</time>
      </trkpt>
      <trkpt lat="33.78456" lon="77.59938">
        <ele>4869.6</ele>
        <time>2015-09-05T03:11:15Z</time>
      </trkpt>
      <trkpt lat="33.78454" lon="77.5994">
        <ele>4869.6</ele>
        <time>2015-09-05T03:11:19Z</time>
      </trkpt>
      <trkpt lat="33.78451" lon="77.5994">
        <ele>4869.6</ele>
        <time>2015-09-05T03:11:22Z</time>
      </trkpt>
      <trkpt lat="33.7845" lon="77.59942">
        <ele>4869.6</ele>
        <time>2015-09-05T03:11:24Z</time>
      </trkpt>
      <trkpt lat="33.78449" lon="77.59944">
        <ele>4869.6</ele>
        <time>2015-09-05T03:11:27Z</time>
      </trkpt>
      <trkpt lat="33.7844" lon="77.59956">
        <ele>4869.6</ele>
        <time>2015-09-05T03:11:42Z</time>
      </trkpt>
      <trkpt lat="33.78433" lon="77.59968">
        <ele>4870.4</ele>
        <time>2015-09-05T03:11:55Z</time>
      </trkpt>
      <trkpt lat="33.78431" lon="77.59971">
        <ele>4870.4</ele>
        <time>2015-09-05T03:11:57Z</time>
      </trkpt>
      <trkpt lat="33.78425" lon="77.5998">
        <ele>4870.6</ele>
        <time>2015-09-05T03:12:06Z</time>
      </trkpt>
      <trkpt lat="33.78421" lon="77.59985">
        <ele>4871</ele>
        <time>2015-09-05T03:12:16Z</time>
      </trkpt>
      <trkpt lat="33.78415" lon="77.60001">
        <ele>4871.4</ele>
        <time>2015-09-05T03:12:28Z</time>
      </trkpt>
      <trkpt lat="33.78415" lon="77.60005">
        <ele>4871.6</ele>
        <time>2015-09-05T03:12:30Z</time>
      </trkpt>
      <trkpt lat="33.78415" lon="77.60012">
        <ele>4871.6</ele>
        <time>2015-09-05T03:12:41Z</time>
      </trkpt>
      <trkpt lat="33.78414" lon="77.60015">
        <ele>4871.8</ele>
        <time>2015-09-05T03:12:47Z</time>
      </trkpt>
      <trkpt lat="33.78413" lon="77.60016">
        <ele>4872</ele>
        <time>2015-09-05T03:12:49Z</time>
      </trkpt>
      <trkpt lat="33.78406" lon="77.6003">
        <ele>4872.6</ele>
        <time>2015-09-05T03:13:07Z</time>
      </trkpt>
      <trkpt lat="33.78403" lon="77.60037">
        <ele>4872.8</ele>
        <time>2015-09-05T03:13:14Z</time>
      </trkpt>
      <trkpt lat="33.78402" lon="77.60039">
        <ele>4872.6</ele>
        <time>2015-09-05T03:13:16Z</time>
      </trkpt>
      <trkpt lat="33.784" lon="77.60047">
        <ele>4872.8</ele>
        <time>2015-09-05T03:13:25Z</time>
      </trkpt>
      <trkpt lat="33.7839" lon="77.60063">
        <ele>4873.4</ele>
        <time>2015-09-05T03:13:45Z</time>
      </trkpt>
      <trkpt lat="33.7838" lon="77.60069">
        <ele>4873.6</ele>
        <time>2015-09-05T03:14:03Z</time>
      </trkpt>
      <trkpt lat="33.78379" lon="77.60069">
        <ele>4873.6</ele>
        <time>2015-09-05T03:14:04Z</time>
      </trkpt>
      <trkpt lat="33.78373" lon="77.60076">
        <ele>4873.8</ele>
        <time>2015-09-05T03:14:18Z</time>
      </trkpt>
      <trkpt lat="33.78362" lon="77.60094">
        <ele>4874.4</ele>
        <time>2015-09-05T03:14:39Z</time>
      </trkpt>
      <trkpt lat="33.78358" lon="77.60099">
        <ele>4874.6</ele>
        <time>2015-09-05T03:14:43Z</time>
      </trkpt>
      <trkpt lat="33.78358" lon="77.601">
        <ele>4874.6</ele>
        <time>2015-09-05T03:14:44Z</time>
      </trkpt>
      <trkpt lat="33.78356" lon="77.601">
        <ele>4874.8</ele>
        <time>2015-09-05T03:14:47Z</time>
      </trkpt>
      <trkpt lat="33.78341" lon="77.60114">
        <ele>4875.4</ele>
        <time>2015-09-05T03:15:15Z</time>
      </trkpt>
      <trkpt lat="33.78341" lon="77.60115">
        <ele>4875.4</ele>
        <time>2015-09-05T03:15:16Z</time>
      </trkpt>
      <trkpt lat="33.78328" lon="77.6013">
        <ele>4875.2</ele>
        <time>2015-09-05T03:15:35Z</time>
      </trkpt>
      <trkpt lat="33.7832" lon="77.60145">
        <ele>4875.6</ele>
        <time>2015-09-05T03:15:50Z</time>
      </trkpt>
      <trkpt lat="33.78318" lon="77.60148">
        <ele>4875.6</ele>
        <time>2015-09-05T03:15:52Z</time>
      </trkpt>
      <trkpt lat="33.78313" lon="77.60155">
        <ele>4876</ele>
        <time>2015-09-05T03:16:03Z</time>
      </trkpt>
      <trkpt lat="33.78306" lon="77.60161">
        <ele>4876.4</ele>
        <time>2015-09-05T03:16:17Z</time>
      </trkpt>
      <trkpt lat="33.78296" lon="77.6018">
        <ele>4876.6</ele>
        <time>2015-09-05T03:16:33Z</time>
      </trkpt>
      <trkpt lat="33.78291" lon="77.60187">
        <ele>4876.8</ele>
        <time>2015-09-05T03:16:36Z</time>
      </trkpt>
      <trkpt lat="33.78292" lon="77.60194">
        <ele>4876.8</ele>
        <time>2015-09-05T03:16:40Z</time>
      </trkpt>
      <trkpt lat="33.78285" lon="77.60213">
        <ele>4877.8</ele>
        <time>2015-09-05T03:17:07Z</time>
      </trkpt>
      <trkpt lat="33.78277" lon="77.60223">
        <ele>4878.8</ele>
        <time>2015-09-05T03:17:25Z</time>
      </trkpt>
      <trkpt lat="33.78272" lon="77.60237">
        <ele>4880</ele>
        <time>2015-09-05T03:17:46Z</time>
      </trkpt>
      <trkpt lat="33.7827" lon="77.60245">
        <ele>4880.6</ele>
        <time>2015-09-05T03:17:53Z</time>
      </trkpt>
      <trkpt lat="33.78268" lon="77.60253">
        <ele>4881</ele>
        <time>2015-09-05T03:18:00Z</time>
      </trkpt>
      <trkpt lat="33.78267" lon="77.60254">
        <ele>4881.2</ele>
        <time>2015-09-05T03:18:02Z</time>
      </trkpt>
      <trkpt lat="33.78264" lon="77.60262">
        <ele>4881.4</ele>
        <time>2015-09-05T03:18:10Z</time>
      </trkpt>
      <trkpt lat="33.78264" lon="77.60263">
        <ele>4881.6</ele>
        <time>2015-09-05T03:18:12Z</time>
      </trkpt>
      <trkpt lat="33.78262" lon="77.60267">
        <ele>4881.8</ele>
        <time>2015-09-05T03:18:17Z</time>
      </trkpt>
      <trkpt lat="33.78263" lon="77.60281">
        <ele>4881.6</ele>
        <time>2015-09-05T03:18:29Z</time>
      </trkpt>
      <trkpt lat="33.78261" lon="77.60283">
        <ele>4882</ele>
        <time>2015-09-05T03:18:33Z</time>
      </trkpt>
      <trkpt lat="33.78259" lon="77.60295">
        <ele>4883</ele>
        <time>2015-09-05T03:18:48Z</time>
      </trkpt>
      <trkpt lat="33.78258" lon="77.60307">
        <ele>4884.2</ele>
        <time>2015-09-05T03:19:05Z</time>
      </trkpt>
      <trkpt lat="33.78247" lon="77.60316">
        <ele>4885.2</ele>
        <time>2015-09-05T03:19:30Z</time>
      </trkpt>
      <trkpt lat="33.78246" lon="77.60319">
        <ele>4885.4</ele>
        <time>2015-09-05T03:19:33Z</time>
      </trkpt>
      <trkpt lat="33.78242" lon="77.60328">
        <ele>4885.2</ele>
        <time>2015-09-05T03:19:40Z</time>
      </trkpt>
      <trkpt lat="33.78239" lon="77.60329">
        <ele>4885.4</ele>
        <time>2015-09-05T03:19:44Z</time>
      </trkpt>
      <trkpt lat="33.7823" lon="77.60345">
        <ele>4886.2</ele>
        <time>2015-09-05T03:20:05Z</time>
      </trkpt>
      <trkpt lat="33.78217" lon="77.60361">
        <ele>4887</ele>
        <time>2015-09-05T03:20:33Z</time>
      </trkpt>
      <trkpt lat="33.78216" lon="77.60365">
        <ele>4887.2</ele>
        <time>2015-09-05T03:20:35Z</time>
      </trkpt>
      <trkpt lat="33.78206" lon="77.60383">
        <ele>4888</ele>
        <time>2015-09-05T03:21:00Z</time>
      </trkpt>
      <trkpt lat="33.78203" lon="77.60385">
        <ele>4888</ele>
        <time>2015-09-05T03:21:11Z</time>
      </trkpt>
      <trkpt lat="33.78202" lon="77.60388">
        <ele>4888</ele>
        <time>2015-09-05T03:21:14Z</time>
      </trkpt>
      <trkpt lat="33.78199" lon="77.60391">
        <ele>4888.2</ele>
        <time>2015-09-05T03:21:21Z</time>
      </trkpt>
      <trkpt lat="33.78191" lon="77.60404">
        <ele>4888.6</ele>
        <time>2015-09-05T03:21:38Z</time>
      </trkpt>
      <trkpt lat="33.78189" lon="77.60414">
        <ele>4888.8</ele>
        <time>2015-09-05T03:21:45Z</time>
      </trkpt>
      <trkpt lat="33.78181" lon="77.60426">
        <ele>4889.2</ele>
        <time>2015-09-05T03:21:58Z</time>
      </trkpt>
      <trkpt lat="33.78172" lon="77.60435">
        <ele>4890.2</ele>
        <time>2015-09-05T03:22:22Z</time>
      </trkpt>
      <trkpt lat="33.78167" lon="77.60447">
        <ele>4891.4</ele>
        <time>2015-09-05T03:22:36Z</time>
      </trkpt>
      <trkpt lat="33.78162" lon="77.6046">
        <ele>4892</ele>
        <time>2015-09-05T03:22:48Z</time>
      </trkpt>
      <trkpt lat="33.78161" lon="77.60462">
        <ele>4892.2</ele>
        <time>2015-09-05T03:22:50Z</time>
      </trkpt>
      <trkpt lat="33.78161" lon="77.60464">
        <ele>4892.4</ele>
        <time>2015-09-05T03:22:53Z</time>
      </trkpt>
      <trkpt lat="33.78158" lon="77.60469">
        <ele>4892.8</ele>
        <time>2015-09-05T03:22:59Z</time>
      </trkpt>
      <trkpt lat="33.78149" lon="77.60475">
        <ele>4893.4</ele>
        <time>2015-09-05T03:23:21Z</time>
      </trkpt>
      <trkpt lat="33.7814" lon="77.60492">
        <ele>4894.2</ele>
        <time>2015-09-05T03:23:40Z</time>
      </trkpt>
      <trkpt lat="33.78132" lon="77.60507">
        <ele>4894.4</ele>
        <time>2015-09-05T03:23:57Z</time>
      </trkpt>
      <trkpt lat="33.7813" lon="77.60508">
        <ele>4894.4</ele>
        <time>2015-09-05T03:23:59Z</time>
      </trkpt>
      <trkpt lat="33.78127" lon="77.60511">
        <ele>4894.4</ele>
        <time>2015-09-05T03:24:03Z</time>
      </trkpt>
      <trkpt lat="33.78126" lon="77.6052">
        <ele>4895</ele>
        <time>2015-09-05T03:24:11Z</time>
      </trkpt>
      <trkpt lat="33.78125" lon="77.6053">
        <ele>4895</ele>
        <time>2015-09-05T03:24:15Z</time>
      </trkpt>
      <trkpt lat="33.78123" lon="77.60538">
        <ele>4895.4</ele>
        <time>2015-09-05T03:24:24Z</time>
      </trkpt>
      <trkpt lat="33.78122" lon="77.60538">
        <ele>4895.4</ele>
        <time>2015-09-05T03:24:25Z</time>
      </trkpt>
      <trkpt lat="33.78119" lon="77.60541">
        <ele>4895.8</ele>
        <time>2015-09-05T03:24:30Z</time>
      </trkpt>
      <trkpt lat="33.78113" lon="77.60541">
        <ele>4896.6</ele>
        <time>2015-09-05T03:24:42Z</time>
      </trkpt>
      <trkpt lat="33.781" lon="77.60556">
        <ele>4897.6</ele>
        <time>2015-09-05T03:24:59Z</time>
      </trkpt>
      <trkpt lat="33.78099" lon="77.60556">
        <ele>4897.6</ele>
        <time>2015-09-05T03:25:00Z</time>
      </trkpt>
      <trkpt lat="33.78095" lon="77.60555">
        <ele>4898.2</ele>
        <time>2015-09-05T03:25:07Z</time>
      </trkpt>
      <trkpt lat="33.78099" lon="77.60561">
        <ele>4898.4</ele>
        <time>2015-09-05T03:25:33Z</time>
      </trkpt>
      <trkpt lat="33.78102" lon="77.60567">
        <ele>4898.6</ele>
        <time>2015-09-05T03:25:40Z</time>
      </trkpt>
      <trkpt lat="33.781" lon="77.60568">
        <ele>4898.6</ele>
        <time>2015-09-05T03:25:41Z</time>
      </trkpt>
      <trkpt lat="33.78098" lon="77.6057">
        <ele>4898.8</ele>
        <time>2015-09-05T03:25:44Z</time>
      </trkpt>
      <trkpt lat="33.78096" lon="77.60571">
        <ele>4899</ele>
        <time>2015-09-05T03:25:46Z</time>
      </trkpt>
      <trkpt lat="33.78095" lon="77.60572">
        <ele>4899.2</ele>
        <time>2015-09-05T03:25:48Z</time>
      </trkpt>
      <trkpt lat="33.78093" lon="77.60573">
        <ele>4899.2</ele>
        <time>2015-09-05T03:25:50Z</time>
      </trkpt>
      <trkpt lat="33.78092" lon="77.60574">
        <ele>4899.2</ele>
        <time>2015-09-05T03:25:52Z</time>
      </trkpt>
      <trkpt lat="33.78091" lon="77.60576">
        <ele>4899.2</ele>
        <time>2015-09-05T03:25:54Z</time>
      </trkpt>
      <trkpt lat="33.7809" lon="77.60576">
        <ele>4899.4</ele>
        <time>2015-09-05T03:25:56Z</time>
      </trkpt>
      <trkpt lat="33.78088" lon="77.60576">
        <ele>4899.6</ele>
        <time>2015-09-05T03:25:59Z</time>
      </trkpt>
      <trkpt lat="33.78083" lon="77.60575">
        <ele>4899.8</ele>
        <time>2015-09-05T03:26:05Z</time>
      </trkpt>
      <trkpt lat="33.78078" lon="77.60581">
        <ele>4900</ele>
        <time>2015-09-05T03:26:13Z</time>
      </trkpt>
      <trkpt lat="33.78073" lon="77.60588">
        <ele>4900.8</ele>
        <time>2015-09-05T03:26:21Z</time>
      </trkpt>
      <trkpt lat="33.78071" lon="77.60589">
        <ele>4900.8</ele>
        <time>2015-09-05T03:26:24Z</time>
      </trkpt>
      <trkpt lat="33.78064" lon="77.60608">
        <ele>4901.6</ele>
        <time>2015-09-05T03:26:44Z</time>
      </trkpt>
      <trkpt lat="33.78063" lon="77.6061">
        <ele>4901.8</ele>
        <time>2015-09-05T03:26:46Z</time>
      </trkpt>
      <trkpt lat="33.78057" lon="77.60617">
        <ele>4902.8</ele>
        <time>2015-09-05T03:27:00Z</time>
      </trkpt>
      <trkpt lat="33.78048" lon="77.60624">
        <ele>4904</ele>
        <time>2015-09-05T03:27:16Z</time>
      </trkpt>
      <trkpt lat="33.78039" lon="77.60631">
        <ele>4905</ele>
        <time>2015-09-05T03:27:33Z</time>
      </trkpt>
      <trkpt lat="33.7803" lon="77.60648">
        <ele>4905.8</ele>
        <time>2015-09-05T03:27:49Z</time>
      </trkpt>
      <trkpt lat="33.7803" lon="77.6065">
        <ele>4905.8</ele>
        <time>2015-09-05T03:27:50Z</time>
      </trkpt>
      <trkpt lat="33.78029" lon="77.60652">
        <ele>4905.8</ele>
        <time>2015-09-05T03:27:52Z</time>
      </trkpt>
      <trkpt lat="33.78028" lon="77.60656">
        <ele>4906</ele>
        <time>2015-09-05T03:27:57Z</time>
      </trkpt>
      <trkpt lat="33.78014" lon="77.6067">
        <ele>4906.6</ele>
        <time>2015-09-05T03:28:18Z</time>
      </trkpt>
      <trkpt lat="33.78009" lon="77.60679">
        <ele>4907</ele>
        <time>2015-09-05T03:28:31Z</time>
      </trkpt>
      <trkpt lat="33.77999" lon="77.60683">
        <ele>4908.2</ele>
        <time>2015-09-05T03:28:45Z</time>
      </trkpt>
      <trkpt lat="33.77984" lon="77.60697">
        <ele>4909</ele>
        <time>2015-09-05T03:29:09Z</time>
      </trkpt>
      <trkpt lat="33.77982" lon="77.60699">
        <ele>4909.2</ele>
        <time>2015-09-05T03:29:12Z</time>
      </trkpt>
      <trkpt lat="33.77981" lon="77.607">
        <ele>4909</ele>
        <time>2015-09-05T03:29:13Z</time>
      </trkpt>
      <trkpt lat="33.77976" lon="77.60707">
        <ele>4909.8</ele>
        <time>2015-09-05T03:29:22Z</time>
      </trkpt>
      <trkpt lat="33.77974" lon="77.6071">
        <ele>4909.8</ele>
        <time>2015-09-05T03:29:25Z</time>
      </trkpt>
      <trkpt lat="33.77973" lon="77.60711">
        <ele>4909.8</ele>
        <time>2015-09-05T03:29:28Z</time>
      </trkpt>
      <trkpt lat="33.77968" lon="77.60716">
        <ele>4910.2</ele>
        <time>2015-09-05T03:29:37Z</time>
      </trkpt>
      <trkpt lat="33.77956" lon="77.60726">
        <ele>4910.6</ele>
        <time>2015-09-05T03:29:49Z</time>
      </trkpt>
      <trkpt lat="33.77951" lon="77.60733">
        <ele>4910.4</ele>
        <time>2015-09-05T03:29:54Z</time>
      </trkpt>
      <trkpt lat="33.77943" lon="77.6074">
        <ele>4911.2</ele>
        <time>2015-09-05T03:30:09Z</time>
      </trkpt>
      <trkpt lat="33.77929" lon="77.60753">
        <ele>4912.2</ele>
        <time>2015-09-05T03:30:36Z</time>
      </trkpt>
      <trkpt lat="33.77929" lon="77.60755">
        <ele>4912.2</ele>
        <time>2015-09-05T03:30:37Z</time>
      </trkpt>
      <trkpt lat="33.77928" lon="77.60759">
        <ele>4912.4</ele>
        <time>2015-09-05T03:30:39Z</time>
      </trkpt>
      <trkpt lat="33.77925" lon="77.60762">
        <ele>4912.6</ele>
        <time>2015-09-05T03:30:43Z</time>
      </trkpt>
      <trkpt lat="33.77923" lon="77.60764">
        <ele>4913</ele>
        <time>2015-09-05T03:30:47Z</time>
      </trkpt>
      <trkpt lat="33.77915" lon="77.60777">
        <ele>4913</ele>
        <time>2015-09-05T03:31:00Z</time>
      </trkpt>
      <trkpt lat="33.77913" lon="77.60781">
        <ele>4913.4</ele>
        <time>2015-09-05T03:31:04Z</time>
      </trkpt>
      <trkpt lat="33.7791" lon="77.60787">
        <ele>4913.6</ele>
        <time>2015-09-05T03:31:08Z</time>
      </trkpt>
      <trkpt lat="33.77906" lon="77.60791">
        <ele>4914</ele>
        <time>2015-09-05T03:31:16Z</time>
      </trkpt>
      <trkpt lat="33.77902" lon="77.60791">
        <ele>4914.4</ele>
        <time>2015-09-05T03:31:22Z</time>
      </trkpt>
      <trkpt lat="33.77899" lon="77.60795">
        <ele>4914.8</ele>
        <time>2015-09-05T03:31:28Z</time>
      </trkpt>
      <trkpt lat="33.77898" lon="77.60795">
        <ele>4914.6</ele>
        <time>2015-09-05T03:31:30Z</time>
      </trkpt>
      <trkpt lat="33.77892" lon="77.60809">
        <ele>4915.4</ele>
        <time>2015-09-05T03:31:46Z</time>
      </trkpt>
      <trkpt lat="33.7789" lon="77.6082">
        <ele>4915.4</ele>
        <time>2015-09-05T03:31:53Z</time>
      </trkpt>
      <trkpt lat="33.7789" lon="77.60824">
        <ele>4915.4</ele>
        <time>2015-09-05T03:31:55Z</time>
      </trkpt>
      <trkpt lat="33.77889" lon="77.60825">
        <ele>4915.4</ele>
        <time>2015-09-05T03:31:57Z</time>
      </trkpt>
      <trkpt lat="33.77887" lon="77.60826">
        <ele>4915.2</ele>
        <time>2015-09-05T03:31:59Z</time>
      </trkpt>
      <trkpt lat="33.77883" lon="77.60826">
        <ele>4915.4</ele>
        <time>2015-09-05T03:32:05Z</time>
      </trkpt>
      <trkpt lat="33.7788" lon="77.6083">
        <ele>4916.4</ele>
        <time>2015-09-05T03:32:12Z</time>
      </trkpt>
      <trkpt lat="33.77879" lon="77.60835">
        <ele>4916.8</ele>
        <time>2015-09-05T03:32:16Z</time>
      </trkpt>
      <trkpt lat="33.77877" lon="77.6084">
        <ele>4917.4</ele>
        <time>2015-09-05T03:32:26Z</time>
      </trkpt>
      <trkpt lat="33.77879" lon="77.60845">
        <ele>4917.6</ele>
        <time>2015-09-05T03:32:28Z</time>
      </trkpt>
      <trkpt lat="33.77868" lon="77.60862">
        <ele>4917.8</ele>
        <time>2015-09-05T03:32:40Z</time>
      </trkpt>
      <trkpt lat="33.77857" lon="77.60866">
        <ele>4917.8</ele>
        <time>2015-09-05T03:32:58Z</time>
      </trkpt>
      <trkpt lat="33.77853" lon="77.60869">
        <ele>4918</ele>
        <time>2015-09-05T03:33:04Z</time>
      </trkpt>
      <trkpt lat="33.77848" lon="77.60876">
        <ele>4918.4</ele>
        <time>2015-09-05T03:33:10Z</time>
      </trkpt>
      <trkpt lat="33.77844" lon="77.60878">
        <ele>4918.6</ele>
        <time>2015-09-05T03:33:16Z</time>
      </trkpt>
      <trkpt lat="33.77839" lon="77.60883">
        <ele>4919</ele>
        <time>2015-09-05T03:33:24Z</time>
      </trkpt>
      <trkpt lat="33.77837" lon="77.60883">
        <ele>4919</ele>
        <time>2015-09-05T03:33:26Z</time>
      </trkpt>
      <trkpt lat="33.77835" lon="77.60886">
        <ele>4919.2</ele>
        <time>2015-09-05T03:33:28Z</time>
      </trkpt>
      <trkpt lat="33.77834" lon="77.60889">
        <ele>4919.2</ele>
        <time>2015-09-05T03:33:30Z</time>
      </trkpt>
      <trkpt lat="33.77831" lon="77.609">
        <ele>4919.4</ele>
        <time>2015-09-05T03:33:41Z</time>
      </trkpt>
      <trkpt lat="33.77825" lon="77.60904">
        <ele>4919.6</ele>
        <time>2015-09-05T03:33:52Z</time>
      </trkpt>
      <trkpt lat="33.77817" lon="77.60913">
        <ele>4920.6</ele>
        <time>2015-09-05T03:34:10Z</time>
      </trkpt>
      <trkpt lat="33.77812" lon="77.60931">
        <ele>4921.4</ele>
        <time>2015-09-05T03:34:35Z</time>
      </trkpt>
      <trkpt lat="33.77809" lon="77.60936">
        <ele>4921.6</ele>
        <time>2015-09-05T03:34:40Z</time>
      </trkpt>
      <trkpt lat="33.77801" lon="77.60948">
        <ele>4922.6</ele>
        <time>2015-09-05T03:34:58Z</time>
      </trkpt>
      <trkpt lat="33.77795" lon="77.60956">
        <ele>4922.8</ele>
        <time>2015-09-05T03:35:09Z</time>
      </trkpt>
      <trkpt lat="33.77792" lon="77.60966">
        <ele>4923.8</ele>
        <time>2015-09-05T03:35:26Z</time>
      </trkpt>
      <trkpt lat="33.77789" lon="77.60974">
        <ele>4923.8</ele>
        <time>2015-09-05T03:35:35Z</time>
      </trkpt>
      <trkpt lat="33.77779" lon="77.60986">
        <ele>4925</ele>
        <time>2015-09-05T03:35:57Z</time>
      </trkpt>
      <trkpt lat="33.7777" lon="77.60997">
        <ele>4925.8</ele>
        <time>2015-09-05T03:36:13Z</time>
      </trkpt>
      <trkpt lat="33.77769" lon="77.60999">
        <ele>4926</ele>
        <time>2015-09-05T03:36:18Z</time>
      </trkpt>
      <trkpt lat="33.77769" lon="77.61009">
        <ele>4926.4</ele>
        <time>2015-09-05T03:36:23Z</time>
      </trkpt>
      <trkpt lat="33.77762" lon="77.61022">
        <ele>4927</ele>
        <time>2015-09-05T03:36:37Z</time>
      </trkpt>
      <trkpt lat="33.77755" lon="77.61026">
        <ele>4927</ele>
        <time>2015-09-05T03:36:46Z</time>
      </trkpt>
      <trkpt lat="33.77753" lon="77.61027">
        <ele>4927</ele>
        <time>2015-09-05T03:36:50Z</time>
      </trkpt>
      <trkpt lat="33.77742" lon="77.6103">
        <ele>4927.6</ele>
        <time>2015-09-05T03:37:04Z</time>
      </trkpt>
      <trkpt lat="33.7774" lon="77.61031">
        <ele>4927.6</ele>
        <time>2015-09-05T03:37:07Z</time>
      </trkpt>
      <trkpt lat="33.77734" lon="77.61035">
        <ele>4927.8</ele>
        <time>2015-09-05T03:37:15Z</time>
      </trkpt>
      <trkpt lat="33.77731" lon="77.61036">
        <ele>4928.2</ele>
        <time>2015-09-05T03:37:23Z</time>
      </trkpt>
      <trkpt lat="33.77723" lon="77.61045">
        <ele>4928</ele>
        <time>2015-09-05T03:37:33Z</time>
      </trkpt>
      <trkpt lat="33.7771" lon="77.61054">
        <ele>4927.4</ele>
        <time>2015-09-05T03:37:51Z</time>
      </trkpt>
      <trkpt lat="33.77705" lon="77.6106">
        <ele>4927.6</ele>
        <time>2015-09-05T03:37:58Z</time>
      </trkpt>
      <trkpt lat="33.777" lon="77.61064">
        <ele>4927.4</ele>
        <time>2015-09-05T03:38:05Z</time>
      </trkpt>
      <trkpt lat="33.77695" lon="77.61076">
        <ele>4927.8</ele>
        <time>2015-09-05T03:38:16Z</time>
      </trkpt>
      <trkpt lat="33.77681" lon="77.61089">
        <ele>4928</ele>
        <time>2015-09-05T03:38:45Z</time>
      </trkpt>
      <trkpt lat="33.77678" lon="77.61108">
        <ele>4928.8</ele>
        <time>2015-09-05T03:39:03Z</time>
      </trkpt>
      <trkpt lat="33.77674" lon="77.61111">
        <ele>4929.2</ele>
        <time>2015-09-05T03:39:10Z</time>
      </trkpt>
      <trkpt lat="33.77663" lon="77.6112">
        <ele>4929.6</ele>
        <time>2015-09-05T03:39:28Z</time>
      </trkpt>
      <trkpt lat="33.77657" lon="77.61129">
        <ele>4930.2</ele>
        <time>2015-09-05T03:39:42Z</time>
      </trkpt>
      <trkpt lat="33.77654" lon="77.61135">
        <ele>4930.4</ele>
        <time>2015-09-05T03:39:48Z</time>
      </trkpt>
      <trkpt lat="33.77649" lon="77.61143">
        <ele>4930.6</ele>
        <time>2015-09-05T03:40:00Z</time>
      </trkpt>
      <trkpt lat="33.77646" lon="77.61149">
        <ele>4930.4</ele>
        <time>2015-09-05T03:40:04Z</time>
      </trkpt>
      <trkpt lat="33.77645" lon="77.6115">
        <ele>4930.2</ele>
        <time>2015-09-05T03:40:06Z</time>
      </trkpt>
      <trkpt lat="33.77641" lon="77.6115">
        <ele>4930.2</ele>
        <time>2015-09-05T03:40:10Z</time>
      </trkpt>
      <trkpt lat="33.77637" lon="77.61151">
        <ele>4930</ele>
        <time>2015-09-05T03:40:15Z</time>
      </trkpt>
      <trkpt lat="33.77629" lon="77.61163">
        <ele>4931.2</ele>
        <time>2015-09-05T03:40:32Z</time>
      </trkpt>
      <trkpt lat="33.77627" lon="77.61169">
        <ele>4930.8</ele>
        <time>2015-09-05T03:40:37Z</time>
      </trkpt>
      <trkpt lat="33.77617" lon="77.61178">
        <ele>4931.2</ele>
        <time>2015-09-05T03:40:56Z</time>
      </trkpt>
      <trkpt lat="33.77612" lon="77.61181">
        <ele>4931.6</ele>
        <time>2015-09-05T03:41:04Z</time>
      </trkpt>
      <trkpt lat="33.77605" lon="77.61185">
        <ele>4932.2</ele>
        <time>2015-09-05T03:41:22Z</time>
      </trkpt>
      <trkpt lat="33.7761" lon="77.61186">
        <ele>4932.4</ele>
        <time>2015-09-05T03:41:30Z</time>
      </trkpt>
      <trkpt lat="33.7761" lon="77.61188">
        <ele>4932.8</ele>
        <time>2015-09-05T03:43:16Z</time>
      </trkpt>
      <trkpt lat="33.77607" lon="77.61187">
        <ele>4932.6</ele>
        <time>2015-09-05T03:43:29Z</time>
      </trkpt>
      <trkpt lat="33.77613" lon="77.61188">
        <ele>4933.2</ele>
        <time>2015-09-05T03:44:28Z</time>
      </trkpt>
      <trkpt lat="33.77611" lon="77.61182">
        <ele>4932.8</ele>
        <time>2015-09-05T03:44:36Z</time>
      </trkpt>
      <trkpt lat="33.77611" lon="77.61183">
        <ele>4933</ele>
        <time>2015-09-05T03:44:52Z</time>
      </trkpt>
      <trkpt lat="33.77613" lon="77.61189">
        <ele>4934</ele>
        <time>2015-09-05T03:46:45Z</time>
      </trkpt>
      <trkpt lat="33.77608" lon="77.61188">
        <ele>4933.4</ele>
        <time>2015-09-05T03:48:37Z</time>
      </trkpt>
      <trkpt lat="33.77603" lon="77.61191">
        <ele>4934</ele>
        <time>2015-09-05T03:48:44Z</time>
      </trkpt>
      <trkpt lat="33.77601" lon="77.61191">
        <ele>4934.2</ele>
        <time>2015-09-05T03:48:46Z</time>
      </trkpt>
      <trkpt lat="33.776" lon="77.61191">
        <ele>4934.2</ele>
        <time>2015-09-05T03:48:47Z</time>
      </trkpt>
      <trkpt lat="33.776" lon="77.61192">
        <ele>4934.2</ele>
        <time>2015-09-05T03:48:48Z</time>
      </trkpt>
      <trkpt lat="33.77598" lon="77.61193">
        <ele>4934.4</ele>
        <time>2015-09-05T03:48:53Z</time>
      </trkpt>
      <trkpt lat="33.77594" lon="77.61202">
        <ele>4934.4</ele>
        <time>2015-09-05T03:49:05Z</time>
      </trkpt>
      <trkpt lat="33.77592" lon="77.61206">
        <ele>4935.2</ele>
        <time>2015-09-05T03:49:14Z</time>
      </trkpt>
      <trkpt lat="33.77588" lon="77.61208">
        <ele>4936</ele>
        <time>2015-09-05T03:49:20Z</time>
      </trkpt>
      <trkpt lat="33.77587" lon="77.6121">
        <ele>4936.4</ele>
        <time>2015-09-05T03:49:26Z</time>
      </trkpt>
      <trkpt lat="33.77586" lon="77.61213">
        <ele>4936.6</ele>
        <time>2015-09-05T03:49:29Z</time>
      </trkpt>
      <trkpt lat="33.77578" lon="77.61227">
        <ele>4936.2</ele>
        <time>2015-09-05T03:49:46Z</time>
      </trkpt>
      <trkpt lat="33.77571" lon="77.6123">
        <ele>4937.4</ele>
        <time>2015-09-05T03:50:00Z</time>
      </trkpt>
      <trkpt lat="33.77563" lon="77.61238">
        <ele>4938.4</ele>
        <time>2015-09-05T03:50:18Z</time>
      </trkpt>
      <trkpt lat="33.77556" lon="77.6125">
        <ele>4939.2</ele>
        <time>2015-09-05T03:50:32Z</time>
      </trkpt>
      <trkpt lat="33.77555" lon="77.61254">
        <ele>4939.2</ele>
        <time>2015-09-05T03:50:35Z</time>
      </trkpt>
      <trkpt lat="33.77554" lon="77.61256">
        <ele>4939.2</ele>
        <time>2015-09-05T03:50:37Z</time>
      </trkpt>
      <trkpt lat="33.7755" lon="77.61259">
        <ele>4939.6</ele>
        <time>2015-09-05T03:50:43Z</time>
      </trkpt>
      <trkpt lat="33.77547" lon="77.61261">
        <ele>4939.8</ele>
        <time>2015-09-05T03:50:47Z</time>
      </trkpt>
      <trkpt lat="33.77538" lon="77.61266">
        <ele>4940.6</ele>
        <time>2015-09-05T03:51:05Z</time>
      </trkpt>
      <trkpt lat="33.77522" lon="77.61276">
        <ele>4941</ele>
        <time>2015-09-05T03:51:31Z</time>
      </trkpt>
      <trkpt lat="33.77518" lon="77.6128">
        <ele>4941.6</ele>
        <time>2015-09-05T03:51:39Z</time>
      </trkpt>
      <trkpt lat="33.77508" lon="77.61294">
        <ele>4942.6</ele>
        <time>2015-09-05T03:51:57Z</time>
      </trkpt>
      <trkpt lat="33.77499" lon="77.61311">
        <ele>4943.2</ele>
        <time>2015-09-05T03:52:17Z</time>
      </trkpt>
      <trkpt lat="33.77496" lon="77.61317">
        <ele>4943.4</ele>
        <time>2015-09-05T03:52:25Z</time>
      </trkpt>
      <trkpt lat="33.77492" lon="77.6132">
        <ele>4943.4</ele>
        <time>2015-09-05T03:52:29Z</time>
      </trkpt>
      <trkpt lat="33.77489" lon="77.61326">
        <ele>4943.6</ele>
        <time>2015-09-05T03:52:35Z</time>
      </trkpt>
      <trkpt lat="33.77489" lon="77.61326">
        <ele>4943.8</ele>
        <time>2015-09-05T03:52:36Z</time>
      </trkpt>
      <trkpt lat="33.77472" lon="77.61333">
        <ele>4944.4</ele>
        <time>2015-09-05T03:53:01Z</time>
      </trkpt>
      <trkpt lat="33.77469" lon="77.61336">
        <ele>4944.4</ele>
        <time>2015-09-05T03:53:04Z</time>
      </trkpt>
      <trkpt lat="33.77466" lon="77.61338">
        <ele>4944.8</ele>
        <time>2015-09-05T03:53:10Z</time>
      </trkpt>
      <trkpt lat="33.77461" lon="77.61342">
        <ele>4945.2</ele>
        <time>2015-09-05T03:53:18Z</time>
      </trkpt>
      <trkpt lat="33.77457" lon="77.61345">
        <ele>4945.8</ele>
        <time>2015-09-05T03:53:23Z</time>
      </trkpt>
      <trkpt lat="33.77456" lon="77.61346">
        <ele>4945.8</ele>
        <time>2015-09-05T03:53:24Z</time>
      </trkpt>
      <trkpt lat="33.77455" lon="77.61348">
        <ele>4945.8</ele>
        <time>2015-09-05T03:53:26Z</time>
      </trkpt>
      <trkpt lat="33.77452" lon="77.61351">
        <ele>4945.8</ele>
        <time>2015-09-05T03:53:29Z</time>
      </trkpt>
      <trkpt lat="33.77445" lon="77.61361">
        <ele>4946</ele>
        <time>2015-09-05T03:53:38Z</time>
      </trkpt>
      <trkpt lat="33.77441" lon="77.61365">
        <ele>4946.2</ele>
        <time>2015-09-05T03:53:44Z</time>
      </trkpt>
      <trkpt lat="33.7744" lon="77.6137">
        <ele>4946.8</ele>
        <time>2015-09-05T03:53:50Z</time>
      </trkpt>
      <trkpt lat="33.77435" lon="77.61374">
        <ele>4947.6</ele>
        <time>2015-09-05T03:54:01Z</time>
      </trkpt>
      <trkpt lat="33.77431" lon="77.61377">
        <ele>4948</ele>
        <time>2015-09-05T03:54:05Z</time>
      </trkpt>
      <trkpt lat="33.7743" lon="77.61377">
        <ele>4948.2</ele>
        <time>2015-09-05T03:54:06Z</time>
      </trkpt>
      <trkpt lat="33.77428" lon="77.61377">
        <ele>4948.4</ele>
        <time>2015-09-05T03:54:09Z</time>
      </trkpt>
      <trkpt lat="33.77425" lon="77.61381">
        <ele>4948.4</ele>
        <time>2015-09-05T03:54:14Z</time>
      </trkpt>
      <trkpt lat="33.77418" lon="77.61384">
        <ele>4949</ele>
        <time>2015-09-05T03:54:27Z</time>
      </trkpt>
      <trkpt lat="33.77404" lon="77.61389">
        <ele>4949.8</ele>
        <time>2015-09-05T03:54:50Z</time>
      </trkpt>
      <trkpt lat="33.774" lon="77.61393">
        <ele>4949.8</ele>
        <time>2015-09-05T03:54:54Z</time>
      </trkpt>
      <trkpt lat="33.77399" lon="77.61395">
        <ele>4949.8</ele>
        <time>2015-09-05T03:54:56Z</time>
      </trkpt>
      <trkpt lat="33.77397" lon="77.61397">
        <ele>4950</ele>
        <time>2015-09-05T03:54:59Z</time>
      </trkpt>
      <trkpt lat="33.77394" lon="77.614">
        <ele>4951.2</ele>
        <time>2015-09-05T03:55:07Z</time>
      </trkpt>
      <trkpt lat="33.77387" lon="77.61406">
        <ele>4952.2</ele>
        <time>2015-09-05T03:55:18Z</time>
      </trkpt>
      <trkpt lat="33.77373" lon="77.61415">
        <ele>4953.2</ele>
        <time>2015-09-05T03:55:43Z</time>
      </trkpt>
      <trkpt lat="33.77366" lon="77.61418">
        <ele>4954</ele>
        <time>2015-09-05T03:55:58Z</time>
      </trkpt>
      <trkpt lat="33.77357" lon="77.61424">
        <ele>4954.4</ele>
        <time>2015-09-05T03:56:14Z</time>
      </trkpt>
      <trkpt lat="33.77358" lon="77.61423">
        <ele>4955.4</ele>
        <time>2015-09-05T03:56:27Z</time>
      </trkpt>
      <trkpt lat="33.77347" lon="77.61431">
        <ele>4955.8</ele>
        <time>2015-09-05T03:57:04Z</time>
      </trkpt>
      <trkpt lat="33.77344" lon="77.61433">
        <ele>4955.8</ele>
        <time>2015-09-05T03:57:08Z</time>
      </trkpt>
      <trkpt lat="33.77336" lon="77.61437">
        <ele>4956.4</ele>
        <time>2015-09-05T03:57:22Z</time>
      </trkpt>
      <trkpt lat="33.7733" lon="77.61438">
        <ele>4956.2</ele>
        <time>2015-09-05T03:57:30Z</time>
      </trkpt>
      <trkpt lat="33.77328" lon="77.61439">
        <ele>4956</ele>
        <time>2015-09-05T03:57:33Z</time>
      </trkpt>
      <trkpt lat="33.77311" lon="77.61446">
        <ele>4956.8</ele>
        <time>2015-09-05T03:57:59Z</time>
      </trkpt>
      <trkpt lat="33.77302" lon="77.61448">
        <ele>4957.4</ele>
        <time>2015-09-05T03:58:10Z</time>
      </trkpt>
      <trkpt lat="33.77284" lon="77.61452">
        <ele>4958</ele>
        <time>2015-09-05T03:58:38Z</time>
      </trkpt>
      <trkpt lat="33.77266" lon="77.61453">
        <ele>4958.4</ele>
        <time>2015-09-05T03:59:01Z</time>
      </trkpt>
      <trkpt lat="33.77265" lon="77.61453">
        <ele>4958.6</ele>
        <time>2015-09-05T03:59:02Z</time>
      </trkpt>
      <trkpt lat="33.77257" lon="77.61457">
        <ele>4959</ele>
        <time>2015-09-05T03:59:12Z</time>
      </trkpt>
      <trkpt lat="33.77255" lon="77.61457">
        <ele>4959.2</ele>
        <time>2015-09-05T03:59:15Z</time>
      </trkpt>
      <trkpt lat="33.77251" lon="77.61457">
        <ele>4959.4</ele>
        <time>2015-09-05T03:59:20Z</time>
      </trkpt>
      <trkpt lat="33.77238" lon="77.61452">
        <ele>4960</ele>
        <time>2015-09-05T03:59:39Z</time>
      </trkpt>
      <trkpt lat="33.77235" lon="77.61454">
        <ele>4960.2</ele>
        <time>2015-09-05T03:59:42Z</time>
      </trkpt>
      <trkpt lat="33.77233" lon="77.61454">
        <ele>4960.4</ele>
        <time>2015-09-05T03:59:44Z</time>
      </trkpt>
      <trkpt lat="33.77229" lon="77.61455">
        <ele>4961.2</ele>
        <time>2015-09-05T03:59:48Z</time>
      </trkpt>
      <trkpt lat="33.77227" lon="77.61456">
        <ele>4961.6</ele>
        <time>2015-09-05T03:59:52Z</time>
      </trkpt>
      <trkpt lat="33.77223" lon="77.61458">
        <ele>4962</ele>
        <time>2015-09-05T03:59:58Z</time>
      </trkpt>
      <trkpt lat="33.77219" lon="77.61459">
        <ele>4962.2</ele>
        <time>2015-09-05T04:00:02Z</time>
      </trkpt>
      <trkpt lat="33.77217" lon="77.6146">
        <ele>4962.6</ele>
        <time>2015-09-05T04:00:06Z</time>
      </trkpt>
      <trkpt lat="33.77209" lon="77.61468">
        <ele>4963.4</ele>
        <time>2015-09-05T04:00:17Z</time>
      </trkpt>
      <trkpt lat="33.77204" lon="77.61472">
        <ele>4963.8</ele>
        <time>2015-09-05T04:00:22Z</time>
      </trkpt>
      <trkpt lat="33.77203" lon="77.61471">
        <ele>4964</ele>
        <time>2015-09-05T04:00:23Z</time>
      </trkpt>
      <trkpt lat="33.77201" lon="77.61471">
        <ele>4964</ele>
        <time>2015-09-05T04:00:25Z</time>
      </trkpt>
      <trkpt lat="33.77191" lon="77.61473">
        <ele>4964</ele>
        <time>2015-09-05T04:00:38Z</time>
      </trkpt>
      <trkpt lat="33.77184" lon="77.61475">
        <ele>4964.8</ele>
        <time>2015-09-05T04:00:48Z</time>
      </trkpt>
      <trkpt lat="33.77176" lon="77.61479">
        <ele>4965.8</ele>
        <time>2015-09-05T04:01:03Z</time>
      </trkpt>
      <trkpt lat="33.77175" lon="77.61481">
        <ele>4965.8</ele>
        <time>2015-09-05T04:01:05Z</time>
      </trkpt>
      <trkpt lat="33.77173" lon="77.61482">
        <ele>4966.4</ele>
        <time>2015-09-05T04:01:08Z</time>
      </trkpt>
      <trkpt lat="33.7717" lon="77.61485">
        <ele>4966.8</ele>
        <time>2015-09-05T04:01:12Z</time>
      </trkpt>
      <trkpt lat="33.77159" lon="77.61491">
        <ele>4968</ele>
        <time>2015-09-05T04:01:27Z</time>
      </trkpt>
      <trkpt lat="33.77149" lon="77.61492">
        <ele>4969</ele>
        <time>2015-09-05T04:01:40Z</time>
      </trkpt>
      <trkpt lat="33.7714" lon="77.61495">
        <ele>4970</ele>
        <time>2015-09-05T04:01:53Z</time>
      </trkpt>
      <trkpt lat="33.77135" lon="77.61498">
        <ele>4970.4</ele>
        <time>2015-09-05T04:02:00Z</time>
      </trkpt>
      <trkpt lat="33.77127" lon="77.61499">
        <ele>4971.2</ele>
        <time>2015-09-05T04:02:12Z</time>
      </trkpt>
      <trkpt lat="33.77118" lon="77.61506">
        <ele>4972</ele>
        <time>2015-09-05T04:02:27Z</time>
      </trkpt>
      <trkpt lat="33.77116" lon="77.61509">
        <ele>4972.2</ele>
        <time>2015-09-05T04:02:32Z</time>
      </trkpt>
      <trkpt lat="33.77099" lon="77.61515">
        <ele>4973.2</ele>
        <time>2015-09-05T04:02:57Z</time>
      </trkpt>
      <trkpt lat="33.77097" lon="77.61517">
        <ele>4973.2</ele>
        <time>2015-09-05T04:02:59Z</time>
      </trkpt>
      <trkpt lat="33.7708" lon="77.61524">
        <ele>4974.2</ele>
        <time>2015-09-05T04:03:23Z</time>
      </trkpt>
      <trkpt lat="33.77072" lon="77.61527">
        <ele>4975.4</ele>
        <time>2015-09-05T04:03:35Z</time>
      </trkpt>
      <trkpt lat="33.77067" lon="77.61527">
        <ele>4975.4</ele>
        <time>2015-09-05T04:03:42Z</time>
      </trkpt>
      <trkpt lat="33.7706" lon="77.61531">
        <ele>4975.6</ele>
        <time>2015-09-05T04:03:48Z</time>
      </trkpt>
      <trkpt lat="33.77059" lon="77.61532">
        <ele>4975.8</ele>
        <time>2015-09-05T04:03:50Z</time>
      </trkpt>
      <trkpt lat="33.77058" lon="77.61532">
        <ele>4976</ele>
        <time>2015-09-05T04:03:52Z</time>
      </trkpt>
      <trkpt lat="33.77056" lon="77.61533">
        <ele>4976.4</ele>
        <time>2015-09-05T04:03:55Z</time>
      </trkpt>
      <trkpt lat="33.77039" lon="77.61537">
        <ele>4976.8</ele>
        <time>2015-09-05T04:04:24Z</time>
      </trkpt>
      <trkpt lat="33.77036" lon="77.6154">
        <ele>4977.4</ele>
        <time>2015-09-05T04:04:29Z</time>
      </trkpt>
      <trkpt lat="33.77034" lon="77.61542">
        <ele>4977.6</ele>
        <time>2015-09-05T04:04:32Z</time>
      </trkpt>
      <trkpt lat="33.77032" lon="77.61544">
        <ele>4977.6</ele>
        <time>2015-09-05T04:04:34Z</time>
      </trkpt>
      <trkpt lat="33.77023" lon="77.61554">
        <ele>4978.2</ele>
        <time>2015-09-05T04:04:48Z</time>
      </trkpt>
      <trkpt lat="33.77022" lon="77.61556">
        <ele>4978.2</ele>
        <time>2015-09-05T04:04:50Z</time>
      </trkpt>
      <trkpt lat="33.77021" lon="77.61556">
        <ele>4978.4</ele>
        <time>2015-09-05T04:04:53Z</time>
      </trkpt>
      <trkpt lat="33.77012" lon="77.61562">
        <ele>4979.4</ele>
        <time>2015-09-05T04:05:09Z</time>
      </trkpt>
      <trkpt lat="33.77005" lon="77.61565">
        <ele>4980.4</ele>
        <time>2015-09-05T04:05:25Z</time>
      </trkpt>
      <trkpt lat="33.77002" lon="77.6157">
        <ele>4981.6</ele>
        <time>2015-09-05T04:05:34Z</time>
      </trkpt>
      <trkpt lat="33.77002" lon="77.61578">
        <ele>4982.6</ele>
        <time>2015-09-05T04:05:46Z</time>
      </trkpt>
      <trkpt lat="33.77001" lon="77.61582">
        <ele>4983</ele>
        <time>2015-09-05T04:05:49Z</time>
      </trkpt>
      <trkpt lat="33.76997" lon="77.6159">
        <ele>4983.8</ele>
        <time>2015-09-05T04:06:00Z</time>
      </trkpt>
      <trkpt lat="33.76992" lon="77.61596">
        <ele>4984</ele>
        <time>2015-09-05T04:06:08Z</time>
      </trkpt>
      <trkpt lat="33.76987" lon="77.61598">
        <ele>4984.6</ele>
        <time>2015-09-05T04:06:18Z</time>
      </trkpt>
      <trkpt lat="33.76982" lon="77.61599">
        <ele>4984.8</ele>
        <time>2015-09-05T04:06:23Z</time>
      </trkpt>
      <trkpt lat="33.76981" lon="77.616">
        <ele>4984.8</ele>
        <time>2015-09-05T04:06:24Z</time>
      </trkpt>
      <trkpt lat="33.7698" lon="77.616">
        <ele>4984.8</ele>
        <time>2015-09-05T04:06:26Z</time>
      </trkpt>
      <trkpt lat="33.76978" lon="77.616">
        <ele>4984.8</ele>
        <time>2015-09-05T04:06:28Z</time>
      </trkpt>
      <trkpt lat="33.76976" lon="77.616">
        <ele>4985.2</ele>
        <time>2015-09-05T04:06:32Z</time>
      </trkpt>
      <trkpt lat="33.76959" lon="77.61603">
        <ele>4985.8</ele>
        <time>2015-09-05T04:06:55Z</time>
      </trkpt>
      <trkpt lat="33.76952" lon="77.61615">
        <ele>4986.8</ele>
        <time>2015-09-05T04:07:12Z</time>
      </trkpt>
      <trkpt lat="33.76952" lon="77.6162">
        <ele>4987.2</ele>
        <time>2015-09-05T04:07:15Z</time>
      </trkpt>
      <trkpt lat="33.76948" lon="77.61628">
        <ele>4987.8</ele>
        <time>2015-09-05T04:07:33Z</time>
      </trkpt>
      <trkpt lat="33.7694" lon="77.61635">
        <ele>4988</ele>
        <time>2015-09-05T04:07:48Z</time>
      </trkpt>
      <trkpt lat="33.76933" lon="77.61648">
        <ele>4988.6</ele>
        <time>2015-09-05T04:08:02Z</time>
      </trkpt>
      <trkpt lat="33.7693" lon="77.61655">
        <ele>4988.8</ele>
        <time>2015-09-05T04:08:09Z</time>
      </trkpt>
      <trkpt lat="33.76929" lon="77.61656">
        <ele>4988.8</ele>
        <time>2015-09-05T04:08:10Z</time>
      </trkpt>
      <trkpt lat="33.76929" lon="77.61657">
        <ele>4989</ele>
        <time>2015-09-05T04:08:11Z</time>
      </trkpt>
      <trkpt lat="33.76925" lon="77.61662">
        <ele>4990</ele>
        <time>2015-09-05T04:08:26Z</time>
      </trkpt>
      <trkpt lat="33.76921" lon="77.61665">
        <ele>4991</ele>
        <time>2015-09-05T04:08:35Z</time>
      </trkpt>
      <trkpt lat="33.76916" lon="77.61668">
        <ele>4992.2</ele>
        <time>2015-09-05T04:08:45Z</time>
      </trkpt>
      <trkpt lat="33.76915" lon="77.61675">
        <ele>4992.4</ele>
        <time>2015-09-05T04:08:50Z</time>
      </trkpt>
      <trkpt lat="33.76913" lon="77.61676">
        <ele>4993.2</ele>
        <time>2015-09-05T04:08:56Z</time>
      </trkpt>
      <trkpt lat="33.76909" lon="77.61677">
        <ele>4993.8</ele>
        <time>2015-09-05T04:09:03Z</time>
      </trkpt>
      <trkpt lat="33.76905" lon="77.61683">
        <ele>4994.2</ele>
        <time>2015-09-05T04:09:10Z</time>
      </trkpt>
      <trkpt lat="33.76903" lon="77.61684">
        <ele>4995.2</ele>
        <time>2015-09-05T04:09:22Z</time>
      </trkpt>
      <trkpt lat="33.76896" lon="77.61692">
        <ele>4996.2</ele>
        <time>2015-09-05T04:09:34Z</time>
      </trkpt>
      <trkpt lat="33.76895" lon="77.61693">
        <ele>4996.4</ele>
        <time>2015-09-05T04:09:36Z</time>
      </trkpt>
      <trkpt lat="33.76889" lon="77.61702">
        <ele>4997.4</ele>
        <time>2015-09-05T04:09:53Z</time>
      </trkpt>
      <trkpt lat="33.76883" lon="77.61704">
        <ele>4998.4</ele>
        <time>2015-09-05T04:10:06Z</time>
      </trkpt>
      <trkpt lat="33.76881" lon="77.61705">
        <ele>4998.8</ele>
        <time>2015-09-05T04:10:10Z</time>
      </trkpt>
      <trkpt lat="33.76878" lon="77.61708">
        <ele>4999.4</ele>
        <time>2015-09-05T04:10:18Z</time>
      </trkpt>
      <trkpt lat="33.76873" lon="77.61715">
        <ele>5000.4</ele>
        <time>2015-09-05T04:10:29Z</time>
      </trkpt>
      <trkpt lat="33.76872" lon="77.61715">
        <ele>5000.4</ele>
        <time>2015-09-05T04:10:30Z</time>
      </trkpt>
      <trkpt lat="33.76866" lon="77.61721">
        <ele>5001.4</ele>
        <time>2015-09-05T04:10:43Z</time>
      </trkpt>
      <trkpt lat="33.76859" lon="77.61727">
        <ele>5002.4</ele>
        <time>2015-09-05T04:10:59Z</time>
      </trkpt>
      <trkpt lat="33.76852" lon="77.61731">
        <ele>5003.4</ele>
        <time>2015-09-05T04:11:17Z</time>
      </trkpt>
      <trkpt lat="33.76838" lon="77.61744">
        <ele>5004.6</ele>
        <time>2015-09-05T04:11:40Z</time>
      </trkpt>
      <trkpt lat="33.76833" lon="77.61748">
        <ele>5005.6</ele>
        <time>2015-09-05T04:11:50Z</time>
      </trkpt>
      <trkpt lat="33.76831" lon="77.61751">
        <ele>5006.6</ele>
        <time>2015-09-05T04:12:01Z</time>
      </trkpt>
      <trkpt lat="33.76827" lon="77.61755">
        <ele>5007.6</ele>
        <time>2015-09-05T04:12:14Z</time>
      </trkpt>
      <trkpt lat="33.76828" lon="77.61755">
        <ele>5007.8</ele>
        <time>2015-09-05T04:12:15Z</time>
      </trkpt>
      <trkpt lat="33.76824" lon="77.61761">
        <ele>5008.6</ele>
        <time>2015-09-05T04:12:27Z</time>
      </trkpt>
      <trkpt lat="33.76823" lon="77.61762">
        <ele>5008.8</ele>
        <time>2015-09-05T04:12:28Z</time>
      </trkpt>
      <trkpt lat="33.76823" lon="77.61763">
        <ele>5008.8</ele>
        <time>2015-09-05T04:12:29Z</time>
      </trkpt>
      <trkpt lat="33.76818" lon="77.61768">
        <ele>5009.8</ele>
        <time>2015-09-05T04:12:38Z</time>
      </trkpt>
      <trkpt lat="33.76813" lon="77.61773">
        <ele>5010.8</ele>
        <time>2015-09-05T04:12:50Z</time>
      </trkpt>
      <trkpt lat="33.76811" lon="77.61779">
        <ele>5011.8</ele>
        <time>2015-09-05T04:13:01Z</time>
      </trkpt>
      <trkpt lat="33.76808" lon="77.61781">
        <ele>5012.8</ele>
        <time>2015-09-05T04:13:09Z</time>
      </trkpt>
      <trkpt lat="33.76803" lon="77.61788">
        <ele>5013.8</ele>
        <time>2015-09-05T04:13:20Z</time>
      </trkpt>
      <trkpt lat="33.76799" lon="77.61796">
        <ele>5015</ele>
        <time>2015-09-05T04:13:33Z</time>
      </trkpt>
      <trkpt lat="33.76795" lon="77.61802">
        <ele>5016</ele>
        <time>2015-09-05T04:13:47Z</time>
      </trkpt>
      <trkpt lat="33.76789" lon="77.61808">
        <ele>5017</ele>
        <time>2015-09-05T04:14:01Z</time>
      </trkpt>
      <trkpt lat="33.76785" lon="77.61811">
        <ele>5018.2</ele>
        <time>2015-09-05T04:14:17Z</time>
      </trkpt>
      <trkpt lat="33.76784" lon="77.61822">
        <ele>5019.2</ele>
        <time>2015-09-05T04:14:31Z</time>
      </trkpt>
      <trkpt lat="33.7678" lon="77.61829">
        <ele>5020.2</ele>
        <time>2015-09-05T04:14:41Z</time>
      </trkpt>
      <trkpt lat="33.7678" lon="77.61831">
        <ele>5020.2</ele>
        <time>2015-09-05T04:14:43Z</time>
      </trkpt>
      <trkpt lat="33.76776" lon="77.6184">
        <ele>5021.2</ele>
        <time>2015-09-05T04:14:53Z</time>
      </trkpt>
      <trkpt lat="33.76771" lon="77.61845">
        <ele>5022.2</ele>
        <time>2015-09-05T04:15:02Z</time>
      </trkpt>
      <trkpt lat="33.76769" lon="77.61845">
        <ele>5023.2</ele>
        <time>2015-09-05T04:15:11Z</time>
      </trkpt>
      <trkpt lat="33.76769" lon="77.61846">
        <ele>5024.2</ele>
        <time>2015-09-05T04:15:19Z</time>
      </trkpt>
      <trkpt lat="33.76765" lon="77.61851">
        <ele>5024.8</ele>
        <time>2015-09-05T04:15:27Z</time>
      </trkpt>
      <trkpt lat="33.76765" lon="77.6185">
        <ele>5025.4</ele>
        <time>2015-09-05T04:15:31Z</time>
      </trkpt>
      <trkpt lat="33.76764" lon="77.61851">
        <ele>5026.4</ele>
        <time>2015-09-05T04:15:41Z</time>
      </trkpt>
      <trkpt lat="33.76757" lon="77.6186">
        <ele>5027.4</ele>
        <time>2015-09-05T04:15:58Z</time>
      </trkpt>
      <trkpt lat="33.76757" lon="77.61861">
        <ele>5028.6</ele>
        <time>2015-09-05T04:16:02Z</time>
      </trkpt>
      <trkpt lat="33.76755" lon="77.61858">
        <ele>5029.6</ele>
        <time>2015-09-05T04:16:10Z</time>
      </trkpt>
      <trkpt lat="33.76752" lon="77.6186">
        <ele>5029.8</ele>
        <time>2015-09-05T04:16:13Z</time>
      </trkpt>
      <trkpt lat="33.76749" lon="77.61861">
        <ele>5029.8</ele>
        <time>2015-09-05T04:16:15Z</time>
      </trkpt>
      <trkpt lat="33.76743" lon="77.61869">
        <ele>5030.6</ele>
        <time>2015-09-05T04:16:31Z</time>
      </trkpt>
      <trkpt lat="33.76746" lon="77.61868">
        <ele>5031.4</ele>
        <time>2015-09-05T04:17:29Z</time>
      </trkpt>
      <trkpt lat="33.76744" lon="77.6187">
        <ele>5031.2</ele>
        <time>2015-09-05T04:18:01Z</time>
      </trkpt>
      <trkpt lat="33.76744" lon="77.61869">
        <ele>5031.6</ele>
        <time>2015-09-05T04:18:37Z</time>
      </trkpt>
      <trkpt lat="33.76745" lon="77.6187">
        <ele>5031.2</ele>
        <time>2015-09-05T04:19:09Z</time>
      </trkpt>
      <trkpt lat="33.76742" lon="77.61873">
        <ele>5031.2</ele>
        <time>2015-09-05T04:19:37Z</time>
      </trkpt>
      <trkpt lat="33.76739" lon="77.61875">
        <ele>5031.6</ele>
        <time>2015-09-05T04:20:04Z</time>
      </trkpt>
      <trkpt lat="33.76732" lon="77.6188">
        <ele>5032.8</ele>
        <time>2015-09-05T04:20:18Z</time>
      </trkpt>
      <trkpt lat="33.76731" lon="77.61881">
        <ele>5033.8</ele>
        <time>2015-09-05T04:20:28Z</time>
      </trkpt>
      <trkpt lat="33.76732" lon="77.61878">
        <ele>5034</ele>
        <time>2015-09-05T04:21:07Z</time>
      </trkpt>
      <trkpt lat="33.76728" lon="77.61881">
        <ele>5033.6</ele>
        <time>2015-09-05T04:21:16Z</time>
      </trkpt>
      <trkpt lat="33.76721" lon="77.61888">
        <ele>5034.4</ele>
        <time>2015-09-05T04:21:24Z</time>
      </trkpt>
      <trkpt lat="33.76721" lon="77.61887">
        <ele>5034.4</ele>
        <time>2015-09-05T04:21:27Z</time>
      </trkpt>
      <trkpt lat="33.7672" lon="77.61888">
        <ele>5034.8</ele>
        <time>2015-09-05T04:21:30Z</time>
      </trkpt>
      <trkpt lat="33.7672" lon="77.61887">
        <ele>5036</ele>
        <time>2015-09-05T04:21:38Z</time>
      </trkpt>
      <trkpt lat="33.76721" lon="77.61889">
        <ele>5037</ele>
        <time>2015-09-05T04:22:01Z</time>
      </trkpt>
      <trkpt lat="33.76716" lon="77.61891">
        <ele>5038</ele>
        <time>2015-09-05T04:22:37Z</time>
      </trkpt>
      <trkpt lat="33.76717" lon="77.61893">
        <ele>5039.2</ele>
        <time>2015-09-05T04:22:43Z</time>
      </trkpt>
      <trkpt lat="33.76721" lon="77.61899">
        <ele>5040.2</ele>
        <time>2015-09-05T04:22:52Z</time>
      </trkpt>
      <trkpt lat="33.76721" lon="77.61901">
        <ele>5041.2</ele>
        <time>2015-09-05T04:23:00Z</time>
      </trkpt>
      <trkpt lat="33.76728" lon="77.61907">
        <ele>5042.2</ele>
        <time>2015-09-05T04:23:14Z</time>
      </trkpt>
      <trkpt lat="33.76724" lon="77.61909">
        <ele>5043.4</ele>
        <time>2015-09-05T04:23:23Z</time>
      </trkpt>
      <trkpt lat="33.76724" lon="77.61909">
        <ele>5044.6</ele>
        <time>2015-09-05T04:23:31Z</time>
      </trkpt>
      <trkpt lat="33.76726" lon="77.61911">
        <ele>5045.6</ele>
        <time>2015-09-05T04:23:40Z</time>
      </trkpt>
      <trkpt lat="33.76721" lon="77.6191">
        <ele>5046.4</ele>
        <time>2015-09-05T04:24:05Z</time>
      </trkpt>
      <trkpt lat="33.76721" lon="77.6191">
        <ele>5046.8</ele>
        <time>2015-09-05T04:24:07Z</time>
      </trkpt>
      <trkpt lat="33.76733" lon="77.61916">
        <ele>5047.8</ele>
        <time>2015-09-05T04:24:17Z</time>
      </trkpt>
      <trkpt lat="33.76734" lon="77.61918">
        <ele>5048.8</ele>
        <time>2015-09-05T04:24:26Z</time>
      </trkpt>
      <trkpt lat="33.76741" lon="77.61924">
        <ele>5049.8</ele>
        <time>2015-09-05T04:24:41Z</time>
      </trkpt>
      <trkpt lat="33.7674" lon="77.61927">
        <ele>5050.8</ele>
        <time>2015-09-05T04:24:52Z</time>
      </trkpt>
      <trkpt lat="33.76738" lon="77.61927">
        <ele>5052</ele>
        <time>2015-09-05T04:25:01Z</time>
      </trkpt>
      <trkpt lat="33.7675" lon="77.61927">
        <ele>5053</ele>
        <time>2015-09-05T04:25:17Z</time>
      </trkpt>
      <trkpt lat="33.76758" lon="77.61935">
        <ele>5053.8</ele>
        <time>2015-09-05T04:25:28Z</time>
      </trkpt>
      <trkpt lat="33.76761" lon="77.61937">
        <ele>5054</ele>
        <time>2015-09-05T04:25:30Z</time>
      </trkpt>
      <trkpt lat="33.76759" lon="77.61936">
        <ele>5055.2</ele>
        <time>2015-09-05T04:25:43Z</time>
      </trkpt>
      <trkpt lat="33.7676" lon="77.61937">
        <ele>5056.2</ele>
        <time>2015-09-05T04:25:53Z</time>
      </trkpt>
      <trkpt lat="33.7676" lon="77.61934">
        <ele>5057.4</ele>
        <time>2015-09-05T04:26:02Z</time>
      </trkpt>
      <trkpt lat="33.76767" lon="77.61938">
        <ele>5058.4</ele>
        <time>2015-09-05T04:26:12Z</time>
      </trkpt>
      <trkpt lat="33.76772" lon="77.61942">
        <ele>5059</ele>
        <time>2015-09-05T04:26:18Z</time>
      </trkpt>
      <trkpt lat="33.76772" lon="77.61942">
        <ele>5059.4</ele>
        <time>2015-09-05T04:26:23Z</time>
      </trkpt>
      <trkpt lat="33.76772" lon="77.61941">
        <ele>5060.4</ele>
        <time>2015-09-05T04:26:30Z</time>
      </trkpt>
      <trkpt lat="33.76775" lon="77.61946">
        <ele>5061</ele>
        <time>2015-09-05T04:26:36Z</time>
      </trkpt>
      <trkpt lat="33.76779" lon="77.6195">
        <ele>5061.6</ele>
        <time>2015-09-05T04:26:43Z</time>
      </trkpt>
      <trkpt lat="33.76778" lon="77.61949">
        <ele>5062.6</ele>
        <time>2015-09-05T04:26:54Z</time>
      </trkpt>
      <trkpt lat="33.76779" lon="77.61951">
        <ele>5063.6</ele>
        <time>2015-09-05T04:27:02Z</time>
      </trkpt>
      <trkpt lat="33.76775" lon="77.61956">
        <ele>5064.8</ele>
        <time>2015-09-05T04:27:14Z</time>
      </trkpt>
      <trkpt lat="33.7677" lon="77.61958">
        <ele>5065.8</ele>
        <time>2015-09-05T04:27:24Z</time>
      </trkpt>
      <trkpt lat="33.7677" lon="77.61959">
        <ele>5066.8</ele>
        <time>2015-09-05T04:27:32Z</time>
      </trkpt>
      <trkpt lat="33.76767" lon="77.61963">
        <ele>5067.8</ele>
        <time>2015-09-05T04:27:41Z</time>
      </trkpt>
      <trkpt lat="33.76766" lon="77.6197">
        <ele>5069</ele>
        <time>2015-09-05T04:27:54Z</time>
      </trkpt>
      <trkpt lat="33.76761" lon="77.61972">
        <ele>5069.6</ele>
        <time>2015-09-05T04:27:59Z</time>
      </trkpt>
      <trkpt lat="33.76761" lon="77.61974">
        <ele>5070</ele>
        <time>2015-09-05T04:28:03Z</time>
      </trkpt>
      <trkpt lat="33.76761" lon="77.61976">
        <ele>5071</ele>
        <time>2015-09-05T04:28:13Z</time>
      </trkpt>
      <trkpt lat="33.76766" lon="77.6198">
        <ele>5072.2</ele>
        <time>2015-09-05T04:28:24Z</time>
      </trkpt>
      <trkpt lat="33.76765" lon="77.61983">
        <ele>5073.2</ele>
        <time>2015-09-05T04:28:35Z</time>
      </trkpt>
      <trkpt lat="33.76765" lon="77.6199">
        <ele>5074.2</ele>
        <time>2015-09-05T04:28:46Z</time>
      </trkpt>
      <trkpt lat="33.76763" lon="77.61992">
        <ele>5075.2</ele>
        <time>2015-09-05T04:28:57Z</time>
      </trkpt>
      <trkpt lat="33.76762" lon="77.61997">
        <ele>5076.2</ele>
        <time>2015-09-05T04:29:09Z</time>
      </trkpt>
      <trkpt lat="33.76763" lon="77.62004">
        <ele>5077.4</ele>
        <time>2015-09-05T04:29:22Z</time>
      </trkpt>
      <trkpt lat="33.76762" lon="77.6201">
        <ele>5078.4</ele>
        <time>2015-09-05T04:29:35Z</time>
      </trkpt>
      <trkpt lat="33.76756" lon="77.62013">
        <ele>5079.4</ele>
        <time>2015-09-05T04:29:51Z</time>
      </trkpt>
      <trkpt lat="33.76752" lon="77.62016">
        <ele>5080.6</ele>
        <time>2015-09-05T04:29:58Z</time>
      </trkpt>
      <trkpt lat="33.76751" lon="77.62014">
        <ele>5081</ele>
        <time>2015-09-05T04:30:04Z</time>
      </trkpt>
      <trkpt lat="33.76751" lon="77.62017">
        <ele>5081.6</ele>
        <time>2015-09-05T04:30:09Z</time>
      </trkpt>
      <trkpt lat="33.7675" lon="77.62023">
        <ele>5082.6</ele>
        <time>2015-09-05T04:30:20Z</time>
      </trkpt>
      <trkpt lat="33.76745" lon="77.62028">
        <ele>5083.6</ele>
        <time>2015-09-05T04:30:32Z</time>
      </trkpt>
      <trkpt lat="33.76746" lon="77.62029">
        <ele>5084.8</ele>
        <time>2015-09-05T04:30:38Z</time>
      </trkpt>
      <trkpt lat="33.76745" lon="77.62031">
        <ele>5085.8</ele>
        <time>2015-09-05T04:30:49Z</time>
      </trkpt>
      <trkpt lat="33.76743" lon="77.62034">
        <ele>5086.8</ele>
        <time>2015-09-05T04:31:00Z</time>
      </trkpt>
      <trkpt lat="33.76744" lon="77.62041">
        <ele>5087.8</ele>
        <time>2015-09-05T04:31:10Z</time>
      </trkpt>
      <trkpt lat="33.76742" lon="77.62045">
        <ele>5088.8</ele>
        <time>2015-09-05T04:31:21Z</time>
      </trkpt>
      <trkpt lat="33.7674" lon="77.62048">
        <ele>5089.8</ele>
        <time>2015-09-05T04:31:32Z</time>
      </trkpt>
      <trkpt lat="33.76738" lon="77.6205">
        <ele>5090.8</ele>
        <time>2015-09-05T04:31:39Z</time>
      </trkpt>
      <trkpt lat="33.76743" lon="77.62053">
        <ele>5091.2</ele>
        <time>2015-09-05T04:31:43Z</time>
      </trkpt>
      <trkpt lat="33.76741" lon="77.62052">
        <ele>5092</ele>
        <time>2015-09-05T04:31:49Z</time>
      </trkpt>
      <trkpt lat="33.76742" lon="77.62056">
        <ele>5093</ele>
        <time>2015-09-05T04:31:59Z</time>
      </trkpt>
      <trkpt lat="33.76741" lon="77.6206">
        <ele>5094</ele>
        <time>2015-09-05T04:32:12Z</time>
      </trkpt>
      <trkpt lat="33.76744" lon="77.62064">
        <ele>5095</ele>
        <time>2015-09-05T04:32:24Z</time>
      </trkpt>
      <trkpt lat="33.76743" lon="77.62067">
        <ele>5096.4</ele>
        <time>2015-09-05T04:32:34Z</time>
      </trkpt>
      <trkpt lat="33.76747" lon="77.62072">
        <ele>5097.4</ele>
        <time>2015-09-05T04:32:43Z</time>
      </trkpt>
      <trkpt lat="33.76744" lon="77.62073">
        <ele>5098.6</ele>
        <time>2015-09-05T04:32:57Z</time>
      </trkpt>
      <trkpt lat="33.76747" lon="77.62074">
        <ele>5099.6</ele>
        <time>2015-09-05T04:33:03Z</time>
      </trkpt>
      <trkpt lat="33.7675" lon="77.62079">
        <ele>5100.8</ele>
        <time>2015-09-05T04:33:16Z</time>
      </trkpt>
      <trkpt lat="33.76758" lon="77.62083">
        <ele>5101.8</ele>
        <time>2015-09-05T04:33:26Z</time>
      </trkpt>
      <trkpt lat="33.76755" lon="77.62074">
        <ele>5102</ele>
        <time>2015-09-05T04:33:27Z</time>
      </trkpt>
      <trkpt lat="33.76755" lon="77.62073">
        <ele>5102</ele>
        <time>2015-09-05T04:33:29Z</time>
      </trkpt>
      <trkpt lat="33.76756" lon="77.62073">
        <ele>5102.2</ele>
        <time>2015-09-05T04:33:31Z</time>
      </trkpt>
      <trkpt lat="33.76757" lon="77.62075">
        <ele>5103</ele>
        <time>2015-09-05T04:33:39Z</time>
      </trkpt>
      <trkpt lat="33.76757" lon="77.62076">
        <ele>5104</ele>
        <time>2015-09-05T04:33:47Z</time>
      </trkpt>
      <trkpt lat="33.76764" lon="77.6208">
        <ele>5105.2</ele>
        <time>2015-09-05T04:33:55Z</time>
      </trkpt>
      <trkpt lat="33.76775" lon="77.62088">
        <ele>5105.6</ele>
        <time>2015-09-05T04:34:00Z</time>
      </trkpt>
      <trkpt lat="33.76777" lon="77.62083">
        <ele>5106.2</ele>
        <time>2015-09-05T04:34:09Z</time>
      </trkpt>
      <trkpt lat="33.76777" lon="77.62081">
        <ele>5106.8</ele>
        <time>2015-09-05T04:34:24Z</time>
      </trkpt>
      <trkpt lat="33.76779" lon="77.62082">
        <ele>5107.4</ele>
        <time>2015-09-05T04:34:30Z</time>
      </trkpt>
      <trkpt lat="33.76781" lon="77.62088">
        <ele>5108</ele>
        <time>2015-09-05T04:34:41Z</time>
      </trkpt>
      <trkpt lat="33.76783" lon="77.62088">
        <ele>5108.4</ele>
        <time>2015-09-05T04:34:45Z</time>
      </trkpt>
      <trkpt lat="33.76787" lon="77.62093">
        <ele>5109.6</ele>
        <time>2015-09-05T04:35:01Z</time>
      </trkpt>
      <trkpt lat="33.76787" lon="77.62094">
        <ele>5110.6</ele>
        <time>2015-09-05T04:35:10Z</time>
      </trkpt>
      <trkpt lat="33.76785" lon="77.62092">
        <ele>5111.6</ele>
        <time>2015-09-05T04:35:19Z</time>
      </trkpt>
      <trkpt lat="33.76787" lon="77.62093">
        <ele>5112.6</ele>
        <time>2015-09-05T04:35:26Z</time>
      </trkpt>
      <trkpt lat="33.76786" lon="77.62097">
        <ele>5113.8</ele>
        <time>2015-09-05T04:35:36Z</time>
      </trkpt>
      <trkpt lat="33.76788" lon="77.62101">
        <ele>5114</ele>
        <time>2015-09-05T04:35:39Z</time>
      </trkpt>
      <trkpt lat="33.76787" lon="77.62105">
        <ele>5114.8</ele>
        <time>2015-09-05T04:35:50Z</time>
      </trkpt>
      <trkpt lat="33.7678" lon="77.62107">
        <ele>5115.8</ele>
        <time>2015-09-05T04:36:00Z</time>
      </trkpt>
      <trkpt lat="33.76778" lon="77.62109">
        <ele>5117</ele>
        <time>2015-09-05T04:36:11Z</time>
      </trkpt>
      <trkpt lat="33.76774" lon="77.62111">
        <ele>5118</ele>
        <time>2015-09-05T04:36:20Z</time>
      </trkpt>
      <trkpt lat="33.7677" lon="77.62114">
        <ele>5119.2</ele>
        <time>2015-09-05T04:36:32Z</time>
      </trkpt>
      <trkpt lat="33.76764" lon="77.62123">
        <ele>5120.2</ele>
        <time>2015-09-05T04:36:59Z</time>
      </trkpt>
      <trkpt lat="33.76762" lon="77.62128">
        <ele>5121.4</ele>
        <time>2015-09-05T04:37:11Z</time>
      </trkpt>
      <trkpt lat="33.76763" lon="77.6213">
        <ele>5122.4</ele>
        <time>2015-09-05T04:37:17Z</time>
      </trkpt>
      <trkpt lat="33.76759" lon="77.62132">
        <ele>5123.6</ele>
        <time>2015-09-05T04:37:28Z</time>
      </trkpt>
      <trkpt lat="33.76757" lon="77.62134">
        <ele>5124.6</ele>
        <time>2015-09-05T04:37:36Z</time>
      </trkpt>
      <trkpt lat="33.7676" lon="77.62141">
        <ele>5125.6</ele>
        <time>2015-09-05T04:37:46Z</time>
      </trkpt>
      <trkpt lat="33.76771" lon="77.6215">
        <ele>5126.4</ele>
        <time>2015-09-05T04:37:52Z</time>
      </trkpt>
      <trkpt lat="33.7677" lon="77.62149">
        <ele>5126.8</ele>
        <time>2015-09-05T04:37:54Z</time>
      </trkpt>
      <trkpt lat="33.76765" lon="77.62147">
        <ele>5127</ele>
        <time>2015-09-05T04:37:58Z</time>
      </trkpt>
      <trkpt lat="33.76766" lon="77.62148">
        <ele>5127.8</ele>
        <time>2015-09-05T04:38:04Z</time>
      </trkpt>
      <trkpt lat="33.76765" lon="77.62151">
        <ele>5129</ele>
        <time>2015-09-05T04:38:12Z</time>
      </trkpt>
      <trkpt lat="33.76764" lon="77.62155">
        <ele>5130</ele>
        <time>2015-09-05T04:38:21Z</time>
      </trkpt>
      <trkpt lat="33.76762" lon="77.62157">
        <ele>5131.2</ele>
        <time>2015-09-05T04:38:30Z</time>
      </trkpt>
      <trkpt lat="33.7676" lon="77.62162">
        <ele>5132.2</ele>
        <time>2015-09-05T04:38:40Z</time>
      </trkpt>
      <trkpt lat="33.76761" lon="77.62168">
        <ele>5133.4</ele>
        <time>2015-09-05T04:38:50Z</time>
      </trkpt>
      <trkpt lat="33.76763" lon="77.62169">
        <ele>5134.4</ele>
        <time>2015-09-05T04:38:59Z</time>
      </trkpt>
      <trkpt lat="33.76765" lon="77.62172">
        <ele>5135.4</ele>
        <time>2015-09-05T04:39:08Z</time>
      </trkpt>
      <trkpt lat="33.76765" lon="77.62173">
        <ele>5135.6</ele>
        <time>2015-09-05T04:39:10Z</time>
      </trkpt>
      <trkpt lat="33.76769" lon="77.62176">
        <ele>5136.6</ele>
        <time>2015-09-05T04:39:18Z</time>
      </trkpt>
      <trkpt lat="33.76771" lon="77.6218">
        <ele>5137.6</ele>
        <time>2015-09-05T04:39:30Z</time>
      </trkpt>
      <trkpt lat="33.76776" lon="77.62186">
        <ele>5138.6</ele>
        <time>2015-09-05T04:39:39Z</time>
      </trkpt>
      <trkpt lat="33.76782" lon="77.62189">
        <ele>5139.8</ele>
        <time>2015-09-05T04:39:48Z</time>
      </trkpt>
      <trkpt lat="33.76789" lon="77.62193">
        <ele>5140.8</ele>
        <time>2015-09-05T04:39:58Z</time>
      </trkpt>
      <trkpt lat="33.76789" lon="77.62196">
        <ele>5141.8</ele>
        <time>2015-09-05T04:40:07Z</time>
      </trkpt>
      <trkpt lat="33.76789" lon="77.62197">
        <ele>5143</ele>
        <time>2015-09-05T04:40:18Z</time>
      </trkpt>
      <trkpt lat="33.76787" lon="77.62199">
        <ele>5144</ele>
        <time>2015-09-05T04:40:27Z</time>
      </trkpt>
      <trkpt lat="33.76788" lon="77.622">
        <ele>5144</ele>
        <time>2015-09-05T04:40:28Z</time>
      </trkpt>
      <trkpt lat="33.76784" lon="77.62203">
        <ele>5145</ele>
        <time>2015-09-05T04:40:37Z</time>
      </trkpt>
      <trkpt lat="33.76782" lon="77.62209">
        <ele>5146.2</ele>
        <time>2015-09-05T04:40:48Z</time>
      </trkpt>
      <trkpt lat="33.76779" lon="77.6221">
        <ele>5147.2</ele>
        <time>2015-09-05T04:40:58Z</time>
      </trkpt>
      <trkpt lat="33.76781" lon="77.62212">
        <ele>5148.2</ele>
        <time>2015-09-05T04:41:03Z</time>
      </trkpt>
      <trkpt lat="33.76783" lon="77.62213">
        <ele>5149</ele>
        <time>2015-09-05T04:41:10Z</time>
      </trkpt>
      <trkpt lat="33.76784" lon="77.62212">
        <ele>5149.2</ele>
        <time>2015-09-05T04:41:13Z</time>
      </trkpt>
      <trkpt lat="33.76794" lon="77.62222">
        <ele>5150.2</ele>
        <time>2015-09-05T04:41:22Z</time>
      </trkpt>
      <trkpt lat="33.76795" lon="77.62223">
        <ele>5150.4</ele>
        <time>2015-09-05T04:41:23Z</time>
      </trkpt>
      <trkpt lat="33.76801" lon="77.62228">
        <ele>5151.2</ele>
        <time>2015-09-05T04:41:31Z</time>
      </trkpt>
      <trkpt lat="33.76801" lon="77.62229">
        <ele>5151.4</ele>
        <time>2015-09-05T04:41:32Z</time>
      </trkpt>
      <trkpt lat="33.76796" lon="77.62225">
        <ele>5152</ele>
        <time>2015-09-05T04:41:40Z</time>
      </trkpt>
      <trkpt lat="33.76795" lon="77.62218">
        <ele>5152.4</ele>
        <time>2015-09-05T04:41:53Z</time>
      </trkpt>
      <trkpt lat="33.768" lon="77.6222">
        <ele>5153.6</ele>
        <time>2015-09-05T04:41:59Z</time>
      </trkpt>
      <trkpt lat="33.76803" lon="77.62223">
        <ele>5154.6</ele>
        <time>2015-09-05T04:42:06Z</time>
      </trkpt>
      <trkpt lat="33.76803" lon="77.62225">
        <ele>5155.6</ele>
        <time>2015-09-05T04:42:14Z</time>
      </trkpt>
      <trkpt lat="33.76807" lon="77.62226">
        <ele>5156.6</ele>
        <time>2015-09-05T04:42:22Z</time>
      </trkpt>
      <trkpt lat="33.76808" lon="77.62224">
        <ele>5156.8</ele>
        <time>2015-09-05T04:42:23Z</time>
      </trkpt>
      <trkpt lat="33.76813" lon="77.62231">
        <ele>5157.8</ele>
        <time>2015-09-05T04:42:35Z</time>
      </trkpt>
      <trkpt lat="33.76823" lon="77.62241">
        <ele>5158.2</ele>
        <time>2015-09-05T04:42:39Z</time>
      </trkpt>
      <trkpt lat="33.76822" lon="77.62241">
        <ele>5158.4</ele>
        <time>2015-09-05T04:42:41Z</time>
      </trkpt>
      <trkpt lat="33.7682" lon="77.62238">
        <ele>5158.6</ele>
        <time>2015-09-05T04:42:47Z</time>
      </trkpt>
      <trkpt lat="33.76823" lon="77.62218">
        <ele>5158.4</ele>
        <time>2015-09-05T04:43:34Z</time>
      </trkpt>
      <trkpt lat="33.76821" lon="77.6222">
        <ele>5158.4</ele>
        <time>2015-09-05T04:43:37Z</time>
      </trkpt>
      <trkpt lat="33.76815" lon="77.62223">
        <ele>5157.6</ele>
        <time>2015-09-05T04:43:45Z</time>
      </trkpt>
      <trkpt lat="33.76818" lon="77.62224">
        <ele>5158.8</ele>
        <time>2015-09-05T04:45:01Z</time>
      </trkpt>
      <trkpt lat="33.76816" lon="77.62232">
        <ele>5160</ele>
        <time>2015-09-05T04:45:17Z</time>
      </trkpt>
      <trkpt lat="33.76815" lon="77.62233">
        <ele>5160.4</ele>
        <time>2015-09-05T04:45:19Z</time>
      </trkpt>
      <trkpt lat="33.76813" lon="77.62231">
        <ele>5159</ele>
        <time>2015-09-05T04:45:41Z</time>
      </trkpt>
      <trkpt lat="33.76811" lon="77.62233">
        <ele>5159.8</ele>
        <time>2015-09-05T04:46:09Z</time>
      </trkpt>
      <trkpt lat="33.76804" lon="77.62222">
        <ele>5157.8</ele>
        <time>2015-09-05T04:46:40Z</time>
      </trkpt>
      <trkpt lat="33.76808" lon="77.62216">
        <ele>5156.8</ele>
        <time>2015-09-05T04:47:11Z</time>
      </trkpt>
      <trkpt lat="33.76802" lon="77.6222">
        <ele>5156.8</ele>
        <time>2015-09-05T04:47:44Z</time>
      </trkpt>
      <trkpt lat="33.76805" lon="77.62217">
        <ele>5156.6</ele>
        <time>2015-09-05T04:48:07Z</time>
      </trkpt>
      <trkpt lat="33.76795" lon="77.62228">
        <ele>5156.6</ele>
        <time>2015-09-05T04:48:27Z</time>
      </trkpt>
      <trkpt lat="33.76787" lon="77.62226">
        <ele>5156.8</ele>
        <time>2015-09-05T04:49:01Z</time>
      </trkpt>
      <trkpt lat="33.76784" lon="77.62228">
        <ele>5156.8</ele>
        <time>2015-09-05T04:49:03Z</time>
      </trkpt>
      <trkpt lat="33.76774" lon="77.62233">
        <ele>5156</ele>
        <time>2015-09-05T04:49:12Z</time>
      </trkpt>
      <trkpt lat="33.76768" lon="77.62232">
        <ele>5157</ele>
        <time>2015-09-05T04:49:20Z</time>
      </trkpt>
      <trkpt lat="33.76767" lon="77.62228">
        <ele>5156.8</ele>
        <time>2015-09-05T04:49:26Z</time>
      </trkpt>
      <trkpt lat="33.76762" lon="77.6223">
        <ele>5156.6</ele>
        <time>2015-09-05T04:49:31Z</time>
      </trkpt>
      <trkpt lat="33.76755" lon="77.62231">
        <ele>5156.6</ele>
        <time>2015-09-05T04:49:51Z</time>
      </trkpt>
      <trkpt lat="33.76756" lon="77.6223">
        <ele>5157.8</ele>
        <time>2015-09-05T04:50:06Z</time>
      </trkpt>
      <trkpt lat="33.76754" lon="77.62232">
        <ele>5157.6</ele>
        <time>2015-09-05T04:50:10Z</time>
      </trkpt>
      <trkpt lat="33.76752" lon="77.62235">
        <ele>5157</ele>
        <time>2015-09-05T04:50:15Z</time>
      </trkpt>
      <trkpt lat="33.76751" lon="77.62237">
        <ele>5156.8</ele>
        <time>2015-09-05T04:50:30Z</time>
      </trkpt>
      <trkpt lat="33.76747" lon="77.62238">
        <ele>5157.2</ele>
        <time>2015-09-05T04:50:41Z</time>
      </trkpt>
      <trkpt lat="33.76747" lon="77.6224">
        <ele>5157.8</ele>
        <time>2015-09-05T04:50:50Z</time>
      </trkpt>
      <trkpt lat="33.76737" lon="77.6224">
        <ele>5157.6</ele>
        <time>2015-09-05T04:51:06Z</time>
      </trkpt>
      <trkpt lat="33.76736" lon="77.62241">
        <ele>5157.8</ele>
        <time>2015-09-05T04:51:09Z</time>
      </trkpt>
      <trkpt lat="33.76734" lon="77.62242">
        <ele>5157.8</ele>
        <time>2015-09-05T04:51:11Z</time>
      </trkpt>
      <trkpt lat="33.76731" lon="77.62234">
        <ele>5158.4</ele>
        <time>2015-09-05T04:51:39Z</time>
      </trkpt>
      <trkpt lat="33.76733" lon="77.62234">
        <ele>5158.4</ele>
        <time>2015-09-05T04:51:57Z</time>
      </trkpt>
      <trkpt lat="33.76732" lon="77.62236">
        <ele>5158.4</ele>
        <time>2015-09-05T04:51:59Z</time>
      </trkpt>
      <trkpt lat="33.76728" lon="77.6225">
        <ele>5158.8</ele>
        <time>2015-09-05T04:52:14Z</time>
      </trkpt>
      <trkpt lat="33.76722" lon="77.62253">
        <ele>5160</ele>
        <time>2015-09-05T04:52:23Z</time>
      </trkpt>
      <trkpt lat="33.76722" lon="77.62252">
        <ele>5160.2</ele>
        <time>2015-09-05T04:52:25Z</time>
      </trkpt>
      <trkpt lat="33.76716" lon="77.6225">
        <ele>5161</ele>
        <time>2015-09-05T04:52:55Z</time>
      </trkpt>
      <trkpt lat="33.76713" lon="77.62258">
        <ele>5162</ele>
        <time>2015-09-05T04:53:06Z</time>
      </trkpt>
      <trkpt lat="33.76711" lon="77.62259">
        <ele>5163.2</ele>
        <time>2015-09-05T04:53:13Z</time>
      </trkpt>
      <trkpt lat="33.7671" lon="77.62263">
        <ele>5164.2</ele>
        <time>2015-09-05T04:53:20Z</time>
      </trkpt>
      <trkpt lat="33.76714" lon="77.62268">
        <ele>5165</ele>
        <time>2015-09-05T04:53:26Z</time>
      </trkpt>
      <trkpt lat="33.76715" lon="77.62269">
        <ele>5165.2</ele>
        <time>2015-09-05T04:53:28Z</time>
      </trkpt>
      <trkpt lat="33.76715" lon="77.6227">
        <ele>5165.2</ele>
        <time>2015-09-05T04:53:29Z</time>
      </trkpt>
      <trkpt lat="33.76714" lon="77.62275">
        <ele>5166.4</ele>
        <time>2015-09-05T04:53:40Z</time>
      </trkpt>
      <trkpt lat="33.76709" lon="77.62279">
        <ele>5167.4</ele>
        <time>2015-09-05T04:53:51Z</time>
      </trkpt>
      <trkpt lat="33.76711" lon="77.62283">
        <ele>5168.6</ele>
        <time>2015-09-05T04:54:01Z</time>
      </trkpt>
      <trkpt lat="33.76714" lon="77.62286">
        <ele>5169.6</ele>
        <time>2015-09-05T04:54:11Z</time>
      </trkpt>
      <trkpt lat="33.76717" lon="77.62288">
        <ele>5170.4</ele>
        <time>2015-09-05T04:54:21Z</time>
      </trkpt>
      <trkpt lat="33.76716" lon="77.62288">
        <ele>5170.6</ele>
        <time>2015-09-05T04:54:22Z</time>
      </trkpt>
      <trkpt lat="33.76712" lon="77.62291">
        <ele>5171.6</ele>
        <time>2015-09-05T04:54:35Z</time>
      </trkpt>
      <trkpt lat="33.76715" lon="77.62295">
        <ele>5172.6</ele>
        <time>2015-09-05T04:54:42Z</time>
      </trkpt>
      <trkpt lat="33.7671" lon="77.62301">
        <ele>5173.6</ele>
        <time>2015-09-05T04:54:57Z</time>
      </trkpt>
      <trkpt lat="33.76707" lon="77.62303">
        <ele>5174.6</ele>
        <time>2015-09-05T04:55:04Z</time>
      </trkpt>
      <trkpt lat="33.76702" lon="77.62308">
        <ele>5175.8</ele>
        <time>2015-09-05T04:55:17Z</time>
      </trkpt>
      <trkpt lat="33.767" lon="77.62311">
        <ele>5176</ele>
        <time>2015-09-05T04:55:21Z</time>
      </trkpt>
      <trkpt lat="33.76698" lon="77.62313">
        <ele>5176.8</ele>
        <time>2015-09-05T04:55:27Z</time>
      </trkpt>
      <trkpt lat="33.76697" lon="77.62314">
        <ele>5177.8</ele>
        <time>2015-09-05T04:55:36Z</time>
      </trkpt>
      <trkpt lat="33.76697" lon="77.62316">
        <ele>5178.8</ele>
        <time>2015-09-05T04:55:43Z</time>
      </trkpt>
      <trkpt lat="33.76698" lon="77.62318">
        <ele>5180</ele>
        <time>2015-09-05T04:55:54Z</time>
      </trkpt>
      <trkpt lat="33.76696" lon="77.62323">
        <ele>5181</ele>
        <time>2015-09-05T04:56:05Z</time>
      </trkpt>
      <trkpt lat="33.76689" lon="77.62328">
        <ele>5182</ele>
        <time>2015-09-05T04:56:18Z</time>
      </trkpt>
      <trkpt lat="33.76687" lon="77.62328">
        <ele>5183.2</ele>
        <time>2015-09-05T04:56:25Z</time>
      </trkpt>
      <trkpt lat="33.7668" lon="77.62333">
        <ele>5184.2</ele>
        <time>2015-09-05T04:56:39Z</time>
      </trkpt>
      <trkpt lat="33.76677" lon="77.62342">
        <ele>5185.2</ele>
        <time>2015-09-05T04:56:52Z</time>
      </trkpt>
      <trkpt lat="33.76676" lon="77.62346">
        <ele>5186.4</ele>
        <time>2015-09-05T04:57:01Z</time>
      </trkpt>
      <trkpt lat="33.76676" lon="77.62348">
        <ele>5186.8</ele>
        <time>2015-09-05T04:57:04Z</time>
      </trkpt>
      <trkpt lat="33.76676" lon="77.62352">
        <ele>5187.4</ele>
        <time>2015-09-05T04:57:14Z</time>
      </trkpt>
      <trkpt lat="33.76676" lon="77.62353">
        <ele>5188.4</ele>
        <time>2015-09-05T04:57:19Z</time>
      </trkpt>
      <trkpt lat="33.76674" lon="77.62359">
        <ele>5189.4</ele>
        <time>2015-09-05T04:57:32Z</time>
      </trkpt>
      <trkpt lat="33.7667" lon="77.62363">
        <ele>5190.4</ele>
        <time>2015-09-05T04:57:45Z</time>
      </trkpt>
      <trkpt lat="33.76667" lon="77.62367">
        <ele>5191.4</ele>
        <time>2015-09-05T04:57:54Z</time>
      </trkpt>
      <trkpt lat="33.76664" lon="77.62373">
        <ele>5192.6</ele>
        <time>2015-09-05T04:58:10Z</time>
      </trkpt>
      <trkpt lat="33.76665" lon="77.62374">
        <ele>5193.6</ele>
        <time>2015-09-05T04:58:23Z</time>
      </trkpt>
      <trkpt lat="33.76663" lon="77.62375">
        <ele>5194.6</ele>
        <time>2015-09-05T04:58:32Z</time>
      </trkpt>
      <trkpt lat="33.76661" lon="77.62382">
        <ele>5195.6</ele>
        <time>2015-09-05T04:58:45Z</time>
      </trkpt>
      <trkpt lat="33.76655" lon="77.62384">
        <ele>5196.8</ele>
        <time>2015-09-05T04:58:54Z</time>
      </trkpt>
      <trkpt lat="33.76654" lon="77.6239">
        <ele>5197.8</ele>
        <time>2015-09-05T04:59:03Z</time>
      </trkpt>
      <trkpt lat="33.76648" lon="77.62395">
        <ele>5198.8</ele>
        <time>2015-09-05T04:59:17Z</time>
      </trkpt>
      <trkpt lat="33.76644" lon="77.62396">
        <ele>5200</ele>
        <time>2015-09-05T04:59:26Z</time>
      </trkpt>
      <trkpt lat="33.76642" lon="77.62402">
        <ele>5201</ele>
        <time>2015-09-05T04:59:39Z</time>
      </trkpt>
      <trkpt lat="33.76641" lon="77.6241">
        <ele>5201.8</ele>
        <time>2015-09-05T04:59:49Z</time>
      </trkpt>
      <trkpt lat="33.76641" lon="77.62412">
        <ele>5202.2</ele>
        <time>2015-09-05T04:59:51Z</time>
      </trkpt>
      <trkpt lat="33.76641" lon="77.62415">
        <ele>5203.2</ele>
        <time>2015-09-05T04:59:56Z</time>
      </trkpt>
      <trkpt lat="33.76635" lon="77.62418">
        <ele>5204.2</ele>
        <time>2015-09-05T05:00:08Z</time>
      </trkpt>
      <trkpt lat="33.76634" lon="77.62422">
        <ele>5205.2</ele>
        <time>2015-09-05T05:00:17Z</time>
      </trkpt>
      <trkpt lat="33.76633" lon="77.62427">
        <ele>5206.4</ele>
        <time>2015-09-05T05:00:28Z</time>
      </trkpt>
      <trkpt lat="33.76631" lon="77.62433">
        <ele>5207.4</ele>
        <time>2015-09-05T05:00:37Z</time>
      </trkpt>
      <trkpt lat="33.76629" lon="77.62435">
        <ele>5208.4</ele>
        <time>2015-09-05T05:00:46Z</time>
      </trkpt>
      <trkpt lat="33.76629" lon="77.62435">
        <ele>5208.6</ele>
        <time>2015-09-05T05:00:49Z</time>
      </trkpt>
      <trkpt lat="33.76629" lon="77.62436">
        <ele>5209.6</ele>
        <time>2015-09-05T05:00:54Z</time>
      </trkpt>
      <trkpt lat="33.76629" lon="77.62442">
        <ele>5210.6</ele>
        <time>2015-09-05T05:01:08Z</time>
      </trkpt>
      <trkpt lat="33.76628" lon="77.62445">
        <ele>5211.8</ele>
        <time>2015-09-05T05:01:15Z</time>
      </trkpt>
      <trkpt lat="33.76627" lon="77.62448">
        <ele>5212.8</ele>
        <time>2015-09-05T05:01:24Z</time>
      </trkpt>
      <trkpt lat="33.76626" lon="77.62452">
        <ele>5213.8</ele>
        <time>2015-09-05T05:01:34Z</time>
      </trkpt>
      <trkpt lat="33.76627" lon="77.62456">
        <ele>5214.8</ele>
        <time>2015-09-05T05:01:46Z</time>
      </trkpt>
      <trkpt lat="33.76623" lon="77.62463">
        <ele>5216</ele>
        <time>2015-09-05T05:01:58Z</time>
      </trkpt>
      <trkpt lat="33.7662" lon="77.62466">
        <ele>5217</ele>
        <time>2015-09-05T05:02:05Z</time>
      </trkpt>
      <trkpt lat="33.7662" lon="77.62474">
        <ele>5218</ele>
        <time>2015-09-05T05:02:18Z</time>
      </trkpt>
      <trkpt lat="33.7662" lon="77.62476">
        <ele>5218.4</ele>
        <time>2015-09-05T05:02:20Z</time>
      </trkpt>
      <trkpt lat="33.7662" lon="77.62477">
        <ele>5219</ele>
        <time>2015-09-05T05:02:25Z</time>
      </trkpt>
      <trkpt lat="33.76619" lon="77.62484">
        <ele>5220</ele>
        <time>2015-09-05T05:02:37Z</time>
      </trkpt>
      <trkpt lat="33.76613" lon="77.62488">
        <ele>5221</ele>
        <time>2015-09-05T05:02:49Z</time>
      </trkpt>
      <trkpt lat="33.76612" lon="77.62487">
        <ele>5222</ele>
        <time>2015-09-05T05:02:58Z</time>
      </trkpt>
      <trkpt lat="33.76608" lon="77.62496">
        <ele>5223.2</ele>
        <time>2015-09-05T05:03:16Z</time>
      </trkpt>
      <trkpt lat="33.76606" lon="77.62501">
        <ele>5224.2</ele>
        <time>2015-09-05T05:03:22Z</time>
      </trkpt>
      <trkpt lat="33.766" lon="77.62504">
        <ele>5225.2</ele>
        <time>2015-09-05T05:03:38Z</time>
      </trkpt>
      <trkpt lat="33.76596" lon="77.62508">
        <ele>5226.4</ele>
        <time>2015-09-05T05:03:49Z</time>
      </trkpt>
      <trkpt lat="33.76591" lon="77.62511">
        <ele>5227.2</ele>
        <time>2015-09-05T05:03:56Z</time>
      </trkpt>
      <trkpt lat="33.7659" lon="77.62511">
        <ele>5227.4</ele>
        <time>2015-09-05T05:03:58Z</time>
      </trkpt>
      <trkpt lat="33.76585" lon="77.62516">
        <ele>5228.4</ele>
        <time>2015-09-05T05:04:09Z</time>
      </trkpt>
      <trkpt lat="33.76578" lon="77.62521">
        <ele>5229.6</ele>
        <time>2015-09-05T05:04:23Z</time>
      </trkpt>
      <trkpt lat="33.76574" lon="77.62525">
        <ele>5230.6</ele>
        <time>2015-09-05T05:04:34Z</time>
      </trkpt>
      <trkpt lat="33.76574" lon="77.62526">
        <ele>5231.6</ele>
        <time>2015-09-05T05:04:42Z</time>
      </trkpt>
      <trkpt lat="33.76571" lon="77.62531">
        <ele>5232.8</ele>
        <time>2015-09-05T05:04:52Z</time>
      </trkpt>
      <trkpt lat="33.76567" lon="77.62534">
        <ele>5234</ele>
        <time>2015-09-05T05:05:01Z</time>
      </trkpt>
      <trkpt lat="33.76564" lon="77.62537">
        <ele>5235</ele>
        <time>2015-09-05T05:05:10Z</time>
      </trkpt>
      <trkpt lat="33.76562" lon="77.62546">
        <ele>5236.2</ele>
        <time>2015-09-05T05:05:22Z</time>
      </trkpt>
      <trkpt lat="33.76561" lon="77.62549">
        <ele>5237.2</ele>
        <time>2015-09-05T05:05:34Z</time>
      </trkpt>
      <trkpt lat="33.76562" lon="77.6255">
        <ele>5238.4</ele>
        <time>2015-09-05T05:05:41Z</time>
      </trkpt>
      <trkpt lat="33.76562" lon="77.62555">
        <ele>5239.4</ele>
        <time>2015-09-05T05:05:49Z</time>
      </trkpt>
      <trkpt lat="33.76562" lon="77.62559">
        <ele>5240.4</ele>
        <time>2015-09-05T05:05:56Z</time>
      </trkpt>
      <trkpt lat="33.76562" lon="77.62564">
        <ele>5241.4</ele>
        <time>2015-09-05T05:06:03Z</time>
      </trkpt>
      <trkpt lat="33.76563" lon="77.62566">
        <ele>5242.6</ele>
        <time>2015-09-05T05:06:10Z</time>
      </trkpt>
      <trkpt lat="33.76562" lon="77.62573">
        <ele>5243.6</ele>
        <time>2015-09-05T05:06:21Z</time>
      </trkpt>
      <trkpt lat="33.76563" lon="77.62578">
        <ele>5244.8</ele>
        <time>2015-09-05T05:06:30Z</time>
      </trkpt>
      <trkpt lat="33.76564" lon="77.62579">
        <ele>5245.8</ele>
        <time>2015-09-05T05:06:39Z</time>
      </trkpt>
      <trkpt lat="33.76569" lon="77.62586">
        <ele>5246.6</ele>
        <time>2015-09-05T05:06:47Z</time>
      </trkpt>
      <trkpt lat="33.76571" lon="77.62591">
        <ele>5247</ele>
        <time>2015-09-05T05:06:56Z</time>
      </trkpt>
      <trkpt lat="33.76574" lon="77.62594">
        <ele>5248</ele>
        <time>2015-09-05T05:07:03Z</time>
      </trkpt>
      <trkpt lat="33.76573" lon="77.626">
        <ele>5249.2</ele>
        <time>2015-09-05T05:07:12Z</time>
      </trkpt>
      <trkpt lat="33.76573" lon="77.62602">
        <ele>5249.4</ele>
        <time>2015-09-05T05:07:15Z</time>
      </trkpt>
      <trkpt lat="33.76573" lon="77.62606">
        <ele>5250.2</ele>
        <time>2015-09-05T05:07:22Z</time>
      </trkpt>
      <trkpt lat="33.76573" lon="77.6261">
        <ele>5251.4</ele>
        <time>2015-09-05T05:07:34Z</time>
      </trkpt>
      <trkpt lat="33.76576" lon="77.62618">
        <ele>5252.4</ele>
        <time>2015-09-05T05:07:45Z</time>
      </trkpt>
      <trkpt lat="33.76584" lon="77.62622">
        <ele>5253.4</ele>
        <time>2015-09-05T05:07:56Z</time>
      </trkpt>
      <trkpt lat="33.76583" lon="77.62622">
        <ele>5253.4</ele>
        <time>2015-09-05T05:07:57Z</time>
      </trkpt>
      <trkpt lat="33.76592" lon="77.6263">
        <ele>5254</ele>
        <time>2015-09-05T05:08:11Z</time>
      </trkpt>
      <trkpt lat="33.76593" lon="77.62635">
        <ele>5254.2</ele>
        <time>2015-09-05T05:08:22Z</time>
      </trkpt>
      <trkpt lat="33.7659" lon="77.62633">
        <ele>5253.8</ele>
        <time>2015-09-05T05:08:42Z</time>
      </trkpt>
      <trkpt lat="33.76589" lon="77.62632">
        <ele>5252.8</ele>
        <time>2015-09-05T05:10:05Z</time>
      </trkpt>
      <trkpt lat="33.7659" lon="77.62629">
        <ele>5254.2</ele>
        <time>2015-09-05T05:10:34Z</time>
      </trkpt>
      <trkpt lat="33.76589" lon="77.62632">
        <ele>5253.4</ele>
        <time>2015-09-05T05:11:33Z</time>
      </trkpt>
      <trkpt lat="33.76588" lon="77.62634">
        <ele>5253.6</ele>
        <time>2015-09-05T05:12:32Z</time>
      </trkpt>
      <trkpt lat="33.76589" lon="77.6263">
        <ele>5253.6</ele>
        <time>2015-09-05T05:13:06Z</time>
      </trkpt>
      <trkpt lat="33.76588" lon="77.62633">
        <ele>5253.4</ele>
        <time>2015-09-05T05:13:09Z</time>
      </trkpt>
      <trkpt lat="33.76587" lon="77.62633">
        <ele>5253.4</ele>
        <time>2015-09-05T05:13:12Z</time>
      </trkpt>
      <trkpt lat="33.76588" lon="77.62632">
        <ele>5253.4</ele>
        <time>2015-09-05T05:13:18Z</time>
      </trkpt>
      <trkpt lat="33.76589" lon="77.62631">
        <ele>5232.8</ele>
        <time>2015-09-05T05:13:22Z</time>
      </trkpt>
      <trkpt lat="33.76589" lon="77.62631">
        <ele>5253</ele>
        <time>2015-09-05T05:13:26Z</time>
      </trkpt>
      <trkpt lat="33.76582" lon="77.62629">
        <ele>5254.2</ele>
        <time>2015-09-05T05:13:57Z</time>
      </trkpt>
      <trkpt lat="33.76572" lon="77.62636">
        <ele>5255.2</ele>
        <time>2015-09-05T05:14:13Z</time>
      </trkpt>
      <trkpt lat="33.76571" lon="77.62636">
        <ele>5255.8</ele>
        <time>2015-09-05T05:14:15Z</time>
      </trkpt>
      <trkpt lat="33.76577" lon="77.62641">
        <ele>5256.4</ele>
        <time>2015-09-05T05:14:25Z</time>
      </trkpt>
      <trkpt lat="33.76577" lon="77.62647">
        <ele>5257.4</ele>
        <time>2015-09-05T05:14:35Z</time>
      </trkpt>
      <trkpt lat="33.76581" lon="77.62656">
        <ele>5258.4</ele>
        <time>2015-09-05T05:14:51Z</time>
      </trkpt>
      <trkpt lat="33.76582" lon="77.62663">
        <ele>5259.6</ele>
        <time>2015-09-05T05:15:02Z</time>
      </trkpt>
      <trkpt lat="33.76581" lon="77.62668">
        <ele>5260.6</ele>
        <time>2015-09-05T05:15:12Z</time>
      </trkpt>
      <trkpt lat="33.76582" lon="77.62673">
        <ele>5261.2</ele>
        <time>2015-09-05T05:15:18Z</time>
      </trkpt>
      <trkpt lat="33.76584" lon="77.62678">
        <ele>5261.6</ele>
        <time>2015-09-05T05:15:23Z</time>
      </trkpt>
      <trkpt lat="33.76587" lon="77.62684">
        <ele>5262.2</ele>
        <time>2015-09-05T05:15:29Z</time>
      </trkpt>
      <trkpt lat="33.76586" lon="77.6269">
        <ele>5262.8</ele>
        <time>2015-09-05T05:15:37Z</time>
      </trkpt>
      <trkpt lat="33.76585" lon="77.62695">
        <ele>5263.8</ele>
        <time>2015-09-05T05:15:47Z</time>
      </trkpt>
      <trkpt lat="33.76585" lon="77.62701">
        <ele>5265</ele>
        <time>2015-09-05T05:16:00Z</time>
      </trkpt>
      <trkpt lat="33.76585" lon="77.62706">
        <ele>5266</ele>
        <time>2015-09-05T05:16:13Z</time>
      </trkpt>
      <trkpt lat="33.76583" lon="77.62715">
        <ele>5267</ele>
        <time>2015-09-05T05:16:26Z</time>
      </trkpt>
      <trkpt lat="33.76584" lon="77.62721">
        <ele>5268</ele>
        <time>2015-09-05T05:16:37Z</time>
      </trkpt>
      <trkpt lat="33.76585" lon="77.62727">
        <ele>5269</ele>
        <time>2015-09-05T05:16:47Z</time>
      </trkpt>
      <trkpt lat="33.76585" lon="77.62739">
        <ele>5270.2</ele>
        <time>2015-09-05T05:17:04Z</time>
      </trkpt>
      <trkpt lat="33.76585" lon="77.62742">
        <ele>5271.2</ele>
        <time>2015-09-05T05:17:13Z</time>
      </trkpt>
      <trkpt lat="33.76585" lon="77.62749">
        <ele>5272.2</ele>
        <time>2015-09-05T05:17:24Z</time>
      </trkpt>
      <trkpt lat="33.76583" lon="77.62757">
        <ele>5273.4</ele>
        <time>2015-09-05T05:17:33Z</time>
      </trkpt>
      <trkpt lat="33.76584" lon="77.62759">
        <ele>5273.6</ele>
        <time>2015-09-05T05:17:36Z</time>
      </trkpt>
      <trkpt lat="33.76581" lon="77.62765">
        <ele>5274.4</ele>
        <time>2015-09-05T05:17:46Z</time>
      </trkpt>
      <trkpt lat="33.76585" lon="77.6277">
        <ele>5275.4</ele>
        <time>2015-09-05T05:17:52Z</time>
      </trkpt>
      <trkpt lat="33.76589" lon="77.62775">
        <ele>5276.4</ele>
        <time>2015-09-05T05:18:03Z</time>
      </trkpt>
      <trkpt lat="33.76591" lon="77.62786">
        <ele>5277.6</ele>
        <time>2015-09-05T05:18:22Z</time>
      </trkpt>
      <trkpt lat="33.76591" lon="77.6279">
        <ele>5278.6</ele>
        <time>2015-09-05T05:18:34Z</time>
      </trkpt>
      <trkpt lat="33.76587" lon="77.62788">
        <ele>5279</ele>
        <time>2015-09-05T05:18:36Z</time>
      </trkpt>
      <trkpt lat="33.76586" lon="77.62782">
        <ele>5278.8</ele>
        <time>2015-09-05T05:18:45Z</time>
      </trkpt>
      <trkpt lat="33.76588" lon="77.62785">
        <ele>5278.4</ele>
        <time>2015-09-05T05:18:47Z</time>
      </trkpt>
      <trkpt lat="33.76587" lon="77.6279">
        <ele>5278.2</ele>
        <time>2015-09-05T05:18:53Z</time>
      </trkpt>
      <trkpt lat="33.76584" lon="77.62792">
        <ele>5278.6</ele>
        <time>2015-09-05T05:18:57Z</time>
      </trkpt>
      <trkpt lat="33.76581" lon="77.62794">
        <ele>5278.8</ele>
        <time>2015-09-05T05:18:59Z</time>
      </trkpt>
      <trkpt lat="33.76578" lon="77.62799">
        <ele>5279.8</ele>
        <time>2015-09-05T05:19:09Z</time>
      </trkpt>
      <trkpt lat="33.76575" lon="77.62803">
        <ele>5280.2</ele>
        <time>2015-09-05T05:19:15Z</time>
      </trkpt>
      <trkpt lat="33.76571" lon="77.62809">
        <ele>5280.8</ele>
        <time>2015-09-05T05:19:25Z</time>
      </trkpt>
      <trkpt lat="33.76566" lon="77.62813">
        <ele>5282</ele>
        <time>2015-09-05T05:19:33Z</time>
      </trkpt>
      <trkpt lat="33.76557" lon="77.62818">
        <ele>5283</ele>
        <time>2015-09-05T05:19:46Z</time>
      </trkpt>
      <trkpt lat="33.76552" lon="77.62822">
        <ele>5284.2</ele>
        <time>2015-09-05T05:19:59Z</time>
      </trkpt>
      <trkpt lat="33.7655" lon="77.62828">
        <ele>5284.4</ele>
        <time>2015-09-05T05:20:05Z</time>
      </trkpt>
      <trkpt lat="33.76547" lon="77.62835">
        <ele>5285.2</ele>
        <time>2015-09-05T05:20:16Z</time>
      </trkpt>
      <trkpt lat="33.76542" lon="77.62837">
        <ele>5286.2</ele>
        <time>2015-09-05T05:20:24Z</time>
      </trkpt>
      <trkpt lat="33.76535" lon="77.62842">
        <ele>5287.4</ele>
        <time>2015-09-05T05:20:38Z</time>
      </trkpt>
      <trkpt lat="33.76534" lon="77.62844">
        <ele>5288.4</ele>
        <time>2015-09-05T05:20:44Z</time>
      </trkpt>
      <trkpt lat="33.76529" lon="77.62849">
        <ele>5289.4</ele>
        <time>2015-09-05T05:21:02Z</time>
      </trkpt>
      <trkpt lat="33.76523" lon="77.62852">
        <ele>5290.4</ele>
        <time>2015-09-05T05:21:15Z</time>
      </trkpt>
      <trkpt lat="33.76511" lon="77.62863">
        <ele>5291.4</ele>
        <time>2015-09-05T05:21:34Z</time>
      </trkpt>
      <trkpt lat="33.76503" lon="77.62866">
        <ele>5292.6</ele>
        <time>2015-09-05T05:21:52Z</time>
      </trkpt>
      <trkpt lat="33.76498" lon="77.62871">
        <ele>5293.6</ele>
        <time>2015-09-05T05:22:03Z</time>
      </trkpt>
      <trkpt lat="33.76492" lon="77.62879">
        <ele>5294.6</ele>
        <time>2015-09-05T05:22:19Z</time>
      </trkpt>
      <trkpt lat="33.76487" lon="77.62889">
        <ele>5295.4</ele>
        <time>2015-09-05T05:22:31Z</time>
      </trkpt>
      <trkpt lat="33.76486" lon="77.62892">
        <ele>5295.8</ele>
        <time>2015-09-05T05:22:35Z</time>
      </trkpt>
      <trkpt lat="33.7648" lon="77.62894">
        <ele>5296.8</ele>
        <time>2015-09-05T05:22:47Z</time>
      </trkpt>
      <trkpt lat="33.76471" lon="77.62898">
        <ele>5297.8</ele>
        <time>2015-09-05T05:23:05Z</time>
      </trkpt>
      <trkpt lat="33.76463" lon="77.62907">
        <ele>5298.8</ele>
        <time>2015-09-05T05:23:21Z</time>
      </trkpt>
      <trkpt lat="33.76455" lon="77.62913">
        <ele>5300</ele>
        <time>2015-09-05T05:23:36Z</time>
      </trkpt>
      <trkpt lat="33.76448" lon="77.62921">
        <ele>5301</ele>
        <time>2015-09-05T05:23:51Z</time>
      </trkpt>
      <trkpt lat="33.76441" lon="77.62927">
        <ele>5302</ele>
        <time>2015-09-05T05:24:02Z</time>
      </trkpt>
      <trkpt lat="33.76434" lon="77.62929">
        <ele>5303</ele>
        <time>2015-09-05T05:24:12Z</time>
      </trkpt>
      <trkpt lat="33.76421" lon="77.62933">
        <ele>5304</ele>
        <time>2015-09-05T05:24:33Z</time>
      </trkpt>
      <trkpt lat="33.76418" lon="77.62941">
        <ele>5305.2</ele>
        <time>2015-09-05T05:24:48Z</time>
      </trkpt>
      <trkpt lat="33.76411" lon="77.62952">
        <ele>5306.2</ele>
        <time>2015-09-05T05:25:04Z</time>
      </trkpt>
      <trkpt lat="33.76404" lon="77.62954">
        <ele>5307</ele>
        <time>2015-09-05T05:25:15Z</time>
      </trkpt>
      <trkpt lat="33.76402" lon="77.62954">
        <ele>5306.8</ele>
        <time>2015-09-05T05:25:17Z</time>
      </trkpt>
      <trkpt lat="33.764" lon="77.62956">
        <ele>5307.4</ele>
        <time>2015-09-05T05:25:20Z</time>
      </trkpt>
      <trkpt lat="33.76393" lon="77.62966">
        <ele>5308.4</ele>
        <time>2015-09-05T05:25:41Z</time>
      </trkpt>
      <trkpt lat="33.76388" lon="77.62965">
        <ele>5309.4</ele>
        <time>2015-09-05T05:25:50Z</time>
      </trkpt>
      <trkpt lat="33.76382" lon="77.6297">
        <ele>5310.4</ele>
        <time>2015-09-05T05:26:02Z</time>
      </trkpt>
      <trkpt lat="33.76375" lon="77.62977">
        <ele>5311.4</ele>
        <time>2015-09-05T05:26:23Z</time>
      </trkpt>
      <trkpt lat="33.76371" lon="77.62974">
        <ele>5312.2</ele>
        <time>2015-09-05T05:26:33Z</time>
      </trkpt>
      <trkpt lat="33.76369" lon="77.62974">
        <ele>5312.6</ele>
        <time>2015-09-05T05:26:35Z</time>
      </trkpt>
      <trkpt lat="33.76362" lon="77.62983">
        <ele>5313.6</ele>
        <time>2015-09-05T05:26:53Z</time>
      </trkpt>
      <trkpt lat="33.76355" lon="77.62988">
        <ele>5314.6</ele>
        <time>2015-09-05T05:27:09Z</time>
      </trkpt>
      <trkpt lat="33.76348" lon="77.63003">
        <ele>5315.8</ele>
        <time>2015-09-05T05:27:31Z</time>
      </trkpt>
      <trkpt lat="33.76348" lon="77.63004">
        <ele>5315.8</ele>
        <time>2015-09-05T05:27:32Z</time>
      </trkpt>
      <trkpt lat="33.76347" lon="77.63006">
        <ele>5315.8</ele>
        <time>2015-09-05T05:27:34Z</time>
      </trkpt>
      <trkpt lat="33.76342" lon="77.63005">
        <ele>5316.8</ele>
        <time>2015-09-05T05:27:42Z</time>
      </trkpt>
      <trkpt lat="33.76331" lon="77.63011">
        <ele>5318</ele>
        <time>2015-09-05T05:28:03Z</time>
      </trkpt>
      <trkpt lat="33.76323" lon="77.63015">
        <ele>5319</ele>
        <time>2015-09-05T05:28:19Z</time>
      </trkpt>
      <trkpt lat="33.76312" lon="77.63021">
        <ele>5320</ele>
        <time>2015-09-05T05:28:35Z</time>
      </trkpt>
      <trkpt lat="33.76311" lon="77.63021">
        <ele>5320</ele>
        <time>2015-09-05T05:28:36Z</time>
      </trkpt>
      <trkpt lat="33.76303" lon="77.63033">
        <ele>5321</ele>
        <time>2015-09-05T05:28:56Z</time>
      </trkpt>
      <trkpt lat="33.76297" lon="77.6304">
        <ele>5322</ele>
        <time>2015-09-05T05:29:08Z</time>
      </trkpt>
      <trkpt lat="33.76297" lon="77.63039">
        <ele>5322</ele>
        <time>2015-09-05T05:29:10Z</time>
      </trkpt>
      <trkpt lat="33.76297" lon="77.63038">
        <ele>5323.2</ele>
        <time>2015-09-05T05:29:49Z</time>
      </trkpt>
      <trkpt lat="33.76295" lon="77.63038">
        <ele>5323.4</ele>
        <time>2015-09-05T05:29:54Z</time>
      </trkpt>
      <trkpt lat="33.76293" lon="77.6304">
        <ele>5322</ele>
        <time>2015-09-05T05:30:01Z</time>
      </trkpt>
      <trkpt lat="33.76294" lon="77.63044">
        <ele>5321.8</ele>
        <time>2015-09-05T05:31:48Z</time>
      </trkpt>
      <trkpt lat="33.76297" lon="77.63042">
        <ele>5321</ele>
        <time>2015-09-05T05:32:33Z</time>
      </trkpt>
      <trkpt lat="33.76285" lon="77.63031">
        <ele>5321.2</ele>
        <time>2015-09-05T05:33:13Z</time>
      </trkpt>
      <trkpt lat="33.76285" lon="77.6303">
        <ele>5321.4</ele>
        <time>2015-09-05T05:33:15Z</time>
      </trkpt>
      <trkpt lat="33.76286" lon="77.6303">
        <ele>5321.6</ele>
        <time>2015-09-05T05:33:17Z</time>
      </trkpt>
      <trkpt lat="33.76286" lon="77.6303">
        <ele>5322</ele>
        <time>2015-09-05T05:33:21Z</time>
      </trkpt>
      <trkpt lat="33.76288" lon="77.63033">
        <ele>5322.4</ele>
        <time>2015-09-05T05:33:38Z</time>
      </trkpt>
      <trkpt lat="33.76292" lon="77.63039">
        <ele>5322</ele>
        <time>2015-09-05T05:34:05Z</time>
      </trkpt>
      <trkpt lat="33.7629" lon="77.63037">
        <ele>5299.6</ele>
        <time>2015-09-05T05:34:08Z</time>
      </trkpt>
      <trkpt lat="33.76287" lon="77.63035">
        <ele>5321.8</ele>
        <time>2015-09-05T05:34:12Z</time>
      </trkpt>
      <trkpt lat="33.76285" lon="77.63029">
        <ele>5321.8</ele>
        <time>2015-09-05T05:34:15Z</time>
      </trkpt>
      <trkpt lat="33.76287" lon="77.6303">
        <ele>5322</ele>
        <time>2015-09-05T05:34:17Z</time>
      </trkpt>
      <trkpt lat="33.76291" lon="77.63029">
        <ele>5322.4</ele>
        <time>2015-09-05T05:34:26Z</time>
      </trkpt>
      <trkpt lat="33.76291" lon="77.63032">
        <ele>5322.4</ele>
        <time>2015-09-05T05:34:29Z</time>
      </trkpt>
      <trkpt lat="33.76299" lon="77.63036">
        <ele>5321.6</ele>
        <time>2015-09-05T05:34:35Z</time>
      </trkpt>
      <trkpt lat="33.76285" lon="77.6304">
        <ele>5322.4</ele>
        <time>2015-09-05T05:35:06Z</time>
      </trkpt>
      <trkpt lat="33.76284" lon="77.63041">
        <ele>5322.8</ele>
        <time>2015-09-05T05:35:09Z</time>
      </trkpt>
      <trkpt lat="33.76282" lon="77.63043">
        <ele>5323.8</ele>
        <time>2015-09-05T05:35:16Z</time>
      </trkpt>
      <trkpt lat="33.76272" lon="77.63053">
        <ele>5324.8</ele>
        <time>2015-09-05T05:35:38Z</time>
      </trkpt>
      <trkpt lat="33.76263" lon="77.63068">
        <ele>5326</ele>
        <time>2015-09-05T05:35:58Z</time>
      </trkpt>
      <trkpt lat="33.76258" lon="77.63075">
        <ele>5327</ele>
        <time>2015-09-05T05:36:10Z</time>
      </trkpt>
      <trkpt lat="33.76257" lon="77.63091">
        <ele>5328</ele>
        <time>2015-09-05T05:36:25Z</time>
      </trkpt>
      <trkpt lat="33.76257" lon="77.63091">
        <ele>5328</ele>
        <time>2015-09-05T05:36:26Z</time>
      </trkpt>
      <trkpt lat="33.76245" lon="77.63091">
        <ele>5329</ele>
        <time>2015-09-05T05:36:46Z</time>
      </trkpt>
      <trkpt lat="33.76242" lon="77.63093">
        <ele>5330</ele>
        <time>2015-09-05T05:36:54Z</time>
      </trkpt>
      <trkpt lat="33.76238" lon="77.63104">
        <ele>5331</ele>
        <time>2015-09-05T05:37:14Z</time>
      </trkpt>
      <trkpt lat="33.76237" lon="77.63104">
        <ele>5331.2</ele>
        <time>2015-09-05T05:37:15Z</time>
      </trkpt>
      <trkpt lat="33.76232" lon="77.63106">
        <ele>5332.2</ele>
        <time>2015-09-05T05:37:26Z</time>
      </trkpt>
      <trkpt lat="33.76222" lon="77.63117">
        <ele>5333.2</ele>
        <time>2015-09-05T05:37:43Z</time>
      </trkpt>
      <trkpt lat="33.76215" lon="77.63122">
        <ele>5334.2</ele>
        <time>2015-09-05T05:37:58Z</time>
      </trkpt>
      <trkpt lat="33.76207" lon="77.63128">
        <ele>5335.2</ele>
        <time>2015-09-05T05:38:17Z</time>
      </trkpt>
      <trkpt lat="33.76199" lon="77.6314">
        <ele>5335.8</ele>
        <time>2015-09-05T05:38:37Z</time>
      </trkpt>
      <trkpt lat="33.76198" lon="77.63141">
        <ele>5336.2</ele>
        <time>2015-09-05T05:38:41Z</time>
      </trkpt>
      <trkpt lat="33.76191" lon="77.63147">
        <ele>5337.4</ele>
        <time>2015-09-05T05:38:54Z</time>
      </trkpt>
      <trkpt lat="33.76183" lon="77.6316">
        <ele>5338.4</ele>
        <time>2015-09-05T05:39:12Z</time>
      </trkpt>
      <trkpt lat="33.76182" lon="77.63162">
        <ele>5338.4</ele>
        <time>2015-09-05T05:39:13Z</time>
      </trkpt>
      <trkpt lat="33.76176" lon="77.63164">
        <ele>5339.4</ele>
        <time>2015-09-05T05:39:24Z</time>
      </trkpt>
      <trkpt lat="33.76164" lon="77.63165">
        <ele>5340.6</ele>
        <time>2015-09-05T05:39:42Z</time>
      </trkpt>
      <trkpt lat="33.7616" lon="77.63175">
        <ele>5341.2</ele>
        <time>2015-09-05T05:39:51Z</time>
      </trkpt>
      <trkpt lat="33.76157" lon="77.63179">
        <ele>5341.6</ele>
        <time>2015-09-05T05:39:57Z</time>
      </trkpt>
      <trkpt lat="33.76156" lon="77.63179">
        <ele>5341.6</ele>
        <time>2015-09-05T05:39:58Z</time>
      </trkpt>
      <trkpt lat="33.7615" lon="77.63181">
        <ele>5342.6</ele>
        <time>2015-09-05T05:40:14Z</time>
      </trkpt>
      <trkpt lat="33.76139" lon="77.63193">
        <ele>5343.8</ele>
        <time>2015-09-05T05:40:34Z</time>
      </trkpt>
      <trkpt lat="33.76136" lon="77.63198">
        <ele>5344.2</ele>
        <time>2015-09-05T05:40:39Z</time>
      </trkpt>
      <trkpt lat="33.76133" lon="77.632">
        <ele>5344.8</ele>
        <time>2015-09-05T05:40:44Z</time>
      </trkpt>
      <trkpt lat="33.76129" lon="77.63201">
        <ele>5345.4</ele>
        <time>2015-09-05T05:40:49Z</time>
      </trkpt>
      <trkpt lat="33.76117" lon="77.63213">
        <ele>5344.2</ele>
        <time>2015-09-05T05:41:10Z</time>
      </trkpt>
      <trkpt lat="33.76113" lon="77.63216">
        <ele>5344</ele>
        <time>2015-09-05T05:41:16Z</time>
      </trkpt>
      <trkpt lat="33.76102" lon="77.63224">
        <ele>5344.4</ele>
        <time>2015-09-05T05:41:34Z</time>
      </trkpt>
      <trkpt lat="33.76095" lon="77.63235">
        <ele>5344.8</ele>
        <time>2015-09-05T05:41:49Z</time>
      </trkpt>
      <trkpt lat="33.76079" lon="77.63243">
        <ele>5345.4</ele>
        <time>2015-09-05T05:42:15Z</time>
      </trkpt>
      <trkpt lat="33.76071" lon="77.63252">
        <ele>5345.8</ele>
        <time>2015-09-05T05:42:32Z</time>
      </trkpt>
      <trkpt lat="33.76068" lon="77.63263">
        <ele>5346</ele>
        <time>2015-09-05T05:42:35Z</time>
      </trkpt>
      <trkpt lat="33.76057" lon="77.63268">
        <ele>5346.4</ele>
        <time>2015-09-05T05:42:52Z</time>
      </trkpt>
      <trkpt lat="33.76052" lon="77.63271">
        <ele>5347</ele>
        <time>2015-09-05T05:43:05Z</time>
      </trkpt>
      <trkpt lat="33.7606" lon="77.63284">
        <ele>5347</ele>
        <time>2015-09-05T05:43:25Z</time>
      </trkpt>
      <trkpt lat="33.76055" lon="77.63284">
        <ele>5346.8</ele>
        <time>2015-09-05T05:43:30Z</time>
      </trkpt>
      <trkpt lat="33.76053" lon="77.63283">
        <ele>5346.8</ele>
        <time>2015-09-05T05:43:32Z</time>
      </trkpt>
      <trkpt lat="33.76051" lon="77.63281">
        <ele>5347</ele>
        <time>2015-09-05T05:43:34Z</time>
      </trkpt>
      <trkpt lat="33.76048" lon="77.63276">
        <ele>5347.2</ele>
        <time>2015-09-05T05:43:43Z</time>
      </trkpt>
      <trkpt lat="33.7605" lon="77.63277">
        <ele>5347.6</ele>
        <time>2015-09-05T05:44:10Z</time>
      </trkpt>
      <trkpt lat="33.76053" lon="77.63278">
        <ele>5347</ele>
        <time>2015-09-05T05:44:18Z</time>
      </trkpt>
      <trkpt lat="33.76051" lon="77.63281">
        <ele>5347</ele>
        <time>2015-09-05T05:44:23Z</time>
      </trkpt>
      <trkpt lat="33.76052" lon="77.63283">
        <ele>5346.8</ele>
        <time>2015-09-05T05:44:27Z</time>
      </trkpt>
      <trkpt lat="33.76054" lon="77.63283">
        <ele>5346.6</ele>
        <time>2015-09-05T05:44:29Z</time>
      </trkpt>
      <trkpt lat="33.76057" lon="77.63282">
        <ele>5346.4</ele>
        <time>2015-09-05T05:44:33Z</time>
      </trkpt>
      <trkpt lat="33.76059" lon="77.63282">
        <ele>5347</ele>
        <time>2015-09-05T05:44:45Z</time>
      </trkpt>
      <trkpt lat="33.76054" lon="77.63276">
        <ele>5347.2</ele>
        <time>2015-09-05T05:45:03Z</time>
      </trkpt>
      <trkpt lat="33.76053" lon="77.63281">
        <ele>5346.6</ele>
        <time>2015-09-05T05:45:20Z</time>
      </trkpt>
      <trkpt lat="33.76054" lon="77.63274">
        <ele>5346.8</ele>
        <time>2015-09-05T05:45:39Z</time>
      </trkpt>
      <trkpt lat="33.76055" lon="77.63275">
        <ele>5346</ele>
        <time>2015-09-05T05:45:46Z</time>
      </trkpt>
      <trkpt lat="33.76056" lon="77.63278">
        <ele>5346.2</ele>
        <time>2015-09-05T05:46:02Z</time>
      </trkpt>
      <trkpt lat="33.76054" lon="77.63282">
        <ele>5347</ele>
        <time>2015-09-05T05:46:15Z</time>
      </trkpt>
      <trkpt lat="33.76051" lon="77.6328">
        <ele>5347.2</ele>
        <time>2015-09-05T05:47:13Z</time>
      </trkpt>
      <trkpt lat="33.76048" lon="77.63273">
        <ele>5346.4</ele>
        <time>2015-09-05T05:48:27Z</time>
      </trkpt>
      <trkpt lat="33.76058" lon="77.6328">
        <ele>5347.2</ele>
        <time>2015-09-05T05:49:32Z</time>
      </trkpt>
      <trkpt lat="33.76055" lon="77.6328">
        <ele>5346.8</ele>
        <time>2015-09-05T05:49:45Z</time>
      </trkpt>
      <trkpt lat="33.76049" lon="77.6328">
        <ele>5348</ele>
        <time>2015-09-05T05:49:58Z</time>
      </trkpt>
      <trkpt lat="33.7605" lon="77.6328">
        <ele>5347.6</ele>
        <time>2015-09-05T05:51:09Z</time>
      </trkpt>
      <trkpt lat="33.76049" lon="77.6328">
        <ele>5347.6</ele>
        <time>2015-09-05T05:51:10Z</time>
      </trkpt>
      <trkpt lat="33.76048" lon="77.63276">
        <ele>5347.6</ele>
        <time>2015-09-05T05:51:29Z</time>
      </trkpt>
      <trkpt lat="33.76049" lon="77.63277">
        <ele>5347.6</ele>
        <time>2015-09-05T05:51:31Z</time>
      </trkpt>
      <trkpt lat="33.76053" lon="77.63276">
        <ele>5347.8</ele>
        <time>2015-09-05T05:51:41Z</time>
      </trkpt>
      <trkpt lat="33.76055" lon="77.6328">
        <ele>5347.8</ele>
        <time>2015-09-05T05:51:44Z</time>
      </trkpt>
      <trkpt lat="33.76053" lon="77.6328">
        <ele>5347.4</ele>
        <time>2015-09-05T05:51:47Z</time>
      </trkpt>
      <trkpt lat="33.76051" lon="77.63283">
        <ele>5348.2</ele>
        <time>2015-09-05T05:52:23Z</time>
      </trkpt>
      <trkpt lat="33.76045" lon="77.63283">
        <ele>5347.6</ele>
        <time>2015-09-05T05:53:06Z</time>
      </trkpt>
      <trkpt lat="33.76043" lon="77.63277">
        <ele>5348</ele>
        <time>2015-09-05T05:53:14Z</time>
      </trkpt>
      <trkpt lat="33.76046" lon="77.63273">
        <ele>5347</ele>
        <time>2015-09-05T05:53:26Z</time>
      </trkpt>
      <trkpt lat="33.76052" lon="77.6328">
        <ele>5347.6</ele>
        <time>2015-09-05T05:53:30Z</time>
      </trkpt>
      <trkpt lat="33.76051" lon="77.6328">
        <ele>5348</ele>
        <time>2015-09-05T05:53:34Z</time>
      </trkpt>
      <trkpt lat="33.76051" lon="77.63276">
        <ele>5347</ele>
        <time>2015-09-05T05:53:47Z</time>
      </trkpt>
      <trkpt lat="33.76052" lon="77.63279">
        <ele>5348</ele>
        <time>2015-09-05T05:53:56Z</time>
      </trkpt>
      <trkpt lat="33.76049" lon="77.63276">
        <ele>5348.2</ele>
        <time>2015-09-05T05:54:25Z</time>
      </trkpt>
      <trkpt lat="33.76048" lon="77.63274">
        <ele>5347.8</ele>
        <time>2015-09-05T05:54:27Z</time>
      </trkpt>
      <trkpt lat="33.76048" lon="77.63274">
        <ele>5347.6</ele>
        <time>2015-09-05T05:54:29Z</time>
      </trkpt>
      <trkpt lat="33.76052" lon="77.63277">
        <ele>5347.8</ele>
        <time>2015-09-05T05:54:33Z</time>
      </trkpt>
      <trkpt lat="33.76053" lon="77.63279">
        <ele>5348</ele>
        <time>2015-09-05T05:54:35Z</time>
      </trkpt>
      <trkpt lat="33.76057" lon="77.63285">
        <ele>5348</ele>
        <time>2015-09-05T05:54:44Z</time>
      </trkpt>
      <trkpt lat="33.76057" lon="77.63289">
        <ele>5348</ele>
        <time>2015-09-05T05:54:47Z</time>
      </trkpt>
      <trkpt lat="33.76055" lon="77.6329">
        <ele>5347.6</ele>
        <time>2015-09-05T05:54:49Z</time>
      </trkpt>
      <trkpt lat="33.76056" lon="77.63293">
        <ele>5347.2</ele>
        <time>2015-09-05T05:55:03Z</time>
      </trkpt>
      <trkpt lat="33.76057" lon="77.6329">
        <ele>5347</ele>
        <time>2015-09-05T05:55:08Z</time>
      </trkpt>
      <trkpt lat="33.76056" lon="77.63277">
        <ele>5348</ele>
        <time>2015-09-05T05:55:48Z</time>
      </trkpt>
      <trkpt lat="33.76059" lon="77.63278">
        <ele>5348.2</ele>
        <time>2015-09-05T05:55:57Z</time>
      </trkpt>
      <trkpt lat="33.76053" lon="77.63275">
        <ele>5348.4</ele>
        <time>2015-09-05T05:56:35Z</time>
      </trkpt>
      <trkpt lat="33.7605" lon="77.63278">
        <ele>5348</ele>
        <time>2015-09-05T05:56:38Z</time>
      </trkpt>
      <trkpt lat="33.76056" lon="77.63279">
        <ele>5348.4</ele>
        <time>2015-09-05T05:57:13Z</time>
      </trkpt>
      <trkpt lat="33.76055" lon="77.6328">
        <ele>5349</ele>
        <time>2015-09-05T05:57:16Z</time>
      </trkpt>
      <trkpt lat="33.7605" lon="77.63278">
        <ele>5348.8</ele>
        <time>2015-09-05T05:57:46Z</time>
      </trkpt>
      <trkpt lat="33.76051" lon="77.6328">
        <ele>5348.6</ele>
        <time>2015-09-05T05:57:48Z</time>
      </trkpt>
      <trkpt lat="33.76051" lon="77.6328">
        <ele>5348.4</ele>
        <time>2015-09-05T05:58:43Z</time>
      </trkpt>
      <trkpt lat="33.7605" lon="77.6328">
        <ele>5348.2</ele>
        <time>2015-09-05T05:59:34Z</time>
      </trkpt>
      <trkpt lat="33.76053" lon="77.63276">
        <ele>5348.6</ele>
        <time>2015-09-05T05:59:55Z</time>
      </trkpt>
      <trkpt lat="33.76055" lon="77.63281">
        <ele>5348</ele>
        <time>2015-09-05T06:00:24Z</time>
      </trkpt>
      <trkpt lat="33.76059" lon="77.6328">
        <ele>5348.4</ele>
        <time>2015-09-05T06:00:54Z</time>
      </trkpt>
      <trkpt lat="33.76057" lon="77.63277">
        <ele>5347.8</ele>
        <time>2015-09-05T06:02:11Z</time>
      </trkpt>
      <trkpt lat="33.76058" lon="77.63276">
        <ele>5348.4</ele>
        <time>2015-09-05T06:03:42Z</time>
      </trkpt>
      <trkpt lat="33.7606" lon="77.6326">
        <ele>5348</ele>
        <time>2015-09-05T06:04:29Z</time>
      </trkpt>
      <trkpt lat="33.76058" lon="77.63279">
        <ele>5348.2</ele>
        <time>2015-09-05T06:04:39Z</time>
      </trkpt>
      <trkpt lat="33.76059" lon="77.63275">
        <ele>5348</ele>
        <time>2015-09-05T06:05:27Z</time>
      </trkpt>
      <trkpt lat="33.76057" lon="77.63275">
        <ele>5348</ele>
        <time>2015-09-05T06:05:48Z</time>
      </trkpt>
      <trkpt lat="33.76058" lon="77.63276">
        <ele>5347.8</ele>
        <time>2015-09-05T06:06:23Z</time>
      </trkpt>
      <trkpt lat="33.76055" lon="77.63276">
        <ele>5347</ele>
        <time>2015-09-05T06:06:55Z</time>
      </trkpt>
      <trkpt lat="33.76055" lon="77.63276">
        <ele>5347.6</ele>
        <time>2015-09-05T06:07:41Z</time>
      </trkpt>
      <trkpt lat="33.76056" lon="77.63272">
        <ele>5347.8</ele>
        <time>2015-09-05T06:07:49Z</time>
      </trkpt>
      <trkpt lat="33.76057" lon="77.63273">
        <ele>5347.8</ele>
        <time>2015-09-05T06:07:52Z</time>
      </trkpt>
      <trkpt lat="33.76054" lon="77.63276">
        <ele>5348</ele>
        <time>2015-09-05T06:07:54Z</time>
      </trkpt>
      <trkpt lat="33.76055" lon="77.63279">
        <ele>5348</ele>
        <time>2015-09-05T06:08:17Z</time>
      </trkpt>
      <trkpt lat="33.76055" lon="77.63287">
        <ele>5347.4</ele>
        <time>2015-09-05T06:09:02Z</time>
      </trkpt>
      <trkpt lat="33.76052" lon="77.63287">
        <ele>5347.8</ele>
        <time>2015-09-05T06:09:28Z</time>
      </trkpt>
      <trkpt lat="33.76052" lon="77.63274">
        <ele>5348</ele>
        <time>2015-09-05T06:10:10Z</time>
      </trkpt>
      <trkpt lat="33.76053" lon="77.63272">
        <ele>5348.4</ele>
        <time>2015-09-05T06:10:18Z</time>
      </trkpt>
      <trkpt lat="33.76053" lon="77.63276">
        <ele>5348.8</ele>
        <time>2015-09-05T06:10:20Z</time>
      </trkpt>
      <trkpt lat="33.76057" lon="77.63277">
        <ele>5348.8</ele>
        <time>2015-09-05T06:10:23Z</time>
      </trkpt>
      <trkpt lat="33.76059" lon="77.63276">
        <ele>5348.8</ele>
        <time>2015-09-05T06:10:26Z</time>
      </trkpt>
      <trkpt lat="33.76057" lon="77.63277">
        <ele>5349.2</ele>
        <time>2015-09-05T06:10:31Z</time>
      </trkpt>
      <trkpt lat="33.76054" lon="77.63274">
        <ele>5348.2</ele>
        <time>2015-09-05T06:10:43Z</time>
      </trkpt>
      <trkpt lat="33.76052" lon="77.63272">
        <ele>5347.8</ele>
        <time>2015-09-05T06:10:49Z</time>
      </trkpt>
      <trkpt lat="33.76049" lon="77.63275">
        <ele>5347.8</ele>
        <time>2015-09-05T06:10:56Z</time>
      </trkpt>
      <trkpt lat="33.76049" lon="77.63274">
        <ele>5347.8</ele>
        <time>2015-09-05T06:10:58Z</time>
      </trkpt>
      <trkpt lat="33.76052" lon="77.63272">
        <ele>5347.8</ele>
        <time>2015-09-05T06:11:00Z</time>
      </trkpt>
      <trkpt lat="33.76055" lon="77.63274">
        <ele>5348.2</ele>
        <time>2015-09-05T06:11:06Z</time>
      </trkpt>
      <trkpt lat="33.76052" lon="77.63274">
        <ele>5348.4</ele>
        <time>2015-09-05T06:11:08Z</time>
      </trkpt>
      <trkpt lat="33.76049" lon="77.63278">
        <ele>5348.8</ele>
        <time>2015-09-05T06:11:35Z</time>
      </trkpt>
      <trkpt lat="33.7605" lon="77.63279">
        <ele>5348.8</ele>
        <time>2015-09-05T06:11:37Z</time>
      </trkpt>
      <trkpt lat="33.76048" lon="77.63274">
        <ele>5349.2</ele>
        <time>2015-09-05T06:12:33Z</time>
      </trkpt>
      <trkpt lat="33.76053" lon="77.63276">
        <ele>5348.6</ele>
        <time>2015-09-05T06:12:40Z</time>
      </trkpt>
      <trkpt lat="33.76055" lon="77.63275">
        <ele>5348</ele>
        <time>2015-09-05T06:12:54Z</time>
      </trkpt>
      <trkpt lat="33.76054" lon="77.63282">
        <ele>5348</ele>
        <time>2015-09-05T06:13:04Z</time>
      </trkpt>
      <trkpt lat="33.76056" lon="77.6328">
        <ele>5348.6</ele>
        <time>2015-09-05T06:13:10Z</time>
      </trkpt>
      <trkpt lat="33.76057" lon="77.63278">
        <ele>5349</ele>
        <time>2015-09-05T06:13:12Z</time>
      </trkpt>
      <trkpt lat="33.76058" lon="77.63276">
        <ele>5349.2</ele>
        <time>2015-09-05T06:13:21Z</time>
      </trkpt>
      <trkpt lat="33.76058" lon="77.63276">
        <ele>5348.8</ele>
        <time>2015-09-05T06:13:24Z</time>
      </trkpt>
      <trkpt lat="33.76054" lon="77.63285">
        <ele>5349.8</ele>
        <time>2015-09-05T06:14:19Z</time>
      </trkpt>
      <trkpt lat="33.76053" lon="77.63284">
        <ele>5349.6</ele>
        <time>2015-09-05T06:14:21Z</time>
      </trkpt>
      <trkpt lat="33.76053" lon="77.63281">
        <ele>5350.2</ele>
        <time>2015-09-05T06:14:50Z</time>
      </trkpt>
      <trkpt lat="33.76052" lon="77.63283">
        <ele>5350.8</ele>
        <time>2015-09-05T06:15:11Z</time>
      </trkpt>
      <trkpt lat="33.7605" lon="77.63278">
        <ele>5350.8</ele>
        <time>2015-09-05T06:15:13Z</time>
      </trkpt>
      <trkpt lat="33.76049" lon="77.63281">
        <ele>5350.8</ele>
        <time>2015-09-05T06:15:15Z</time>
      </trkpt>
      <trkpt lat="33.76055" lon="77.63276">
        <ele>5350.8</ele>
        <time>2015-09-05T06:15:19Z</time>
      </trkpt>
      <trkpt lat="33.76056" lon="77.63272">
        <ele>5351.2</ele>
        <time>2015-09-05T06:15:23Z</time>
      </trkpt>
      <trkpt lat="33.76055" lon="77.6328">
        <ele>5350.4</ele>
        <time>2015-09-05T06:15:48Z</time>
      </trkpt>
      <trkpt lat="33.76056" lon="77.6328">
        <ele>5350.2</ele>
        <time>2015-09-05T06:15:52Z</time>
      </trkpt>
      <trkpt lat="33.76059" lon="77.63278">
        <ele>5350.2</ele>
        <time>2015-09-05T06:15:57Z</time>
      </trkpt>
      <trkpt lat="33.7606" lon="77.63278">
        <ele>5350.2</ele>
        <time>2015-09-05T06:15:59Z</time>
      </trkpt>
      <trkpt lat="33.76056" lon="77.63278">
        <ele>5350.2</ele>
        <time>2015-09-05T06:16:25Z</time>
      </trkpt>
      <trkpt lat="33.76052" lon="77.63276">
        <ele>5350.8</ele>
        <time>2015-09-05T06:16:41Z</time>
      </trkpt>
      <trkpt lat="33.76053" lon="77.63277">
        <ele>5350.6</ele>
        <time>2015-09-05T06:16:43Z</time>
      </trkpt>
      <trkpt lat="33.76053" lon="77.63279">
        <ele>5350.8</ele>
        <time>2015-09-05T06:16:45Z</time>
      </trkpt>
      <trkpt lat="33.76054" lon="77.63284">
        <ele>5351.2</ele>
        <time>2015-09-05T06:17:34Z</time>
      </trkpt>
      <trkpt lat="33.76054" lon="77.63279">
        <ele>5351.6</ele>
        <time>2015-09-05T06:18:27Z</time>
      </trkpt>
      <trkpt lat="33.76051" lon="77.63281">
        <ele>5351.4</ele>
        <time>2015-09-05T06:18:42Z</time>
      </trkpt>
      <trkpt lat="33.76052" lon="77.63281">
        <ele>5351.6</ele>
        <time>2015-09-05T06:18:50Z</time>
      </trkpt>
      <trkpt lat="33.76054" lon="77.63277">
        <ele>5351.8</ele>
        <time>2015-09-05T06:19:12Z</time>
      </trkpt>
      <trkpt lat="33.76055" lon="77.63278">
        <ele>5352.4</ele>
        <time>2015-09-05T06:19:14Z</time>
      </trkpt>
      <trkpt lat="33.76055" lon="77.63278">
        <ele>5351.4</ele>
        <time>2015-09-05T06:19:31Z</time>
      </trkpt>
      <trkpt lat="33.76056" lon="77.63281">
        <ele>5351</ele>
        <time>2015-09-05T06:20:34Z</time>
      </trkpt>
      <trkpt lat="33.76054" lon="77.6328">
        <ele>5351.4</ele>
        <time>2015-09-05T06:20:52Z</time>
      </trkpt>
      <trkpt lat="33.76056" lon="77.63283">
        <ele>5352.4</ele>
        <time>2015-09-05T06:21:41Z</time>
      </trkpt>
      <trkpt lat="33.76053" lon="77.63286">
        <ele>5353.4</ele>
        <time>2015-09-05T06:21:55Z</time>
      </trkpt>
      <trkpt lat="33.76048" lon="77.63296">
        <ele>5352.6</ele>
        <time>2015-09-05T06:22:15Z</time>
      </trkpt>
      <trkpt lat="33.76046" lon="77.63298">
        <ele>5352.4</ele>
        <time>2015-09-05T06:22:17Z</time>
      </trkpt>
      <trkpt lat="33.76044" lon="77.63301">
        <ele>5352</ele>
        <time>2015-09-05T06:22:21Z</time>
      </trkpt>
      <trkpt lat="33.76037" lon="77.63311">
        <ele>5351.4</ele>
        <time>2015-09-05T06:22:36Z</time>
      </trkpt>
      <trkpt lat="33.76021" lon="77.63315">
        <ele>5350.4</ele>
        <time>2015-09-05T06:23:00Z</time>
      </trkpt>
      <trkpt lat="33.76018" lon="77.63319">
        <ele>5350.6</ele>
        <time>2015-09-05T06:23:06Z</time>
      </trkpt>
      <trkpt lat="33.76011" lon="77.63323">
        <ele>5350.4</ele>
        <time>2015-09-05T06:23:21Z</time>
      </trkpt>
      <trkpt lat="33.76007" lon="77.63329">
        <ele>5350.4</ele>
        <time>2015-09-05T06:23:28Z</time>
      </trkpt>
      <trkpt lat="33.7599" lon="77.63336">
        <ele>5349.8</ele>
        <time>2015-09-05T06:23:49Z</time>
      </trkpt>
      <trkpt lat="33.75981" lon="77.63339">
        <ele>5350</ele>
        <time>2015-09-05T06:23:56Z</time>
      </trkpt>
      <trkpt lat="33.75974" lon="77.63338">
        <ele>5349.4</ele>
        <time>2015-09-05T06:24:04Z</time>
      </trkpt>
      <trkpt lat="33.75974" lon="77.63333">
        <ele>5349.6</ele>
        <time>2015-09-05T06:24:08Z</time>
      </trkpt>
      <trkpt lat="33.75966" lon="77.63333">
        <ele>5349.8</ele>
        <time>2015-09-05T06:24:19Z</time>
      </trkpt>
      <trkpt lat="33.75961" lon="77.63338">
        <ele>5349.8</ele>
        <time>2015-09-05T06:24:26Z</time>
      </trkpt>
      <trkpt lat="33.75945" lon="77.63343">
        <ele>5350</ele>
        <time>2015-09-05T06:24:52Z</time>
      </trkpt>
      <trkpt lat="33.75943" lon="77.63345">
        <ele>5350</ele>
        <time>2015-09-05T06:24:54Z</time>
      </trkpt>
      <trkpt lat="33.75931" lon="77.63352">
        <ele>5349.6</ele>
        <time>2015-09-05T06:25:11Z</time>
      </trkpt>
      <trkpt lat="33.75928" lon="77.63354">
        <ele>5349</ele>
        <time>2015-09-05T06:25:17Z</time>
      </trkpt>
      <trkpt lat="33.75912" lon="77.63348">
        <ele>5348.6</ele>
        <time>2015-09-05T06:25:39Z</time>
      </trkpt>
      <trkpt lat="33.75906" lon="77.63351">
        <ele>5348.2</ele>
        <time>2015-09-05T06:25:48Z</time>
      </trkpt>
      <trkpt lat="33.759" lon="77.63352">
        <ele>5348</ele>
        <time>2015-09-05T06:25:53Z</time>
      </trkpt>
      <trkpt lat="33.75882" lon="77.63356">
        <ele>5347.2</ele>
        <time>2015-09-05T06:26:13Z</time>
      </trkpt>
      <trkpt lat="33.7588" lon="77.63356">
        <ele>5347</ele>
        <time>2015-09-05T06:26:15Z</time>
      </trkpt>
      <trkpt lat="33.75877" lon="77.63353">
        <ele>5346.8</ele>
        <time>2015-09-05T06:26:19Z</time>
      </trkpt>
      <trkpt lat="33.75874" lon="77.63349">
        <ele>5346.6</ele>
        <time>2015-09-05T06:26:25Z</time>
      </trkpt>
      <trkpt lat="33.75877" lon="77.6335">
        <ele>5346</ele>
        <time>2015-09-05T06:26:34Z</time>
      </trkpt>
      <trkpt lat="33.75872" lon="77.63353">
        <ele>5344.8</ele>
        <time>2015-09-05T06:26:44Z</time>
      </trkpt>
      <trkpt lat="33.75871" lon="77.63354">
        <ele>5344.8</ele>
        <time>2015-09-05T06:26:45Z</time>
      </trkpt>
      <trkpt lat="33.7587" lon="77.63358">
        <ele>5344</ele>
        <time>2015-09-05T06:26:49Z</time>
      </trkpt>
      <trkpt lat="33.7587" lon="77.63362">
        <ele>5343.8</ele>
        <time>2015-09-05T06:26:52Z</time>
      </trkpt>
      <trkpt lat="33.75872" lon="77.63363">
        <ele>5343.8</ele>
        <time>2015-09-05T06:26:53Z</time>
      </trkpt>
      <trkpt lat="33.75872" lon="77.63366">
        <ele>5343.6</ele>
        <time>2015-09-05T06:26:56Z</time>
      </trkpt>
      <trkpt lat="33.75861" lon="77.63368">
        <ele>5343</ele>
        <time>2015-09-05T06:27:14Z</time>
      </trkpt>
      <trkpt lat="33.7586" lon="77.63369">
        <ele>5343.2</ele>
        <time>2015-09-05T06:27:17Z</time>
      </trkpt>
      <trkpt lat="33.7587" lon="77.63366">
        <ele>5344.2</ele>
        <time>2015-09-05T06:28:17Z</time>
      </trkpt>
      <trkpt lat="33.75862" lon="77.63367">
        <ele>5343.2</ele>
        <time>2015-09-05T06:28:28Z</time>
      </trkpt>
      <trkpt lat="33.75862" lon="77.63366">
        <ele>5342.8</ele>
        <time>2015-09-05T06:28:34Z</time>
      </trkpt>
      <trkpt lat="33.75861" lon="77.63371">
        <ele>5342.6</ele>
        <time>2015-09-05T06:29:02Z</time>
      </trkpt>
      <trkpt lat="33.75859" lon="77.6337">
        <ele>5342.6</ele>
        <time>2015-09-05T06:29:04Z</time>
      </trkpt>
      <trkpt lat="33.75856" lon="77.63365">
        <ele>5342.6</ele>
        <time>2015-09-05T06:29:11Z</time>
      </trkpt>
      <trkpt lat="33.75861" lon="77.63361">
        <ele>5341.8</ele>
        <time>2015-09-05T06:30:04Z</time>
      </trkpt>
      <trkpt lat="33.7586" lon="77.6337">
        <ele>5340.8</ele>
        <time>2015-09-05T06:30:57Z</time>
      </trkpt>
      <trkpt lat="33.7586" lon="77.6337">
        <ele>5341.2</ele>
        <time>2015-09-05T06:31:30Z</time>
      </trkpt>
      <trkpt lat="33.75854" lon="77.63372">
        <ele>5339.6</ele>
        <time>2015-09-05T06:31:39Z</time>
      </trkpt>
      <trkpt lat="33.75852" lon="77.63369">
        <ele>5338.6</ele>
        <time>2015-09-05T06:31:43Z</time>
      </trkpt>
      <trkpt lat="33.75845" lon="77.63369">
        <ele>5337.8</ele>
        <time>2015-09-05T06:31:50Z</time>
      </trkpt>
      <trkpt lat="33.75843" lon="77.63368">
        <ele>5337.6</ele>
        <time>2015-09-05T06:31:52Z</time>
      </trkpt>
      <trkpt lat="33.75842" lon="77.63368">
        <ele>5337.6</ele>
        <time>2015-09-05T06:31:53Z</time>
      </trkpt>
      <trkpt lat="33.75839" lon="77.63368">
        <ele>5337</ele>
        <time>2015-09-05T06:31:58Z</time>
      </trkpt>
      <trkpt lat="33.75836" lon="77.63368">
        <ele>5336.6</ele>
        <time>2015-09-05T06:32:00Z</time>
      </trkpt>
      <trkpt lat="33.75835" lon="77.63368">
        <ele>5336.4</ele>
        <time>2015-09-05T06:32:02Z</time>
      </trkpt>
      <trkpt lat="33.75832" lon="77.63368">
        <ele>5336.4</ele>
        <time>2015-09-05T06:32:05Z</time>
      </trkpt>
      <trkpt lat="33.75831" lon="77.63368">
        <ele>5335.4</ele>
        <time>2015-09-05T06:32:15Z</time>
      </trkpt>
      <trkpt lat="33.75823" lon="77.6337">
        <ele>5334.4</ele>
        <time>2015-09-05T06:32:25Z</time>
      </trkpt>
      <trkpt lat="33.75818" lon="77.63372">
        <ele>5333.6</ele>
        <time>2015-09-05T06:32:31Z</time>
      </trkpt>
      <trkpt lat="33.75815" lon="77.63373">
        <ele>5333.6</ele>
        <time>2015-09-05T06:32:34Z</time>
      </trkpt>
      <trkpt lat="33.75811" lon="77.63374">
        <ele>5333.4</ele>
        <time>2015-09-05T06:32:38Z</time>
      </trkpt>
      <trkpt lat="33.75808" lon="77.63376">
        <ele>5333.2</ele>
        <time>2015-09-05T06:32:40Z</time>
      </trkpt>
      <trkpt lat="33.75803" lon="77.63378">
        <ele>5333.2</ele>
        <time>2015-09-05T06:32:46Z</time>
      </trkpt>
      <trkpt lat="33.75797" lon="77.63383">
        <ele>5332.2</ele>
        <time>2015-09-05T06:33:04Z</time>
      </trkpt>
      <trkpt lat="33.75781" lon="77.63386">
        <ele>5331.2</ele>
        <time>2015-09-05T06:33:27Z</time>
      </trkpt>
      <trkpt lat="33.75775" lon="77.63388">
        <ele>5331</ele>
        <time>2015-09-05T06:33:31Z</time>
      </trkpt>
      <trkpt lat="33.75774" lon="77.63388">
        <ele>5331</ele>
        <time>2015-09-05T06:33:33Z</time>
      </trkpt>
      <trkpt lat="33.75768" lon="77.63384">
        <ele>5330.2</ele>
        <time>2015-09-05T06:33:46Z</time>
      </trkpt>
      <trkpt lat="33.75762" lon="77.63377">
        <ele>5329.2</ele>
        <time>2015-09-05T06:34:09Z</time>
      </trkpt>
      <trkpt lat="33.75761" lon="77.63377">
        <ele>5328</ele>
        <time>2015-09-05T06:34:14Z</time>
      </trkpt>
      <trkpt lat="33.75755" lon="77.63382">
        <ele>5327</ele>
        <time>2015-09-05T06:34:20Z</time>
      </trkpt>
      <trkpt lat="33.7575" lon="77.63387">
        <ele>5326.2</ele>
        <time>2015-09-05T06:34:26Z</time>
      </trkpt>
      <trkpt lat="33.75748" lon="77.63391">
        <ele>5326</ele>
        <time>2015-09-05T06:34:27Z</time>
      </trkpt>
      <trkpt lat="33.75743" lon="77.634">
        <ele>5325</ele>
        <time>2015-09-05T06:34:31Z</time>
      </trkpt>
      <trkpt lat="33.75742" lon="77.63401">
        <ele>5324.8</ele>
        <time>2015-09-05T06:34:32Z</time>
      </trkpt>
      <trkpt lat="33.75743" lon="77.63406">
        <ele>5323.8</ele>
        <time>2015-09-05T06:34:40Z</time>
      </trkpt>
      <trkpt lat="33.75742" lon="77.6341">
        <ele>5322.6</ele>
        <time>2015-09-05T06:34:46Z</time>
      </trkpt>
      <trkpt lat="33.75739" lon="77.63412">
        <ele>5321.4</ele>
        <time>2015-09-05T06:34:51Z</time>
      </trkpt>
      <trkpt lat="33.75735" lon="77.63411">
        <ele>5320.4</ele>
        <time>2015-09-05T06:34:57Z</time>
      </trkpt>
      <trkpt lat="33.75731" lon="77.63413">
        <ele>5319.6</ele>
        <time>2015-09-05T06:35:00Z</time>
      </trkpt>
      <trkpt lat="33.7573" lon="77.63413">
        <ele>5319.2</ele>
        <time>2015-09-05T06:35:02Z</time>
      </trkpt>
      <trkpt lat="33.75729" lon="77.63414">
        <ele>5318.2</ele>
        <time>2015-09-05T06:35:08Z</time>
      </trkpt>
      <trkpt lat="33.75722" lon="77.63424">
        <ele>5317.4</ele>
        <time>2015-09-05T06:35:15Z</time>
      </trkpt>
      <trkpt lat="33.7572" lon="77.63427">
        <ele>5317.2</ele>
        <time>2015-09-05T06:35:17Z</time>
      </trkpt>
      <trkpt lat="33.75711" lon="77.63435">
        <ele>5316</ele>
        <time>2015-09-05T06:35:29Z</time>
      </trkpt>
      <trkpt lat="33.75707" lon="77.63438">
        <ele>5315.6</ele>
        <time>2015-09-05T06:35:33Z</time>
      </trkpt>
      <trkpt lat="33.75703" lon="77.63441">
        <ele>5315</ele>
        <time>2015-09-05T06:35:38Z</time>
      </trkpt>
      <trkpt lat="33.75695" lon="77.63445">
        <ele>5313.8</ele>
        <time>2015-09-05T06:35:47Z</time>
      </trkpt>
      <trkpt lat="33.75691" lon="77.63447">
        <ele>5312.8</ele>
        <time>2015-09-05T06:35:53Z</time>
      </trkpt>
      <trkpt lat="33.75686" lon="77.63448">
        <ele>5312</ele>
        <time>2015-09-05T06:35:59Z</time>
      </trkpt>
      <trkpt lat="33.75683" lon="77.63452">
        <ele>5311.6</ele>
        <time>2015-09-05T06:36:06Z</time>
      </trkpt>
      <trkpt lat="33.75681" lon="77.63456">
        <ele>5310.8</ele>
        <time>2015-09-05T06:36:10Z</time>
      </trkpt>
      <trkpt lat="33.7568" lon="77.63458">
        <ele>5310.6</ele>
        <time>2015-09-05T06:36:12Z</time>
      </trkpt>
      <trkpt lat="33.75678" lon="77.6346">
        <ele>5310</ele>
        <time>2015-09-05T06:36:14Z</time>
      </trkpt>
      <trkpt lat="33.75676" lon="77.63462">
        <ele>5309.4</ele>
        <time>2015-09-05T06:36:17Z</time>
      </trkpt>
      <trkpt lat="33.75671" lon="77.63467">
        <ele>5308.2</ele>
        <time>2015-09-05T06:36:22Z</time>
      </trkpt>
      <trkpt lat="33.75668" lon="77.63467">
        <ele>5307.2</ele>
        <time>2015-09-05T06:36:26Z</time>
      </trkpt>
      <trkpt lat="33.75668" lon="77.63465">
        <ele>5306.6</ele>
        <time>2015-09-05T06:36:27Z</time>
      </trkpt>
      <trkpt lat="33.75668" lon="77.63464">
        <ele>5306.2</ele>
        <time>2015-09-05T06:36:28Z</time>
      </trkpt>
      <trkpt lat="33.75666" lon="77.63463">
        <ele>5305</ele>
        <time>2015-09-05T06:36:32Z</time>
      </trkpt>
      <trkpt lat="33.75661" lon="77.63469">
        <ele>5304.8</ele>
        <time>2015-09-05T06:36:38Z</time>
      </trkpt>
      <trkpt lat="33.75659" lon="77.63477">
        <ele>5303.8</ele>
        <time>2015-09-05T06:36:43Z</time>
      </trkpt>
      <trkpt lat="33.75657" lon="77.63482">
        <ele>5302.8</ele>
        <time>2015-09-05T06:36:47Z</time>
      </trkpt>
      <trkpt lat="33.75654" lon="77.63487">
        <ele>5301.6</ele>
        <time>2015-09-05T06:36:51Z</time>
      </trkpt>
      <trkpt lat="33.75653" lon="77.6349">
        <ele>5300.6</ele>
        <time>2015-09-05T06:36:54Z</time>
      </trkpt>
      <trkpt lat="33.75649" lon="77.63496">
        <ele>5299.4</ele>
        <time>2015-09-05T06:36:59Z</time>
      </trkpt>
      <trkpt lat="33.75649" lon="77.63499">
        <ele>5298.4</ele>
        <time>2015-09-05T06:37:03Z</time>
      </trkpt>
      <trkpt lat="33.75653" lon="77.63501">
        <ele>5298</ele>
        <time>2015-09-05T06:37:04Z</time>
      </trkpt>
      <trkpt lat="33.75654" lon="77.63503">
        <ele>5297.2</ele>
        <time>2015-09-05T06:37:06Z</time>
      </trkpt>
      <trkpt lat="33.75651" lon="77.63503">
        <ele>5296</ele>
        <time>2015-09-05T06:37:09Z</time>
      </trkpt>
      <trkpt lat="33.75645" lon="77.63503">
        <ele>5294.8</ele>
        <time>2015-09-05T06:37:13Z</time>
      </trkpt>
      <trkpt lat="33.75644" lon="77.63503">
        <ele>5294.6</ele>
        <time>2015-09-05T06:37:14Z</time>
      </trkpt>
      <trkpt lat="33.75641" lon="77.63504">
        <ele>5293.8</ele>
        <time>2015-09-05T06:37:17Z</time>
      </trkpt>
      <trkpt lat="33.75632" lon="77.63501">
        <ele>5292.4</ele>
        <time>2015-09-05T06:37:35Z</time>
      </trkpt>
      <trkpt lat="33.7563" lon="77.63499">
        <ele>5291.4</ele>
        <time>2015-09-05T06:37:40Z</time>
      </trkpt>
      <trkpt lat="33.75627" lon="77.63505">
        <ele>5290.2</ele>
        <time>2015-09-05T06:37:47Z</time>
      </trkpt>
      <trkpt lat="33.75626" lon="77.63508">
        <ele>5289.8</ele>
        <time>2015-09-05T06:37:50Z</time>
      </trkpt>
      <trkpt lat="33.75624" lon="77.6351">
        <ele>5289.2</ele>
        <time>2015-09-05T06:37:52Z</time>
      </trkpt>
      <trkpt lat="33.75624" lon="77.63509">
        <ele>5289</ele>
        <time>2015-09-05T06:37:53Z</time>
      </trkpt>
      <trkpt lat="33.75622" lon="77.63509">
        <ele>5288.8</ele>
        <time>2015-09-05T06:37:54Z</time>
      </trkpt>
      <trkpt lat="33.7562" lon="77.63509">
        <ele>5288.6</ele>
        <time>2015-09-05T06:37:56Z</time>
      </trkpt>
      <trkpt lat="33.75619" lon="77.63509">
        <ele>5287.8</ele>
        <time>2015-09-05T06:37:58Z</time>
      </trkpt>
      <trkpt lat="33.75615" lon="77.63514">
        <ele>5286.6</ele>
        <time>2015-09-05T06:38:05Z</time>
      </trkpt>
      <trkpt lat="33.75614" lon="77.63519">
        <ele>5286</ele>
        <time>2015-09-05T06:38:07Z</time>
      </trkpt>
      <trkpt lat="33.75612" lon="77.63517">
        <ele>5285.4</ele>
        <time>2015-09-05T06:38:09Z</time>
      </trkpt>
      <trkpt lat="33.7561" lon="77.63517">
        <ele>5284.4</ele>
        <time>2015-09-05T06:38:11Z</time>
      </trkpt>
      <trkpt lat="33.75607" lon="77.63516">
        <ele>5283.2</ele>
        <time>2015-09-05T06:38:15Z</time>
      </trkpt>
      <trkpt lat="33.75603" lon="77.63512">
        <ele>5281.8</ele>
        <time>2015-09-05T06:38:21Z</time>
      </trkpt>
      <trkpt lat="33.75597" lon="77.6351">
        <ele>5280.8</ele>
        <time>2015-09-05T06:38:29Z</time>
      </trkpt>
      <trkpt lat="33.75596" lon="77.6351">
        <ele>5280.8</ele>
        <time>2015-09-05T06:38:30Z</time>
      </trkpt>
      <trkpt lat="33.75587" lon="77.63518">
        <ele>5280.6</ele>
        <time>2015-09-05T06:38:32Z</time>
      </trkpt>
      <trkpt lat="33.75583" lon="77.63516">
        <ele>5280.4</ele>
        <time>2015-09-05T06:38:36Z</time>
      </trkpt>
      <trkpt lat="33.75567" lon="77.63505">
        <ele>5279.8</ele>
        <time>2015-09-05T06:38:57Z</time>
      </trkpt>
      <trkpt lat="33.75569" lon="77.63495">
        <ele>5279</ele>
        <time>2015-09-05T06:39:05Z</time>
      </trkpt>
      <trkpt lat="33.75568" lon="77.63493">
        <ele>5279.2</ele>
        <time>2015-09-05T06:39:07Z</time>
      </trkpt>
      <trkpt lat="33.75566" lon="77.63494">
        <ele>5280.8</ele>
        <time>2015-09-05T06:39:14Z</time>
      </trkpt>
      <trkpt lat="33.7557" lon="77.63498">
        <ele>5280</ele>
        <time>2015-09-05T06:40:23Z</time>
      </trkpt>
      <trkpt lat="33.75566" lon="77.63497">
        <ele>5281</ele>
        <time>2015-09-05T06:41:38Z</time>
      </trkpt>
      <trkpt lat="33.75565" lon="77.63496">
        <ele>5279.8</ele>
        <time>2015-09-05T06:43:02Z</time>
      </trkpt>
      <trkpt lat="33.75566" lon="77.63497">
        <ele>5279.4</ele>
        <time>2015-09-05T06:43:59Z</time>
      </trkpt>
      <trkpt lat="33.75562" lon="77.63496">
        <ele>5279.2</ele>
        <time>2015-09-05T06:44:48Z</time>
      </trkpt>
      <trkpt lat="33.75559" lon="77.63496">
        <ele>5278.8</ele>
        <time>2015-09-05T06:44:51Z</time>
      </trkpt>
      <trkpt lat="33.75551" lon="77.63493">
        <ele>5278</ele>
        <time>2015-09-05T06:45:07Z</time>
      </trkpt>
      <trkpt lat="33.75551" lon="77.63495">
        <ele>5277.8</ele>
        <time>2015-09-05T06:45:09Z</time>
      </trkpt>
      <trkpt lat="33.7555" lon="77.63497">
        <ele>5277.4</ele>
        <time>2015-09-05T06:45:10Z</time>
      </trkpt>
      <trkpt lat="33.7555" lon="77.63499">
        <ele>5276.6</ele>
        <time>2015-09-05T06:45:33Z</time>
      </trkpt>
      <trkpt lat="33.75547" lon="77.635">
        <ele>5275.6</ele>
        <time>2015-09-05T06:45:38Z</time>
      </trkpt>
      <trkpt lat="33.75537" lon="77.63497">
        <ele>5275.8</ele>
        <time>2015-09-05T06:45:55Z</time>
      </trkpt>
      <trkpt lat="33.75536" lon="77.63495">
        <ele>5276.6</ele>
        <time>2015-09-05T06:46:00Z</time>
      </trkpt>
      <trkpt lat="33.75534" lon="77.63493">
        <ele>5275.6</ele>
        <time>2015-09-05T06:46:40Z</time>
      </trkpt>
      <trkpt lat="33.75529" lon="77.63492">
        <ele>5274.4</ele>
        <time>2015-09-05T06:46:57Z</time>
      </trkpt>
      <trkpt lat="33.75523" lon="77.63494">
        <ele>5274.4</ele>
        <time>2015-09-05T06:47:05Z</time>
      </trkpt>
      <trkpt lat="33.7551" lon="77.6349">
        <ele>5274.2</ele>
        <time>2015-09-05T06:47:23Z</time>
      </trkpt>
      <trkpt lat="33.75504" lon="77.63492">
        <ele>5273.4</ele>
        <time>2015-09-05T06:47:30Z</time>
      </trkpt>
      <trkpt lat="33.75495" lon="77.63496">
        <ele>5272.4</ele>
        <time>2015-09-05T06:47:45Z</time>
      </trkpt>
      <trkpt lat="33.75486" lon="77.63501">
        <ele>5271.4</ele>
        <time>2015-09-05T06:47:54Z</time>
      </trkpt>
      <trkpt lat="33.75486" lon="77.63501">
        <ele>5271.2</ele>
        <time>2015-09-05T06:47:55Z</time>
      </trkpt>
      <trkpt lat="33.75477" lon="77.63506">
        <ele>5270.2</ele>
        <time>2015-09-05T06:48:06Z</time>
      </trkpt>
      <trkpt lat="33.75471" lon="77.63504">
        <ele>5269.2</ele>
        <time>2015-09-05T06:48:15Z</time>
      </trkpt>
      <trkpt lat="33.75467" lon="77.63505">
        <ele>5268.8</ele>
        <time>2015-09-05T06:48:19Z</time>
      </trkpt>
      <trkpt lat="33.75454" lon="77.6352">
        <ele>5268.2</ele>
        <time>2015-09-05T06:48:23Z</time>
      </trkpt>
      <trkpt lat="33.75449" lon="77.63522">
        <ele>5267</ele>
        <time>2015-09-05T06:48:33Z</time>
      </trkpt>
      <trkpt lat="33.75441" lon="77.63527">
        <ele>5266</ele>
        <time>2015-09-05T06:48:47Z</time>
      </trkpt>
      <trkpt lat="33.75431" lon="77.63528">
        <ele>5265</ele>
        <time>2015-09-05T06:48:58Z</time>
      </trkpt>
      <trkpt lat="33.7543" lon="77.63527">
        <ele>5264.6</ele>
        <time>2015-09-05T06:48:59Z</time>
      </trkpt>
      <trkpt lat="33.75421" lon="77.63532">
        <ele>5264</ele>
        <time>2015-09-05T06:49:06Z</time>
      </trkpt>
      <trkpt lat="33.75409" lon="77.6354">
        <ele>5263.6</ele>
        <time>2015-09-05T06:49:19Z</time>
      </trkpt>
      <trkpt lat="33.75406" lon="77.63542">
        <ele>5262.8</ele>
        <time>2015-09-05T06:49:23Z</time>
      </trkpt>
      <trkpt lat="33.75404" lon="77.63543">
        <ele>5262.6</ele>
        <time>2015-09-05T06:49:24Z</time>
      </trkpt>
      <trkpt lat="33.754" lon="77.63546">
        <ele>5262</ele>
        <time>2015-09-05T06:49:29Z</time>
      </trkpt>
      <trkpt lat="33.75395" lon="77.63547">
        <ele>5261.6</ele>
        <time>2015-09-05T06:49:33Z</time>
      </trkpt>
      <trkpt lat="33.75394" lon="77.63547">
        <ele>5261.4</ele>
        <time>2015-09-05T06:49:34Z</time>
      </trkpt>
      <trkpt lat="33.75387" lon="77.63548">
        <ele>5260.4</ele>
        <time>2015-09-05T06:49:40Z</time>
      </trkpt>
      <trkpt lat="33.75386" lon="77.63543">
        <ele>5259.4</ele>
        <time>2015-09-05T06:49:50Z</time>
      </trkpt>
      <trkpt lat="33.75381" lon="77.63543">
        <ele>5258.2</ele>
        <time>2015-09-05T06:49:57Z</time>
      </trkpt>
      <trkpt lat="33.75376" lon="77.63546">
        <ele>5257.6</ele>
        <time>2015-09-05T06:50:03Z</time>
      </trkpt>
      <trkpt lat="33.75374" lon="77.63549">
        <ele>5257.2</ele>
        <time>2015-09-05T06:50:06Z</time>
      </trkpt>
      <trkpt lat="33.75358" lon="77.63563">
        <ele>5256.4</ele>
        <time>2015-09-05T06:50:18Z</time>
      </trkpt>
      <trkpt lat="33.75356" lon="77.63563">
        <ele>5256.2</ele>
        <time>2015-09-05T06:50:22Z</time>
      </trkpt>
      <trkpt lat="33.75349" lon="77.63567">
        <ele>5256.4</ele>
        <time>2015-09-05T06:50:28Z</time>
      </trkpt>
      <trkpt lat="33.75333" lon="77.63577">
        <ele>5255.4</ele>
        <time>2015-09-05T06:50:43Z</time>
      </trkpt>
      <trkpt lat="33.7533" lon="77.63579">
        <ele>5255</ele>
        <time>2015-09-05T06:50:45Z</time>
      </trkpt>
      <trkpt lat="33.75315" lon="77.63583">
        <ele>5253.8</ele>
        <time>2015-09-05T06:51:00Z</time>
      </trkpt>
      <trkpt lat="33.753" lon="77.63594">
        <ele>5253.8</ele>
        <time>2015-09-05T06:51:09Z</time>
      </trkpt>
      <trkpt lat="33.75282" lon="77.636">
        <ele>5254.8</ele>
        <time>2015-09-05T06:51:23Z</time>
      </trkpt>
      <trkpt lat="33.75277" lon="77.63601">
        <ele>5254.8</ele>
        <time>2015-09-05T06:51:27Z</time>
      </trkpt>
      <trkpt lat="33.75271" lon="77.63593">
        <ele>5255.6</ele>
        <time>2015-09-05T06:51:38Z</time>
      </trkpt>
      <trkpt lat="33.7527" lon="77.63594">
        <ele>5256</ele>
        <time>2015-09-05T06:51:39Z</time>
      </trkpt>
      <trkpt lat="33.75268" lon="77.63588">
        <ele>5256.6</ele>
        <time>2015-09-05T06:51:45Z</time>
      </trkpt>
      <trkpt lat="33.75267" lon="77.63584">
        <ele>5257</ele>
        <time>2015-09-05T06:51:51Z</time>
      </trkpt>
      <trkpt lat="33.75267" lon="77.63581">
        <ele>5257.4</ele>
        <time>2015-09-05T06:51:55Z</time>
      </trkpt>
      <trkpt lat="33.75266" lon="77.63579">
        <ele>5258.2</ele>
        <time>2015-09-05T06:51:59Z</time>
      </trkpt>
      <trkpt lat="33.75271" lon="77.63574">
        <ele>5259</ele>
        <time>2015-09-05T06:52:06Z</time>
      </trkpt>
      <trkpt lat="33.75272" lon="77.63574">
        <ele>5259.2</ele>
        <time>2015-09-05T06:52:07Z</time>
      </trkpt>
      <trkpt lat="33.75276" lon="77.63572">
        <ele>5259.6</ele>
        <time>2015-09-05T06:52:11Z</time>
      </trkpt>
      <trkpt lat="33.75278" lon="77.63572">
        <ele>5260.2</ele>
        <time>2015-09-05T06:52:15Z</time>
      </trkpt>
      <trkpt lat="33.75278" lon="77.63573">
        <ele>5261.4</ele>
        <time>2015-09-05T06:52:22Z</time>
      </trkpt>
      <trkpt lat="33.75278" lon="77.63571">
        <ele>5262.6</ele>
        <time>2015-09-05T06:52:26Z</time>
      </trkpt>
      <trkpt lat="33.75275" lon="77.63566">
        <ele>5263.6</ele>
        <time>2015-09-05T06:52:35Z</time>
      </trkpt>
      <trkpt lat="33.75274" lon="77.63562">
        <ele>5264.6</ele>
        <time>2015-09-05T06:52:48Z</time>
      </trkpt>
      <trkpt lat="33.75277" lon="77.63557">
        <ele>5266</ele>
        <time>2015-09-05T06:53:02Z</time>
      </trkpt>
      <trkpt lat="33.75279" lon="77.63558">
        <ele>5267</ele>
        <time>2015-09-05T06:53:06Z</time>
      </trkpt>
      <trkpt lat="33.75282" lon="77.63558">
        <ele>5268</ele>
        <time>2015-09-05T06:53:15Z</time>
      </trkpt>
      <trkpt lat="33.75285" lon="77.63553">
        <ele>5267.2</ele>
        <time>2015-09-05T06:53:24Z</time>
      </trkpt>
      <trkpt lat="33.75283" lon="77.63553">
        <ele>5267</ele>
        <time>2015-09-05T06:53:25Z</time>
      </trkpt>
      <trkpt lat="33.75278" lon="77.63548">
        <ele>5266</ele>
        <time>2015-09-05T06:53:30Z</time>
      </trkpt>
      <trkpt lat="33.75283" lon="77.63541">
        <ele>5267</ele>
        <time>2015-09-05T06:54:04Z</time>
      </trkpt>
      <trkpt lat="33.75287" lon="77.63533">
        <ele>5268</ele>
        <time>2015-09-05T06:54:36Z</time>
      </trkpt>
      <trkpt lat="33.75291" lon="77.63532">
        <ele>5269</ele>
        <time>2015-09-05T06:54:44Z</time>
      </trkpt>
      <trkpt lat="33.75292" lon="77.63528">
        <ele>5270.2</ele>
        <time>2015-09-05T06:54:50Z</time>
      </trkpt>
      <trkpt lat="33.75293" lon="77.63526">
        <ele>5270.4</ele>
        <time>2015-09-05T06:54:52Z</time>
      </trkpt>
      <trkpt lat="33.75294" lon="77.63521">
        <ele>5271.2</ele>
        <time>2015-09-05T06:54:59Z</time>
      </trkpt>
      <trkpt lat="33.753" lon="77.63521">
        <ele>5271.6</ele>
        <time>2015-09-05T06:55:07Z</time>
      </trkpt>
      <trkpt lat="33.75303" lon="77.6352">
        <ele>5272.4</ele>
        <time>2015-09-05T06:55:11Z</time>
      </trkpt>
      <trkpt lat="33.75303" lon="77.63521">
        <ele>5272.8</ele>
        <time>2015-09-05T06:55:36Z</time>
      </trkpt>
      <trkpt lat="33.75295" lon="77.63518">
        <ele>5271.6</ele>
        <time>2015-09-05T06:55:49Z</time>
      </trkpt>
      <trkpt lat="33.75294" lon="77.6352">
        <ele>5271.4</ele>
        <time>2015-09-05T06:55:52Z</time>
      </trkpt>
      <trkpt lat="33.75292" lon="77.63523">
        <ele>5270.2</ele>
        <time>2015-09-05T06:56:02Z</time>
      </trkpt>
      <trkpt lat="33.75292" lon="77.63523">
        <ele>5271.4</ele>
        <time>2015-09-05T06:56:44Z</time>
      </trkpt>
      <trkpt lat="33.75291" lon="77.63525">
        <ele>5271.2</ele>
        <time>2015-09-05T06:56:59Z</time>
      </trkpt>
      <trkpt lat="33.75295" lon="77.63524">
        <ele>5271.4</ele>
        <time>2015-09-05T06:57:01Z</time>
      </trkpt>
      <trkpt lat="33.75299" lon="77.63522">
        <ele>5271.6</ele>
        <time>2015-09-05T06:57:04Z</time>
      </trkpt>
      <trkpt lat="33.75301" lon="77.63521">
        <ele>5271.8</ele>
        <time>2015-09-05T06:57:06Z</time>
      </trkpt>
      <trkpt lat="33.753" lon="77.63523">
        <ele>5272.6</ele>
        <time>2015-09-05T06:57:16Z</time>
      </trkpt>
      <trkpt lat="33.75297" lon="77.63515">
        <ele>5273.8</ele>
        <time>2015-09-05T06:57:50Z</time>
      </trkpt>
      <trkpt lat="33.753" lon="77.63515">
        <ele>5274</ele>
        <time>2015-09-05T06:57:57Z</time>
      </trkpt>
      <trkpt lat="33.75302" lon="77.63514">
        <ele>5274.2</ele>
        <time>2015-09-05T06:57:59Z</time>
      </trkpt>
      <trkpt lat="33.75309" lon="77.63506">
        <ele>5272.6</ele>
        <time>2015-09-05T06:59:03Z</time>
      </trkpt>
      <trkpt lat="33.75303" lon="77.63505">
        <ele>5272</ele>
        <time>2015-09-05T06:59:54Z</time>
      </trkpt>
      <trkpt lat="33.75307" lon="77.63505">
        <ele>5271.8</ele>
        <time>2015-09-05T07:00:13Z</time>
      </trkpt>
      <trkpt lat="33.75307" lon="77.63505">
        <ele>5271.6</ele>
        <time>2015-09-05T07:00:31Z</time>
      </trkpt>
      <trkpt lat="33.75305" lon="77.63504">
        <ele>5271.4</ele>
        <time>2015-09-05T07:00:56Z</time>
      </trkpt>
      <trkpt lat="33.75301" lon="77.63507">
        <ele>5271.8</ele>
        <time>2015-09-05T07:01:47Z</time>
      </trkpt>
      <trkpt lat="33.75296" lon="77.63506">
        <ele>5271.8</ele>
        <time>2015-09-05T07:01:52Z</time>
      </trkpt>
      <trkpt lat="33.75292" lon="77.63501">
        <ele>5271.4</ele>
        <time>2015-09-05T07:02:21Z</time>
      </trkpt>
      <trkpt lat="33.75311" lon="77.63506">
        <ele>5271.2</ele>
        <time>2015-09-05T07:02:43Z</time>
      </trkpt>
      <trkpt lat="33.75308" lon="77.63504">
        <ele>5271.4</ele>
        <time>2015-09-05T07:03:02Z</time>
      </trkpt>
      <trkpt lat="33.75306" lon="77.63505">
        <ele>5270.6</ele>
        <time>2015-09-05T07:04:33Z</time>
      </trkpt>
      <trkpt lat="33.75304" lon="77.6351">
        <ele>5270.4</ele>
        <time>2015-09-05T07:06:17Z</time>
      </trkpt>
      <trkpt lat="33.75304" lon="77.63509">
        <ele>5270.6</ele>
        <time>2015-09-05T07:06:25Z</time>
      </trkpt>
      <trkpt lat="33.75308" lon="77.63506">
        <ele>5270.4</ele>
        <time>2015-09-05T07:06:42Z</time>
      </trkpt>
      <trkpt lat="33.75304" lon="77.63508">
        <ele>5270.4</ele>
        <time>2015-09-05T07:08:17Z</time>
      </trkpt>
      <trkpt lat="33.75304" lon="77.63508">
        <ele>5270.4</ele>
        <time>2015-09-05T07:08:20Z</time>
      </trkpt>
      <trkpt lat="33.75303" lon="77.63509">
        <ele>5269.6</ele>
        <time>2015-09-05T07:08:31Z</time>
      </trkpt>
      <trkpt lat="33.75302" lon="77.63507">
        <ele>5269.6</ele>
        <time>2015-09-05T07:09:51Z</time>
      </trkpt>
      <trkpt lat="33.75303" lon="77.63507">
        <ele>5269.6</ele>
        <time>2015-09-05T07:09:57Z</time>
      </trkpt>
      <trkpt lat="33.75302" lon="77.63511">
        <ele>5269.6</ele>
        <time>2015-09-05T07:11:01Z</time>
      </trkpt>
      <trkpt lat="33.75304" lon="77.6351">
        <ele>5269.8</ele>
        <time>2015-09-05T07:12:10Z</time>
      </trkpt>
      <trkpt lat="33.75304" lon="77.6351">
        <ele>5269.8</ele>
        <time>2015-09-05T07:14:22Z</time>
      </trkpt>
      <trkpt lat="33.75303" lon="77.63511">
        <ele>5270.4</ele>
        <time>2015-09-05T07:16:09Z</time>
      </trkpt>
      <trkpt lat="33.75304" lon="77.63509">
        <ele>5270.8</ele>
        <time>2015-09-05T07:17:02Z</time>
      </trkpt>
      <trkpt lat="33.75304" lon="77.63511">
        <ele>5271.8</ele>
        <time>2015-09-05T07:17:51Z</time>
      </trkpt>
      <trkpt lat="33.75304" lon="77.63508">
        <ele>5270.8</ele>
        <time>2015-09-05T07:18:55Z</time>
      </trkpt>
      <trkpt lat="33.75303" lon="77.6351">
        <ele>5270.8</ele>
        <time>2015-09-05T07:19:39Z</time>
      </trkpt>
      <trkpt lat="33.75298" lon="77.63508">
        <ele>5269.6</ele>
        <time>2015-09-05T07:19:51Z</time>
      </trkpt>
      <trkpt lat="33.75303" lon="77.63506">
        <ele>5270.2</ele>
        <time>2015-09-05T07:21:48Z</time>
      </trkpt>
      <trkpt lat="33.75305" lon="77.63509">
        <ele>5270.8</ele>
        <time>2015-09-05T07:22:55Z</time>
      </trkpt>
      <trkpt lat="33.75301" lon="77.63511">
        <ele>5271</ele>
        <time>2015-09-05T07:23:01Z</time>
      </trkpt>
      <trkpt lat="33.75304" lon="77.6351">
        <ele>5271</ele>
        <time>2015-09-05T07:23:04Z</time>
      </trkpt>
      <trkpt lat="33.75304" lon="77.63511">
        <ele>5271</ele>
        <time>2015-09-05T07:23:20Z</time>
      </trkpt>
      <trkpt lat="33.75304" lon="77.63513">
        <ele>5271</ele>
        <time>2015-09-05T07:23:22Z</time>
      </trkpt>
      <trkpt lat="33.7531" lon="77.63508">
        <ele>5271</ele>
        <time>2015-09-05T07:24:12Z</time>
      </trkpt>
      <trkpt lat="33.75307" lon="77.63517">
        <ele>5271.8</ele>
        <time>2015-09-05T07:24:31Z</time>
      </trkpt>
      <trkpt lat="33.75307" lon="77.63515">
        <ele>5273.4</ele>
        <time>2015-09-05T07:24:34Z</time>
      </trkpt>
      <trkpt lat="33.75306" lon="77.63513">
        <ele>5272.2</ele>
        <time>2015-09-05T07:24:41Z</time>
      </trkpt>
      <trkpt lat="33.75303" lon="77.63504">
        <ele>5271.2</ele>
        <time>2015-09-05T07:24:55Z</time>
      </trkpt>
      <trkpt lat="33.753" lon="77.63504">
        <ele>5270.8</ele>
        <time>2015-09-05T07:25:09Z</time>
      </trkpt>
      <trkpt lat="33.75299" lon="77.63486">
        <ele>5270.8</ele>
        <time>2015-09-05T07:25:24Z</time>
      </trkpt>
      <trkpt lat="33.75296" lon="77.63481">
        <ele>5270</ele>
        <time>2015-09-05T07:25:27Z</time>
      </trkpt>
      <trkpt lat="33.75297" lon="77.6348">
        <ele>5269.8</ele>
        <time>2015-09-05T07:25:29Z</time>
      </trkpt>
      <trkpt lat="33.75298" lon="77.63473">
        <ele>5269.6</ele>
        <time>2015-09-05T07:25:38Z</time>
      </trkpt>
      <trkpt lat="33.75297" lon="77.63467">
        <ele>5269.2</ele>
        <time>2015-09-05T07:25:45Z</time>
      </trkpt>
      <trkpt lat="33.75296" lon="77.63465">
        <ele>5268.8</ele>
        <time>2015-09-05T07:25:47Z</time>
      </trkpt>
      <trkpt lat="33.75294" lon="77.63458">
        <ele>5267.8</ele>
        <time>2015-09-05T07:25:54Z</time>
      </trkpt>
      <trkpt lat="33.75291" lon="77.63455">
        <ele>5266.6</ele>
        <time>2015-09-05T07:26:01Z</time>
      </trkpt>
      <trkpt lat="33.75289" lon="77.63451">
        <ele>5265.6</ele>
        <time>2015-09-05T07:26:06Z</time>
      </trkpt>
      <trkpt lat="33.75287" lon="77.63447">
        <ele>5264.6</ele>
        <time>2015-09-05T07:26:12Z</time>
      </trkpt>
      <trkpt lat="33.75286" lon="77.63445">
        <ele>5263.4</ele>
        <time>2015-09-05T07:26:15Z</time>
      </trkpt>
      <trkpt lat="33.75286" lon="77.6344">
        <ele>5262.4</ele>
        <time>2015-09-05T07:26:23Z</time>
      </trkpt>
      <trkpt lat="33.7529" lon="77.63432">
        <ele>5261.2</ele>
        <time>2015-09-05T07:26:34Z</time>
      </trkpt>
      <trkpt lat="33.7529" lon="77.6343">
        <ele>5260.2</ele>
        <time>2015-09-05T07:26:37Z</time>
      </trkpt>
      <trkpt lat="33.75292" lon="77.63428">
        <ele>5259.2</ele>
        <time>2015-09-05T07:26:43Z</time>
      </trkpt>
      <trkpt lat="33.75292" lon="77.6342">
        <ele>5257.8</ele>
        <time>2015-09-05T07:26:52Z</time>
      </trkpt>
      <trkpt lat="33.75286" lon="77.63416">
        <ele>5256.6</ele>
        <time>2015-09-05T07:26:54Z</time>
      </trkpt>
      <trkpt lat="33.75286" lon="77.63407">
        <ele>5255.4</ele>
        <time>2015-09-05T07:27:09Z</time>
      </trkpt>
      <trkpt lat="33.75288" lon="77.63405">
        <ele>5254.4</ele>
        <time>2015-09-05T07:27:17Z</time>
      </trkpt>
      <trkpt lat="33.75287" lon="77.63403">
        <ele>5253</ele>
        <time>2015-09-05T07:27:21Z</time>
      </trkpt>
      <trkpt lat="33.75284" lon="77.63396">
        <ele>5251.8</ele>
        <time>2015-09-05T07:27:38Z</time>
      </trkpt>
      <trkpt lat="33.75284" lon="77.63395">
        <ele>5250.8</ele>
        <time>2015-09-05T07:27:41Z</time>
      </trkpt>
      <trkpt lat="33.75284" lon="77.63395">
        <ele>5250.2</ele>
        <time>2015-09-05T07:27:43Z</time>
      </trkpt>
      <trkpt lat="33.75283" lon="77.63394">
        <ele>5249.4</ele>
        <time>2015-09-05T07:27:46Z</time>
      </trkpt>
      <trkpt lat="33.7528" lon="77.6339">
        <ele>5248.4</ele>
        <time>2015-09-05T07:27:53Z</time>
      </trkpt>
      <trkpt lat="33.7528" lon="77.63389">
        <ele>5247.2</ele>
        <time>2015-09-05T07:27:55Z</time>
      </trkpt>
      <trkpt lat="33.7528" lon="77.63385">
        <ele>5246.2</ele>
        <time>2015-09-05T07:27:59Z</time>
      </trkpt>
      <trkpt lat="33.75281" lon="77.63384">
        <ele>5245</ele>
        <time>2015-09-05T07:28:06Z</time>
      </trkpt>
      <trkpt lat="33.75276" lon="77.63383">
        <ele>5244.6</ele>
        <time>2015-09-05T07:28:10Z</time>
      </trkpt>
      <trkpt lat="33.75274" lon="77.63382">
        <ele>5243.8</ele>
        <time>2015-09-05T07:28:15Z</time>
      </trkpt>
      <trkpt lat="33.75274" lon="77.63381">
        <ele>5242.8</ele>
        <time>2015-09-05T07:28:18Z</time>
      </trkpt>
      <trkpt lat="33.7527" lon="77.63383">
        <ele>5241.6</ele>
        <time>2015-09-05T07:28:26Z</time>
      </trkpt>
      <trkpt lat="33.75268" lon="77.63386">
        <ele>5240.6</ele>
        <time>2015-09-05T07:28:32Z</time>
      </trkpt>
      <trkpt lat="33.75267" lon="77.63388">
        <ele>5239.4</ele>
        <time>2015-09-05T07:28:37Z</time>
      </trkpt>
      <trkpt lat="33.75263" lon="77.63388">
        <ele>5238.4</ele>
        <time>2015-09-05T07:28:49Z</time>
      </trkpt>
      <trkpt lat="33.75262" lon="77.6339">
        <ele>5237.2</ele>
        <time>2015-09-05T07:28:56Z</time>
      </trkpt>
      <trkpt lat="33.75259" lon="77.63388">
        <ele>5236.2</ele>
        <time>2015-09-05T07:29:04Z</time>
      </trkpt>
      <trkpt lat="33.75255" lon="77.6339">
        <ele>5235</ele>
        <time>2015-09-05T07:29:09Z</time>
      </trkpt>
      <trkpt lat="33.75251" lon="77.63388">
        <ele>5234</ele>
        <time>2015-09-05T07:29:15Z</time>
      </trkpt>
      <trkpt lat="33.75249" lon="77.63386">
        <ele>5233</ele>
        <time>2015-09-05T07:29:22Z</time>
      </trkpt>
      <trkpt lat="33.75248" lon="77.63386">
        <ele>5231.8</ele>
        <time>2015-09-05T07:29:31Z</time>
      </trkpt>
      <trkpt lat="33.75247" lon="77.63386">
        <ele>5230.8</ele>
        <time>2015-09-05T07:29:36Z</time>
      </trkpt>
      <trkpt lat="33.75243" lon="77.63388">
        <ele>5229.6</ele>
        <time>2015-09-05T07:29:44Z</time>
      </trkpt>
      <trkpt lat="33.75242" lon="77.63391">
        <ele>5229.4</ele>
        <time>2015-09-05T07:29:46Z</time>
      </trkpt>
      <trkpt lat="33.75242" lon="77.63389">
        <ele>5228.4</ele>
        <time>2015-09-05T07:29:50Z</time>
      </trkpt>
      <trkpt lat="33.75243" lon="77.63386">
        <ele>5227.4</ele>
        <time>2015-09-05T07:29:57Z</time>
      </trkpt>
      <trkpt lat="33.75237" lon="77.63382">
        <ele>5227</ele>
        <time>2015-09-05T07:30:08Z</time>
      </trkpt>
      <trkpt lat="33.75233" lon="77.63377">
        <ele>5226.4</ele>
        <time>2015-09-05T07:30:20Z</time>
      </trkpt>
      <trkpt lat="33.7523" lon="77.63376">
        <ele>5225.2</ele>
        <time>2015-09-05T07:30:25Z</time>
      </trkpt>
      <trkpt lat="33.75224" lon="77.63367">
        <ele>5224.2</ele>
        <time>2015-09-05T07:30:37Z</time>
      </trkpt>
      <trkpt lat="33.75221" lon="77.63365">
        <ele>5223</ele>
        <time>2015-09-05T07:30:44Z</time>
      </trkpt>
      <trkpt lat="33.75219" lon="77.63363">
        <ele>5222</ele>
        <time>2015-09-05T07:30:49Z</time>
      </trkpt>
      <trkpt lat="33.75216" lon="77.63361">
        <ele>5221</ele>
        <time>2015-09-05T07:30:54Z</time>
      </trkpt>
      <trkpt lat="33.75211" lon="77.63362">
        <ele>5220.6</ele>
        <time>2015-09-05T07:31:00Z</time>
      </trkpt>
      <trkpt lat="33.75206" lon="77.63365">
        <ele>5220.6</ele>
        <time>2015-09-05T07:31:02Z</time>
      </trkpt>
      <trkpt lat="33.752" lon="77.63353">
        <ele>5219.8</ele>
        <time>2015-09-05T07:31:16Z</time>
      </trkpt>
      <trkpt lat="33.75193" lon="77.63339">
        <ele>5218.8</ele>
        <time>2015-09-05T07:31:30Z</time>
      </trkpt>
      <trkpt lat="33.75193" lon="77.63338">
        <ele>5218.6</ele>
        <time>2015-09-05T07:31:31Z</time>
      </trkpt>
      <trkpt lat="33.75189" lon="77.63338">
        <ele>5217.6</ele>
        <time>2015-09-05T07:31:40Z</time>
      </trkpt>
      <trkpt lat="33.75185" lon="77.63341">
        <ele>5216.6</ele>
        <time>2015-09-05T07:31:46Z</time>
      </trkpt>
      <trkpt lat="33.75181" lon="77.63344">
        <ele>5215.4</ele>
        <time>2015-09-05T07:31:52Z</time>
      </trkpt>
      <trkpt lat="33.7518" lon="77.63346">
        <ele>5215</ele>
        <time>2015-09-05T07:31:54Z</time>
      </trkpt>
      <trkpt lat="33.7518" lon="77.63346">
        <ele>5214.4</ele>
        <time>2015-09-05T07:31:57Z</time>
      </trkpt>
      <trkpt lat="33.75178" lon="77.63351">
        <ele>5213.2</ele>
        <time>2015-09-05T07:32:03Z</time>
      </trkpt>
      <trkpt lat="33.75175" lon="77.63348">
        <ele>5212.2</ele>
        <time>2015-09-05T07:32:08Z</time>
      </trkpt>
      <trkpt lat="33.75172" lon="77.63344">
        <ele>5211</ele>
        <time>2015-09-05T07:32:18Z</time>
      </trkpt>
      <trkpt lat="33.75171" lon="77.63341">
        <ele>5210</ele>
        <time>2015-09-05T07:32:22Z</time>
      </trkpt>
      <trkpt lat="33.75171" lon="77.63333">
        <ele>5209</ele>
        <time>2015-09-05T07:32:28Z</time>
      </trkpt>
      <trkpt lat="33.75167" lon="77.63329">
        <ele>5207.8</ele>
        <time>2015-09-05T07:32:36Z</time>
      </trkpt>
      <trkpt lat="33.75163" lon="77.63332">
        <ele>5206.8</ele>
        <time>2015-09-05T07:32:41Z</time>
      </trkpt>
      <trkpt lat="33.75158" lon="77.63335">
        <ele>5205.6</ele>
        <time>2015-09-05T07:32:46Z</time>
      </trkpt>
      <trkpt lat="33.75152" lon="77.63342">
        <ele>5204.6</ele>
        <time>2015-09-05T07:32:52Z</time>
      </trkpt>
      <trkpt lat="33.75148" lon="77.63349">
        <ele>5203.4</ele>
        <time>2015-09-05T07:32:58Z</time>
      </trkpt>
      <trkpt lat="33.75146" lon="77.63354">
        <ele>5202.4</ele>
        <time>2015-09-05T07:33:03Z</time>
      </trkpt>
      <trkpt lat="33.75145" lon="77.63355">
        <ele>5202.2</ele>
        <time>2015-09-05T07:33:04Z</time>
      </trkpt>
      <trkpt lat="33.7514" lon="77.63359">
        <ele>5201.2</ele>
        <time>2015-09-05T07:33:09Z</time>
      </trkpt>
      <trkpt lat="33.75136" lon="77.63358">
        <ele>5200</ele>
        <time>2015-09-05T07:33:15Z</time>
      </trkpt>
      <trkpt lat="33.75132" lon="77.63357">
        <ele>5198.8</ele>
        <time>2015-09-05T07:33:22Z</time>
      </trkpt>
      <trkpt lat="33.75131" lon="77.63354">
        <ele>5197.8</ele>
        <time>2015-09-05T07:33:27Z</time>
      </trkpt>
      <trkpt lat="33.75129" lon="77.63349">
        <ele>5196.8</ele>
        <time>2015-09-05T07:33:32Z</time>
      </trkpt>
      <trkpt lat="33.75125" lon="77.6335">
        <ele>5195.6</ele>
        <time>2015-09-05T07:33:37Z</time>
      </trkpt>
      <trkpt lat="33.7512" lon="77.63353">
        <ele>5195</ele>
        <time>2015-09-05T07:33:41Z</time>
      </trkpt>
      <trkpt lat="33.75118" lon="77.63354">
        <ele>5194.6</ele>
        <time>2015-09-05T07:33:43Z</time>
      </trkpt>
      <trkpt lat="33.75116" lon="77.63351">
        <ele>5193.8</ele>
        <time>2015-09-05T07:33:50Z</time>
      </trkpt>
      <trkpt lat="33.75115" lon="77.63351">
        <ele>5193.6</ele>
        <time>2015-09-05T07:33:51Z</time>
      </trkpt>
      <trkpt lat="33.75112" lon="77.63349">
        <ele>5192.6</ele>
        <time>2015-09-05T07:33:57Z</time>
      </trkpt>
      <trkpt lat="33.75111" lon="77.63343">
        <ele>5191.4</ele>
        <time>2015-09-05T07:34:02Z</time>
      </trkpt>
      <trkpt lat="33.75106" lon="77.63339">
        <ele>5190.4</ele>
        <time>2015-09-05T07:34:09Z</time>
      </trkpt>
      <trkpt lat="33.75097" lon="77.63343">
        <ele>5189.4</ele>
        <time>2015-09-05T07:34:19Z</time>
      </trkpt>
      <trkpt lat="33.75091" lon="77.63347">
        <ele>5189.2</ele>
        <time>2015-09-05T07:34:25Z</time>
      </trkpt>
      <trkpt lat="33.7509" lon="77.63348">
        <ele>5189.2</ele>
        <time>2015-09-05T07:34:26Z</time>
      </trkpt>
      <trkpt lat="33.75082" lon="77.63349">
        <ele>5188.2</ele>
        <time>2015-09-05T07:34:39Z</time>
      </trkpt>
      <trkpt lat="33.75078" lon="77.63358">
        <ele>5187.2</ele>
        <time>2015-09-05T07:34:48Z</time>
      </trkpt>
      <trkpt lat="33.75076" lon="77.63359">
        <ele>5187</ele>
        <time>2015-09-05T07:34:51Z</time>
      </trkpt>
      <trkpt lat="33.75074" lon="77.63365">
        <ele>5186.8</ele>
        <time>2015-09-05T07:34:54Z</time>
      </trkpt>
      <trkpt lat="33.75071" lon="77.63371">
        <ele>5186.2</ele>
        <time>2015-09-05T07:35:03Z</time>
      </trkpt>
      <trkpt lat="33.75069" lon="77.63375">
        <ele>5185</ele>
        <time>2015-09-05T07:35:08Z</time>
      </trkpt>
      <trkpt lat="33.75067" lon="77.63378">
        <ele>5184</ele>
        <time>2015-09-05T07:35:14Z</time>
      </trkpt>
      <trkpt lat="33.75064" lon="77.63379">
        <ele>5183</ele>
        <time>2015-09-05T07:35:20Z</time>
      </trkpt>
      <trkpt lat="33.75057" lon="77.63375">
        <ele>5182</ele>
        <time>2015-09-05T07:35:38Z</time>
      </trkpt>
      <trkpt lat="33.75053" lon="77.63377">
        <ele>5181</ele>
        <time>2015-09-05T07:35:47Z</time>
      </trkpt>
      <trkpt lat="33.75048" lon="77.63381">
        <ele>5179.8</ele>
        <time>2015-09-05T07:35:58Z</time>
      </trkpt>
      <trkpt lat="33.75044" lon="77.63384">
        <ele>5178.8</ele>
        <time>2015-09-05T07:36:05Z</time>
      </trkpt>
      <trkpt lat="33.75041" lon="77.63385">
        <ele>5177.8</ele>
        <time>2015-09-05T07:36:14Z</time>
      </trkpt>
      <trkpt lat="33.75029" lon="77.634">
        <ele>5177.6</ele>
        <time>2015-09-05T07:36:36Z</time>
      </trkpt>
      <trkpt lat="33.75026" lon="77.63409">
        <ele>5177.6</ele>
        <time>2015-09-05T07:36:41Z</time>
      </trkpt>
      <trkpt lat="33.75025" lon="77.63412">
        <ele>5177.6</ele>
        <time>2015-09-05T07:36:43Z</time>
      </trkpt>
      <trkpt lat="33.75017" lon="77.63421">
        <ele>5176.6</ele>
        <time>2015-09-05T07:37:00Z</time>
      </trkpt>
      <trkpt lat="33.75015" lon="77.63423">
        <ele>5175.6</ele>
        <time>2015-09-05T07:37:07Z</time>
      </trkpt>
      <trkpt lat="33.75008" lon="77.6342">
        <ele>5176.6</ele>
        <time>2015-09-05T07:37:26Z</time>
      </trkpt>
      <trkpt lat="33.74998" lon="77.63434">
        <ele>5175.8</ele>
        <time>2015-09-05T07:37:48Z</time>
      </trkpt>
      <trkpt lat="33.74997" lon="77.63435">
        <ele>5175.6</ele>
        <time>2015-09-05T07:37:49Z</time>
      </trkpt>
      <trkpt lat="33.74992" lon="77.63435">
        <ele>5174.6</ele>
        <time>2015-09-05T07:38:02Z</time>
      </trkpt>
      <trkpt lat="33.74988" lon="77.63435">
        <ele>5173.4</ele>
        <time>2015-09-05T07:38:11Z</time>
      </trkpt>
      <trkpt lat="33.74985" lon="77.63435">
        <ele>5172.4</ele>
        <time>2015-09-05T07:38:16Z</time>
      </trkpt>
      <trkpt lat="33.74983" lon="77.63432">
        <ele>5171.4</ele>
        <time>2015-09-05T07:38:22Z</time>
      </trkpt>
      <trkpt lat="33.74978" lon="77.63438">
        <ele>5170.6</ele>
        <time>2015-09-05T07:38:28Z</time>
      </trkpt>
      <trkpt lat="33.74977" lon="77.63438">
        <ele>5170.4</ele>
        <time>2015-09-05T07:38:29Z</time>
      </trkpt>
      <trkpt lat="33.7497" lon="77.6344">
        <ele>5169.4</ele>
        <time>2015-09-05T07:38:39Z</time>
      </trkpt>
      <trkpt lat="33.74966" lon="77.63444">
        <ele>5168.6</ele>
        <time>2015-09-05T07:38:44Z</time>
      </trkpt>
      <trkpt lat="33.74966" lon="77.63442">
        <ele>5168.4</ele>
        <time>2015-09-05T07:38:45Z</time>
      </trkpt>
      <trkpt lat="33.74965" lon="77.63443">
        <ele>5168.2</ele>
        <time>2015-09-05T07:38:46Z</time>
      </trkpt>
      <trkpt lat="33.74962" lon="77.63451">
        <ele>5167.4</ele>
        <time>2015-09-05T07:38:49Z</time>
      </trkpt>
      <trkpt lat="33.74961" lon="77.63453">
        <ele>5167</ele>
        <time>2015-09-05T07:38:51Z</time>
      </trkpt>
      <trkpt lat="33.74955" lon="77.63458">
        <ele>5166</ele>
        <time>2015-09-05T07:38:59Z</time>
      </trkpt>
      <trkpt lat="33.74945" lon="77.63461">
        <ele>5167.2</ele>
        <time>2015-09-05T07:39:19Z</time>
      </trkpt>
      <trkpt lat="33.74935" lon="77.63447">
        <ele>5166.6</ele>
        <time>2015-09-05T07:39:45Z</time>
      </trkpt>
      <trkpt lat="33.74931" lon="77.63447">
        <ele>5166</ele>
        <time>2015-09-05T07:39:49Z</time>
      </trkpt>
      <trkpt lat="33.74929" lon="77.63448">
        <ele>5165.6</ele>
        <time>2015-09-05T07:39:52Z</time>
      </trkpt>
      <trkpt lat="33.74912" lon="77.63458">
        <ele>5165.4</ele>
        <time>2015-09-05T07:40:11Z</time>
      </trkpt>
      <trkpt lat="33.7491" lon="77.63459">
        <ele>5165.4</ele>
        <time>2015-09-05T07:40:13Z</time>
      </trkpt>
      <trkpt lat="33.74908" lon="77.63461">
        <ele>5165.4</ele>
        <time>2015-09-05T07:40:16Z</time>
      </trkpt>
      <trkpt lat="33.74895" lon="77.6346">
        <ele>5165.8</ele>
        <time>2015-09-05T07:40:42Z</time>
      </trkpt>
      <trkpt lat="33.7489" lon="77.63467">
        <ele>5165.6</ele>
        <time>2015-09-05T07:40:50Z</time>
      </trkpt>
      <trkpt lat="33.74885" lon="77.6347">
        <ele>5165.4</ele>
        <time>2015-09-05T07:40:57Z</time>
      </trkpt>
      <trkpt lat="33.74884" lon="77.6347">
        <ele>5165.4</ele>
        <time>2015-09-05T07:41:00Z</time>
      </trkpt>
      <trkpt lat="33.74882" lon="77.6347">
        <ele>5165.2</ele>
        <time>2015-09-05T07:41:02Z</time>
      </trkpt>
      <trkpt lat="33.74881" lon="77.63473">
        <ele>5165</ele>
        <time>2015-09-05T07:41:04Z</time>
      </trkpt>
      <trkpt lat="33.74881" lon="77.63473">
        <ele>5165</ele>
        <time>2015-09-05T07:41:05Z</time>
      </trkpt>
      <trkpt lat="33.74876" lon="77.63474">
        <ele>5164</ele>
        <time>2015-09-05T07:41:13Z</time>
      </trkpt>
      <trkpt lat="33.74873" lon="77.63481">
        <ele>5162.8</ele>
        <time>2015-09-05T07:41:20Z</time>
      </trkpt>
      <trkpt lat="33.74867" lon="77.63483">
        <ele>5161.8</ele>
        <time>2015-09-05T07:41:30Z</time>
      </trkpt>
      <trkpt lat="33.74861" lon="77.63486">
        <ele>5160.8</ele>
        <time>2015-09-05T07:41:40Z</time>
      </trkpt>
      <trkpt lat="33.74859" lon="77.63481">
        <ele>5159.8</ele>
        <time>2015-09-05T07:41:46Z</time>
      </trkpt>
      <trkpt lat="33.74858" lon="77.63481">
        <ele>5159.8</ele>
        <time>2015-09-05T07:41:47Z</time>
      </trkpt>
      <trkpt lat="33.74856" lon="77.63485">
        <ele>5159.2</ele>
        <time>2015-09-05T07:41:50Z</time>
      </trkpt>
      <trkpt lat="33.74856" lon="77.63486">
        <ele>5159</ele>
        <time>2015-09-05T07:41:52Z</time>
      </trkpt>
      <trkpt lat="33.74855" lon="77.63487">
        <ele>5158.6</ele>
        <time>2015-09-05T07:41:57Z</time>
      </trkpt>
      <trkpt lat="33.74852" lon="77.63493">
        <ele>5157.6</ele>
        <time>2015-09-05T07:42:03Z</time>
      </trkpt>
      <trkpt lat="33.74851" lon="77.63495">
        <ele>5157.6</ele>
        <time>2015-09-05T07:42:04Z</time>
      </trkpt>
      <trkpt lat="33.74854" lon="77.635">
        <ele>5157.4</ele>
        <time>2015-09-05T07:42:07Z</time>
      </trkpt>
      <trkpt lat="33.74856" lon="77.63504">
        <ele>5156.8</ele>
        <time>2015-09-05T07:42:10Z</time>
      </trkpt>
      <trkpt lat="33.74855" lon="77.63505">
        <ele>5156.6</ele>
        <time>2015-09-05T07:42:11Z</time>
      </trkpt>
      <trkpt lat="33.74854" lon="77.63505">
        <ele>5156.2</ele>
        <time>2015-09-05T07:42:13Z</time>
      </trkpt>
      <trkpt lat="33.74856" lon="77.63506">
        <ele>5155.6</ele>
        <time>2015-09-05T07:42:18Z</time>
      </trkpt>
      <trkpt lat="33.74859" lon="77.63509">
        <ele>5154.4</ele>
        <time>2015-09-05T07:42:23Z</time>
      </trkpt>
      <trkpt lat="33.74862" lon="77.63512">
        <ele>5153.2</ele>
        <time>2015-09-05T07:42:30Z</time>
      </trkpt>
      <trkpt lat="33.74862" lon="77.63518">
        <ele>5152.2</ele>
        <time>2015-09-05T07:42:36Z</time>
      </trkpt>
      <trkpt lat="33.74858" lon="77.63532">
        <ele>5151.2</ele>
        <time>2015-09-05T07:42:51Z</time>
      </trkpt>
      <trkpt lat="33.74857" lon="77.63534">
        <ele>5151.2</ele>
        <time>2015-09-05T07:42:53Z</time>
      </trkpt>
      <trkpt lat="33.74851" lon="77.63538">
        <ele>5151.6</ele>
        <time>2015-09-05T07:43:01Z</time>
      </trkpt>
      <trkpt lat="33.74847" lon="77.63542">
        <ele>5152.2</ele>
        <time>2015-09-05T07:43:06Z</time>
      </trkpt>
      <trkpt lat="33.74843" lon="77.63549">
        <ele>5152</ele>
        <time>2015-09-05T07:43:34Z</time>
      </trkpt>
      <trkpt lat="33.74843" lon="77.63552">
        <ele>5151.8</ele>
        <time>2015-09-05T07:43:36Z</time>
      </trkpt>
      <trkpt lat="33.74843" lon="77.63553">
        <ele>5151.6</ele>
        <time>2015-09-05T07:43:38Z</time>
      </trkpt>
      <trkpt lat="33.74841" lon="77.63556">
        <ele>5151.4</ele>
        <time>2015-09-05T07:43:42Z</time>
      </trkpt>
      <trkpt lat="33.7484" lon="77.6356">
        <ele>5151</ele>
        <time>2015-09-05T07:43:46Z</time>
      </trkpt>
      <trkpt lat="33.7484" lon="77.6356">
        <ele>5151</ele>
        <time>2015-09-05T07:43:47Z</time>
      </trkpt>
      <trkpt lat="33.74839" lon="77.63568">
        <ele>5150.4</ele>
        <time>2015-09-05T07:44:41Z</time>
      </trkpt>
      <trkpt lat="33.74838" lon="77.63565">
        <ele>5150.2</ele>
        <time>2015-09-05T07:45:32Z</time>
      </trkpt>
      <trkpt lat="33.7484" lon="77.63564">
        <ele>5150</ele>
        <time>2015-09-05T07:45:35Z</time>
      </trkpt>
      <trkpt lat="33.74842" lon="77.63575">
        <ele>5149</ele>
        <time>2015-09-05T07:46:40Z</time>
      </trkpt>
      <trkpt lat="33.74842" lon="77.63575">
        <ele>5149</ele>
        <time>2015-09-05T07:46:41Z</time>
      </trkpt>
      <trkpt lat="33.7484" lon="77.63576">
        <ele>5149</ele>
        <time>2015-09-05T07:46:42Z</time>
      </trkpt>
      <trkpt lat="33.74834" lon="77.63576">
        <ele>5149.6</ele>
        <time>2015-09-05T07:46:49Z</time>
      </trkpt>
      <trkpt lat="33.74838" lon="77.63569">
        <ele>5149</ele>
        <time>2015-09-05T07:47:54Z</time>
      </trkpt>
      <trkpt lat="33.74831" lon="77.63573">
        <ele>5149</ele>
        <time>2015-09-05T07:48:09Z</time>
      </trkpt>
      <trkpt lat="33.74837" lon="77.63568">
        <ele>5149</ele>
        <time>2015-09-05T07:48:52Z</time>
      </trkpt>
      <trkpt lat="33.74839" lon="77.63574">
        <ele>5149.4</ele>
        <time>2015-09-05T07:49:15Z</time>
      </trkpt>
      <trkpt lat="33.74839" lon="77.63574">
        <ele>5149.2</ele>
        <time>2015-09-05T07:49:17Z</time>
      </trkpt>
      <trkpt lat="33.74844" lon="77.63571">
        <ele>5148.4</ele>
        <time>2015-09-05T07:49:45Z</time>
      </trkpt>
      <trkpt lat="33.74844" lon="77.63573">
        <ele>5148.4</ele>
        <time>2015-09-05T07:49:48Z</time>
      </trkpt>
      <trkpt lat="33.74838" lon="77.63571">
        <ele>5149.2</ele>
        <time>2015-09-05T07:50:19Z</time>
      </trkpt>
      <trkpt lat="33.74841" lon="77.63571">
        <ele>5148.8</ele>
        <time>2015-09-05T07:50:22Z</time>
      </trkpt>
      <trkpt lat="33.74842" lon="77.63572">
        <ele>5148.8</ele>
        <time>2015-09-05T07:50:25Z</time>
      </trkpt>
      <trkpt lat="33.74844" lon="77.63576">
        <ele>5149.2</ele>
        <time>2015-09-05T07:50:38Z</time>
      </trkpt>
      <trkpt lat="33.74848" lon="77.63579">
        <ele>5148.8</ele>
        <time>2015-09-05T07:50:46Z</time>
      </trkpt>
      <trkpt lat="33.74835" lon="77.63571">
        <ele>5149.2</ele>
        <time>2015-09-05T07:51:28Z</time>
      </trkpt>
      <trkpt lat="33.74836" lon="77.6357">
        <ele>5148.8</ele>
        <time>2015-09-05T07:51:39Z</time>
      </trkpt>
      <trkpt lat="33.74839" lon="77.63574">
        <ele>5148.6</ele>
        <time>2015-09-05T07:52:09Z</time>
      </trkpt>
      <trkpt lat="33.74838" lon="77.63572">
        <ele>5148.8</ele>
        <time>2015-09-05T07:52:21Z</time>
      </trkpt>
      <trkpt lat="33.74837" lon="77.63573">
        <ele>5148</ele>
        <time>2015-09-05T07:52:43Z</time>
      </trkpt>
      <trkpt lat="33.74839" lon="77.63571">
        <ele>5148.8</ele>
        <time>2015-09-05T07:53:21Z</time>
      </trkpt>
      <trkpt lat="33.7484" lon="77.63572">
        <ele>5148.8</ele>
        <time>2015-09-05T07:54:12Z</time>
      </trkpt>
      <trkpt lat="33.7484" lon="77.63573">
        <ele>5149</ele>
        <time>2015-09-05T07:54:15Z</time>
      </trkpt>
      <trkpt lat="33.74837" lon="77.63573">
        <ele>5149.4</ele>
        <time>2015-09-05T07:54:39Z</time>
      </trkpt>
      <trkpt lat="33.74839" lon="77.63571">
        <ele>5149.8</ele>
        <time>2015-09-05T07:55:23Z</time>
      </trkpt>
      <trkpt lat="33.74839" lon="77.6357">
        <ele>5149.4</ele>
        <time>2015-09-05T07:56:10Z</time>
      </trkpt>
      <trkpt lat="33.74837" lon="77.63571">
        <ele>5149.8</ele>
        <time>2015-09-05T07:57:36Z</time>
      </trkpt>
      <trkpt lat="33.74837" lon="77.6357">
        <ele>5150</ele>
        <time>2015-09-05T07:58:12Z</time>
      </trkpt>
      <trkpt lat="33.74838" lon="77.63572">
        <ele>5149</ele>
        <time>2015-09-05T07:58:57Z</time>
      </trkpt>
      <trkpt lat="33.74839" lon="77.6357">
        <ele>5148.6</ele>
        <time>2015-09-05T07:59:20Z</time>
      </trkpt>
      <trkpt lat="33.74838" lon="77.63571">
        <ele>5149.2</ele>
        <time>2015-09-05T07:59:51Z</time>
      </trkpt>
      <trkpt lat="33.74839" lon="77.6357">
        <ele>5150</ele>
        <time>2015-09-05T08:00:17Z</time>
      </trkpt>
      <trkpt lat="33.74839" lon="77.63571">
        <ele>5150.2</ele>
        <time>2015-09-05T08:03:10Z</time>
      </trkpt>
      <trkpt lat="33.74839" lon="77.6357">
        <ele>5150.6</ele>
        <time>2015-09-05T08:04:15Z</time>
      </trkpt>
      <trkpt lat="33.74839" lon="77.63567">
        <ele>5150.4</ele>
        <time>2015-09-05T08:06:03Z</time>
      </trkpt>
      <trkpt lat="33.74839" lon="77.63568">
        <ele>5151</ele>
        <time>2015-09-05T08:06:24Z</time>
      </trkpt>
      <trkpt lat="33.74841" lon="77.63566">
        <ele>5150.6</ele>
        <time>2015-09-05T08:12:02Z</time>
      </trkpt>
      <trkpt lat="33.7484" lon="77.6357">
        <ele>5150.8</ele>
        <time>2015-09-05T08:14:58Z</time>
      </trkpt>
      <trkpt lat="33.74839" lon="77.63572">
        <ele>5152</ele>
        <time>2015-09-05T08:15:37Z</time>
      </trkpt>
      <trkpt lat="33.74838" lon="77.63571">
        <ele>5151</ele>
        <time>2015-09-05T08:15:54Z</time>
      </trkpt>
      <trkpt lat="33.74839" lon="77.63569">
        <ele>5152.2</ele>
        <time>2015-09-05T08:16:29Z</time>
      </trkpt>
      <trkpt lat="33.74828" lon="77.63556">
        <ele>5153</ele>
        <time>2015-09-05T08:17:13Z</time>
      </trkpt>
      <trkpt lat="33.74827" lon="77.63556">
        <ele>5153</ele>
        <time>2015-09-05T08:17:14Z</time>
      </trkpt>
      <trkpt lat="33.74825" lon="77.63557">
        <ele>5153.4</ele>
        <time>2015-09-05T08:17:37Z</time>
      </trkpt>
      <trkpt lat="33.74831" lon="77.63545">
        <ele>5154.4</ele>
        <time>2015-09-05T08:18:20Z</time>
      </trkpt>
      <trkpt lat="33.74836" lon="77.63543">
        <ele>5155.6</ele>
        <time>2015-09-05T08:18:29Z</time>
      </trkpt>
      <trkpt lat="33.7484" lon="77.63537">
        <ele>5155.8</ele>
        <time>2015-09-05T08:18:43Z</time>
      </trkpt>
      <trkpt lat="33.74839" lon="77.63539">
        <ele>5155.8</ele>
        <time>2015-09-05T08:18:46Z</time>
      </trkpt>
      <trkpt lat="33.74853" lon="77.63541">
        <ele>5155.2</ele>
        <time>2015-09-05T08:19:08Z</time>
      </trkpt>
      <trkpt lat="33.7486" lon="77.63543">
        <ele>5154.4</ele>
        <time>2015-09-05T08:19:20Z</time>
      </trkpt>
      <trkpt lat="33.74859" lon="77.63544">
        <ele>5153.4</ele>
        <time>2015-09-05T08:19:23Z</time>
      </trkpt>
      <trkpt lat="33.74859" lon="77.63545">
        <ele>5153.2</ele>
        <time>2015-09-05T08:19:24Z</time>
      </trkpt>
      <trkpt lat="33.74854" lon="77.63552">
        <ele>5153.8</ele>
        <time>2015-09-05T08:19:36Z</time>
      </trkpt>
      <trkpt lat="33.74852" lon="77.63549">
        <ele>5153.8</ele>
        <time>2015-09-05T08:19:41Z</time>
      </trkpt>
      <trkpt lat="33.74847" lon="77.6355">
        <ele>5153.4</ele>
        <time>2015-09-05T08:19:49Z</time>
      </trkpt>
      <trkpt lat="33.74843" lon="77.63557">
        <ele>5153.2</ele>
        <time>2015-09-05T08:19:52Z</time>
      </trkpt>
      <trkpt lat="33.74842" lon="77.6356">
        <ele>5153</ele>
        <time>2015-09-05T08:19:54Z</time>
      </trkpt>
      <trkpt lat="33.74839" lon="77.63567">
        <ele>5152</ele>
        <time>2015-09-05T08:20:06Z</time>
      </trkpt>
      <trkpt lat="33.74839" lon="77.63568">
        <ele>5150.8</ele>
        <time>2015-09-05T08:20:09Z</time>
      </trkpt>
      <trkpt lat="33.74839" lon="77.63567">
        <ele>5151</ele>
        <time>2015-09-05T08:20:25Z</time>
      </trkpt>
      <trkpt lat="33.74839" lon="77.63566">
        <ele>5151.4</ele>
        <time>2015-09-05T08:20:38Z</time>
      </trkpt>
      <trkpt lat="33.74841" lon="77.63564">
        <ele>5151.2</ele>
        <time>2015-09-05T08:21:35Z</time>
      </trkpt>
      <trkpt lat="33.74835" lon="77.63564">
        <ele>5151.2</ele>
        <time>2015-09-05T08:21:39Z</time>
      </trkpt>
      <trkpt lat="33.74831" lon="77.6357">
        <ele>5150.6</ele>
        <time>2015-09-05T08:22:24Z</time>
      </trkpt>
      <trkpt lat="33.74833" lon="77.6357">
        <ele>5150.6</ele>
        <time>2015-09-05T08:22:28Z</time>
      </trkpt>
      <trkpt lat="33.74829" lon="77.63576">
        <ele>5149.6</ele>
        <time>2015-09-05T08:22:38Z</time>
      </trkpt>
      <trkpt lat="33.74827" lon="77.63579">
        <ele>5148.6</ele>
        <time>2015-09-05T08:22:43Z</time>
      </trkpt>
      <trkpt lat="33.74823" lon="77.6358">
        <ele>5148</ele>
        <time>2015-09-05T08:22:50Z</time>
      </trkpt>
      <trkpt lat="33.7482" lon="77.63582">
        <ele>5148</ele>
        <time>2015-09-05T08:22:54Z</time>
      </trkpt>
      <trkpt lat="33.74817" lon="77.63583">
        <ele>5147.6</ele>
        <time>2015-09-05T08:22:58Z</time>
      </trkpt>
      <trkpt lat="33.74817" lon="77.63585">
        <ele>5147</ele>
        <time>2015-09-05T08:22:59Z</time>
      </trkpt>
      <trkpt lat="33.74817" lon="77.63586">
        <ele>5146.4</ele>
        <time>2015-09-05T08:23:00Z</time>
      </trkpt>
      <trkpt lat="33.74816" lon="77.63587">
        <ele>5145.4</ele>
        <time>2015-09-05T08:23:02Z</time>
      </trkpt>
      <trkpt lat="33.74816" lon="77.63588">
        <ele>5145.2</ele>
        <time>2015-09-05T08:23:03Z</time>
      </trkpt>
      <trkpt lat="33.74812" lon="77.63585">
        <ele>5144.6</ele>
        <time>2015-09-05T08:23:08Z</time>
      </trkpt>
      <trkpt lat="33.74812" lon="77.63584">
        <ele>5143.8</ele>
        <time>2015-09-05T08:23:10Z</time>
      </trkpt>
      <trkpt lat="33.74811" lon="77.63584">
        <ele>5142.6</ele>
        <time>2015-09-05T08:23:13Z</time>
      </trkpt>
      <trkpt lat="33.74809" lon="77.63586">
        <ele>5141.4</ele>
        <time>2015-09-05T08:23:17Z</time>
      </trkpt>
      <trkpt lat="33.74804" lon="77.63591">
        <ele>5140.6</ele>
        <time>2015-09-05T08:23:22Z</time>
      </trkpt>
      <trkpt lat="33.74803" lon="77.63591">
        <ele>5140.4</ele>
        <time>2015-09-05T08:23:24Z</time>
      </trkpt>
      <trkpt lat="33.748" lon="77.63593">
        <ele>5139.4</ele>
        <time>2015-09-05T08:23:29Z</time>
      </trkpt>
      <trkpt lat="33.74797" lon="77.63595">
        <ele>5138.8</ele>
        <time>2015-09-05T08:23:32Z</time>
      </trkpt>
      <trkpt lat="33.74795" lon="77.63597">
        <ele>5138.2</ele>
        <time>2015-09-05T08:23:35Z</time>
      </trkpt>
      <trkpt lat="33.74794" lon="77.63598">
        <ele>5138</ele>
        <time>2015-09-05T08:23:36Z</time>
      </trkpt>
      <trkpt lat="33.74792" lon="77.63601">
        <ele>5136.8</ele>
        <time>2015-09-05T08:23:40Z</time>
      </trkpt>
      <trkpt lat="33.74789" lon="77.63604">
        <ele>5135.8</ele>
        <time>2015-09-05T08:23:45Z</time>
      </trkpt>
      <trkpt lat="33.74788" lon="77.63604">
        <ele>5135.6</ele>
        <time>2015-09-05T08:23:46Z</time>
      </trkpt>
      <trkpt lat="33.74787" lon="77.63606">
        <ele>5134.6</ele>
        <time>2015-09-05T08:23:49Z</time>
      </trkpt>
      <trkpt lat="33.74783" lon="77.63609">
        <ele>5134</ele>
        <time>2015-09-05T08:23:54Z</time>
      </trkpt>
      <trkpt lat="33.74782" lon="77.63611">
        <ele>5133.6</ele>
        <time>2015-09-05T08:23:56Z</time>
      </trkpt>
      <trkpt lat="33.74781" lon="77.63614">
        <ele>5133</ele>
        <time>2015-09-05T08:23:59Z</time>
      </trkpt>
      <trkpt lat="33.7478" lon="77.63616">
        <ele>5132.4</ele>
        <time>2015-09-05T08:24:01Z</time>
      </trkpt>
      <trkpt lat="33.74778" lon="77.63616">
        <ele>5131.4</ele>
        <time>2015-09-05T08:24:07Z</time>
      </trkpt>
      <trkpt lat="33.74776" lon="77.63622">
        <ele>5130.2</ele>
        <time>2015-09-05T08:24:12Z</time>
      </trkpt>
      <trkpt lat="33.74775" lon="77.63625">
        <ele>5129.8</ele>
        <time>2015-09-05T08:24:15Z</time>
      </trkpt>
      <trkpt lat="33.74768" lon="77.63624">
        <ele>5129.2</ele>
        <time>2015-09-05T08:24:22Z</time>
      </trkpt>
      <trkpt lat="33.74766" lon="77.63629">
        <ele>5128</ele>
        <time>2015-09-05T08:24:28Z</time>
      </trkpt>
      <trkpt lat="33.74766" lon="77.63635">
        <ele>5127</ele>
        <time>2015-09-05T08:24:34Z</time>
      </trkpt>
      <trkpt lat="33.74761" lon="77.63637">
        <ele>5126.2</ele>
        <time>2015-09-05T08:24:42Z</time>
      </trkpt>
      <trkpt lat="33.74761" lon="77.63637">
        <ele>5126</ele>
        <time>2015-09-05T08:24:43Z</time>
      </trkpt>
      <trkpt lat="33.7476" lon="77.63641">
        <ele>5124.8</ele>
        <time>2015-09-05T08:24:48Z</time>
      </trkpt>
      <trkpt lat="33.74761" lon="77.63646">
        <ele>5124</ele>
        <time>2015-09-05T08:24:52Z</time>
      </trkpt>
      <trkpt lat="33.74761" lon="77.63647">
        <ele>5123.6</ele>
        <time>2015-09-05T08:24:53Z</time>
      </trkpt>
      <trkpt lat="33.7476" lon="77.63648">
        <ele>5123.4</ele>
        <time>2015-09-05T08:24:54Z</time>
      </trkpt>
      <trkpt lat="33.74763" lon="77.63654">
        <ele>5122.6</ele>
        <time>2015-09-05T08:25:00Z</time>
      </trkpt>
      <trkpt lat="33.74766" lon="77.63661">
        <ele>5121.6</ele>
        <time>2015-09-05T08:25:07Z</time>
      </trkpt>
      <trkpt lat="33.74766" lon="77.63667">
        <ele>5121</ele>
        <time>2015-09-05T08:25:11Z</time>
      </trkpt>
      <trkpt lat="33.74766" lon="77.63669">
        <ele>5120.6</ele>
        <time>2015-09-05T08:25:13Z</time>
      </trkpt>
      <trkpt lat="33.74765" lon="77.6367">
        <ele>5120.2</ele>
        <time>2015-09-05T08:25:15Z</time>
      </trkpt>
      <trkpt lat="33.74762" lon="77.63674">
        <ele>5119.6</ele>
        <time>2015-09-05T08:25:19Z</time>
      </trkpt>
      <trkpt lat="33.74763" lon="77.63675">
        <ele>5119.4</ele>
        <time>2015-09-05T08:25:20Z</time>
      </trkpt>
      <trkpt lat="33.74752" lon="77.63669">
        <ele>5118.6</ele>
        <time>2015-09-05T08:25:39Z</time>
      </trkpt>
      <trkpt lat="33.74752" lon="77.63675">
        <ele>5117.4</ele>
        <time>2015-09-05T08:25:45Z</time>
      </trkpt>
      <trkpt lat="33.74752" lon="77.63678">
        <ele>5117</ele>
        <time>2015-09-05T08:25:48Z</time>
      </trkpt>
      <trkpt lat="33.74747" lon="77.63677">
        <ele>5116.2</ele>
        <time>2015-09-05T08:25:55Z</time>
      </trkpt>
      <trkpt lat="33.74745" lon="77.63675">
        <ele>5115.2</ele>
        <time>2015-09-05T08:26:00Z</time>
      </trkpt>
      <trkpt lat="33.74744" lon="77.63673">
        <ele>5114</ele>
        <time>2015-09-05T08:26:06Z</time>
      </trkpt>
      <trkpt lat="33.74741" lon="77.63676">
        <ele>5113</ele>
        <time>2015-09-05T08:26:10Z</time>
      </trkpt>
      <trkpt lat="33.74741" lon="77.63677">
        <ele>5112.8</ele>
        <time>2015-09-05T08:26:11Z</time>
      </trkpt>
      <trkpt lat="33.7474" lon="77.63679">
        <ele>5112.2</ele>
        <time>2015-09-05T08:26:13Z</time>
      </trkpt>
      <trkpt lat="33.74738" lon="77.63681">
        <ele>5111.8</ele>
        <time>2015-09-05T08:26:16Z</time>
      </trkpt>
      <trkpt lat="33.74735" lon="77.63684">
        <ele>5111</ele>
        <time>2015-09-05T08:26:20Z</time>
      </trkpt>
      <trkpt lat="33.74733" lon="77.63685">
        <ele>5110.6</ele>
        <time>2015-09-05T08:26:22Z</time>
      </trkpt>
      <trkpt lat="33.74731" lon="77.63685">
        <ele>5109.4</ele>
        <time>2015-09-05T08:26:27Z</time>
      </trkpt>
      <trkpt lat="33.74728" lon="77.63685">
        <ele>5108.2</ele>
        <time>2015-09-05T08:26:34Z</time>
      </trkpt>
      <trkpt lat="33.74724" lon="77.63686">
        <ele>5107.2</ele>
        <time>2015-09-05T08:26:40Z</time>
      </trkpt>
      <trkpt lat="33.7472" lon="77.63688">
        <ele>5106</ele>
        <time>2015-09-05T08:26:48Z</time>
      </trkpt>
      <trkpt lat="33.74719" lon="77.63691">
        <ele>5105</ele>
        <time>2015-09-05T08:26:54Z</time>
      </trkpt>
      <trkpt lat="33.74716" lon="77.63694">
        <ele>5104.4</ele>
        <time>2015-09-05T08:26:57Z</time>
      </trkpt>
      <trkpt lat="33.74715" lon="77.63696">
        <ele>5103.8</ele>
        <time>2015-09-05T08:26:59Z</time>
      </trkpt>
      <trkpt lat="33.74715" lon="77.63696">
        <ele>5103.8</ele>
        <time>2015-09-05T08:27:00Z</time>
      </trkpt>
      <trkpt lat="33.74712" lon="77.63699">
        <ele>5102.8</ele>
        <time>2015-09-05T08:27:05Z</time>
      </trkpt>
      <trkpt lat="33.7471" lon="77.63702">
        <ele>5101.8</ele>
        <time>2015-09-05T08:27:09Z</time>
      </trkpt>
      <trkpt lat="33.74706" lon="77.63705">
        <ele>5100.6</ele>
        <time>2015-09-05T08:27:15Z</time>
      </trkpt>
      <trkpt lat="33.74701" lon="77.63709">
        <ele>5099.6</ele>
        <time>2015-09-05T08:27:24Z</time>
      </trkpt>
      <trkpt lat="33.74696" lon="77.63709">
        <ele>5098.6</ele>
        <time>2015-09-05T08:27:31Z</time>
      </trkpt>
      <trkpt lat="33.74693" lon="77.63713">
        <ele>5097.4</ele>
        <time>2015-09-05T08:27:37Z</time>
      </trkpt>
      <trkpt lat="33.74689" lon="77.63713">
        <ele>5096.2</ele>
        <time>2015-09-05T08:27:44Z</time>
      </trkpt>
      <trkpt lat="33.74684" lon="77.63716">
        <ele>5095.2</ele>
        <time>2015-09-05T08:27:50Z</time>
      </trkpt>
      <trkpt lat="33.74679" lon="77.63721">
        <ele>5094</ele>
        <time>2015-09-05T08:27:59Z</time>
      </trkpt>
      <trkpt lat="33.74675" lon="77.63723">
        <ele>5092.8</ele>
        <time>2015-09-05T08:28:07Z</time>
      </trkpt>
      <trkpt lat="33.74673" lon="77.63724">
        <ele>5092.4</ele>
        <time>2015-09-05T08:28:10Z</time>
      </trkpt>
      <trkpt lat="33.74673" lon="77.63726">
        <ele>5091.6</ele>
        <time>2015-09-05T08:28:13Z</time>
      </trkpt>
      <trkpt lat="33.7467" lon="77.63728">
        <ele>5090.8</ele>
        <time>2015-09-05T08:28:17Z</time>
      </trkpt>
      <trkpt lat="33.74668" lon="77.63728">
        <ele>5090.6</ele>
        <time>2015-09-05T08:28:18Z</time>
      </trkpt>
      <trkpt lat="33.74666" lon="77.63732">
        <ele>5090</ele>
        <time>2015-09-05T08:28:22Z</time>
      </trkpt>
      <trkpt lat="33.74666" lon="77.63733">
        <ele>5089.6</ele>
        <time>2015-09-05T08:28:24Z</time>
      </trkpt>
      <trkpt lat="33.74664" lon="77.63737">
        <ele>5088.6</ele>
        <time>2015-09-05T08:28:30Z</time>
      </trkpt>
      <trkpt lat="33.74662" lon="77.63741">
        <ele>5087.4</ele>
        <time>2015-09-05T08:28:35Z</time>
      </trkpt>
      <trkpt lat="33.74661" lon="77.63744">
        <ele>5086.2</ele>
        <time>2015-09-05T08:28:41Z</time>
      </trkpt>
      <trkpt lat="33.74659" lon="77.63746">
        <ele>5085.2</ele>
        <time>2015-09-05T08:28:45Z</time>
      </trkpt>
      <trkpt lat="33.74658" lon="77.63748">
        <ele>5084</ele>
        <time>2015-09-05T08:28:49Z</time>
      </trkpt>
      <trkpt lat="33.74655" lon="77.63751">
        <ele>5083.4</ele>
        <time>2015-09-05T08:28:53Z</time>
      </trkpt>
      <trkpt lat="33.74653" lon="77.63752">
        <ele>5083</ele>
        <time>2015-09-05T08:28:55Z</time>
      </trkpt>
      <trkpt lat="33.74652" lon="77.63756">
        <ele>5082</ele>
        <time>2015-09-05T08:28:59Z</time>
      </trkpt>
      <trkpt lat="33.74651" lon="77.63761">
        <ele>5081</ele>
        <time>2015-09-05T08:29:04Z</time>
      </trkpt>
      <trkpt lat="33.7465" lon="77.63763">
        <ele>5079.8</ele>
        <time>2015-09-05T08:29:08Z</time>
      </trkpt>
      <trkpt lat="33.74645" lon="77.63766">
        <ele>5078.8</ele>
        <time>2015-09-05T08:29:17Z</time>
      </trkpt>
      <trkpt lat="33.74642" lon="77.63768">
        <ele>5077.6</ele>
        <time>2015-09-05T08:29:23Z</time>
      </trkpt>
      <trkpt lat="33.74639" lon="77.6377">
        <ele>5076.6</ele>
        <time>2015-09-05T08:29:29Z</time>
      </trkpt>
      <trkpt lat="33.74635" lon="77.63775">
        <ele>5075.4</ele>
        <time>2015-09-05T08:29:35Z</time>
      </trkpt>
      <trkpt lat="33.74632" lon="77.63778">
        <ele>5074.4</ele>
        <time>2015-09-05T08:29:40Z</time>
      </trkpt>
      <trkpt lat="33.74629" lon="77.63782">
        <ele>5073.2</ele>
        <time>2015-09-05T08:29:46Z</time>
      </trkpt>
      <trkpt lat="33.74625" lon="77.63786">
        <ele>5072</ele>
        <time>2015-09-05T08:29:54Z</time>
      </trkpt>
      <trkpt lat="33.74624" lon="77.63789">
        <ele>5071.6</ele>
        <time>2015-09-05T08:29:56Z</time>
      </trkpt>
      <trkpt lat="33.74623" lon="77.63792">
        <ele>5071</ele>
        <time>2015-09-05T08:29:59Z</time>
      </trkpt>
      <trkpt lat="33.7462" lon="77.63796">
        <ele>5070</ele>
        <time>2015-09-05T08:30:04Z</time>
      </trkpt>
      <trkpt lat="33.74618" lon="77.63796">
        <ele>5069.8</ele>
        <time>2015-09-05T08:30:05Z</time>
      </trkpt>
      <trkpt lat="33.74615" lon="77.63799">
        <ele>5068.8</ele>
        <time>2015-09-05T08:30:09Z</time>
      </trkpt>
      <trkpt lat="33.74611" lon="77.63805">
        <ele>5067.8</ele>
        <time>2015-09-05T08:30:18Z</time>
      </trkpt>
      <trkpt lat="33.74609" lon="77.6381">
        <ele>5066.6</ele>
        <time>2015-09-05T08:30:26Z</time>
      </trkpt>
      <trkpt lat="33.74604" lon="77.63815">
        <ele>5065.6</ele>
        <time>2015-09-05T08:30:35Z</time>
      </trkpt>
      <trkpt lat="33.74604" lon="77.63818">
        <ele>5064.4</ele>
        <time>2015-09-05T08:30:40Z</time>
      </trkpt>
      <trkpt lat="33.74604" lon="77.63821">
        <ele>5064</ele>
        <time>2015-09-05T08:30:43Z</time>
      </trkpt>
      <trkpt lat="33.74599" lon="77.63826">
        <ele>5063.2</ele>
        <time>2015-09-05T08:30:49Z</time>
      </trkpt>
      <trkpt lat="33.74599" lon="77.63827">
        <ele>5063</ele>
        <time>2015-09-05T08:30:50Z</time>
      </trkpt>
      <trkpt lat="33.74598" lon="77.63829">
        <ele>5062.6</ele>
        <time>2015-09-05T08:30:52Z</time>
      </trkpt>
      <trkpt lat="33.74593" lon="77.63833">
        <ele>5062</ele>
        <time>2015-09-05T08:30:59Z</time>
      </trkpt>
      <trkpt lat="33.74591" lon="77.63838">
        <ele>5061</ele>
        <time>2015-09-05T08:31:05Z</time>
      </trkpt>
      <trkpt lat="33.74588" lon="77.63843">
        <ele>5060</ele>
        <time>2015-09-05T08:31:12Z</time>
      </trkpt>
      <trkpt lat="33.74583" lon="77.63852">
        <ele>5059</ele>
        <time>2015-09-05T08:31:20Z</time>
      </trkpt>
      <trkpt lat="33.74582" lon="77.63856">
        <ele>5058.6</ele>
        <time>2015-09-05T08:31:25Z</time>
      </trkpt>
      <trkpt lat="33.74581" lon="77.6386">
        <ele>5058.6</ele>
        <time>2015-09-05T08:31:27Z</time>
      </trkpt>
      <trkpt lat="33.74583" lon="77.63866">
        <ele>5057.8</ele>
        <time>2015-09-05T08:31:31Z</time>
      </trkpt>
      <trkpt lat="33.74585" lon="77.63869">
        <ele>5057.2</ele>
        <time>2015-09-05T08:31:34Z</time>
      </trkpt>
      <trkpt lat="33.74585" lon="77.63873">
        <ele>5057.4</ele>
        <time>2015-09-05T08:31:39Z</time>
      </trkpt>
      <trkpt lat="33.74586" lon="77.6388">
        <ele>5057.2</ele>
        <time>2015-09-05T08:31:42Z</time>
      </trkpt>
      <trkpt lat="33.74585" lon="77.63886">
        <ele>5056.8</ele>
        <time>2015-09-05T08:31:47Z</time>
      </trkpt>
      <trkpt lat="33.74585" lon="77.63886">
        <ele>5056.8</ele>
        <time>2015-09-05T08:31:48Z</time>
      </trkpt>
      <trkpt lat="33.74588" lon="77.63883">
        <ele>5058</ele>
        <time>2015-09-05T08:32:14Z</time>
      </trkpt>
      <trkpt lat="33.7459" lon="77.63884">
        <ele>5057.6</ele>
        <time>2015-09-05T08:32:44Z</time>
      </trkpt>
      <trkpt lat="33.74588" lon="77.63886">
        <ele>5058</ele>
        <time>2015-09-05T08:32:54Z</time>
      </trkpt>
      <trkpt lat="33.74587" lon="77.63884">
        <ele>5057.2</ele>
        <time>2015-09-05T08:32:56Z</time>
      </trkpt>
      <trkpt lat="33.74582" lon="77.63885">
        <ele>5056.8</ele>
        <time>2015-09-05T08:33:00Z</time>
      </trkpt>
      <trkpt lat="33.74578" lon="77.63886">
        <ele>5055.6</ele>
        <time>2015-09-05T08:33:07Z</time>
      </trkpt>
      <trkpt lat="33.74576" lon="77.63887">
        <ele>5054.2</ele>
        <time>2015-09-05T08:33:10Z</time>
      </trkpt>
      <trkpt lat="33.74572" lon="77.63888">
        <ele>5053.4</ele>
        <time>2015-09-05T08:33:13Z</time>
      </trkpt>
      <trkpt lat="33.7457" lon="77.6389">
        <ele>5053</ele>
        <time>2015-09-05T08:33:15Z</time>
      </trkpt>
      <trkpt lat="33.74567" lon="77.63897">
        <ele>5052</ele>
        <time>2015-09-05T08:33:21Z</time>
      </trkpt>
      <trkpt lat="33.74562" lon="77.63899">
        <ele>5051.2</ele>
        <time>2015-09-05T08:33:27Z</time>
      </trkpt>
      <trkpt lat="33.74559" lon="77.63901">
        <ele>5050.8</ele>
        <time>2015-09-05T08:33:31Z</time>
      </trkpt>
      <trkpt lat="33.74555" lon="77.63906">
        <ele>5050</ele>
        <time>2015-09-05T08:33:37Z</time>
      </trkpt>
      <trkpt lat="33.74554" lon="77.63909">
        <ele>5049.8</ele>
        <time>2015-09-05T08:33:38Z</time>
      </trkpt>
      <trkpt lat="33.74552" lon="77.63913">
        <ele>5049.4</ele>
        <time>2015-09-05T08:33:42Z</time>
      </trkpt>
      <trkpt lat="33.74548" lon="77.6392">
        <ele>5048.6</ele>
        <time>2015-09-05T08:33:50Z</time>
      </trkpt>
      <trkpt lat="33.74541" lon="77.63926">
        <ele>5047.6</ele>
        <time>2015-09-05T08:34:03Z</time>
      </trkpt>
      <trkpt lat="33.74536" lon="77.63927">
        <ele>5046.2</ele>
        <time>2015-09-05T08:34:08Z</time>
      </trkpt>
      <trkpt lat="33.74535" lon="77.63928">
        <ele>5045.8</ele>
        <time>2015-09-05T08:34:10Z</time>
      </trkpt>
      <trkpt lat="33.74535" lon="77.63926">
        <ele>5045.2</ele>
        <time>2015-09-05T08:34:14Z</time>
      </trkpt>
      <trkpt lat="33.74533" lon="77.63929">
        <ele>5044.6</ele>
        <time>2015-09-05T08:34:17Z</time>
      </trkpt>
      <trkpt lat="33.74532" lon="77.63931">
        <ele>5044</ele>
        <time>2015-09-05T08:34:19Z</time>
      </trkpt>
      <trkpt lat="33.74532" lon="77.63933">
        <ele>5043.6</ele>
        <time>2015-09-05T08:34:21Z</time>
      </trkpt>
      <trkpt lat="33.74529" lon="77.63935">
        <ele>5042.8</ele>
        <time>2015-09-05T08:34:24Z</time>
      </trkpt>
      <trkpt lat="33.74527" lon="77.63943">
        <ele>5042</ele>
        <time>2015-09-05T08:34:29Z</time>
      </trkpt>
      <trkpt lat="33.74527" lon="77.63943">
        <ele>5041.8</ele>
        <time>2015-09-05T08:34:30Z</time>
      </trkpt>
      <trkpt lat="33.74529" lon="77.63948">
        <ele>5040.6</ele>
        <time>2015-09-05T08:34:36Z</time>
      </trkpt>
      <trkpt lat="33.7453" lon="77.63952">
        <ele>5039.4</ele>
        <time>2015-09-05T08:34:42Z</time>
      </trkpt>
      <trkpt lat="33.74527" lon="77.63956">
        <ele>5038.4</ele>
        <time>2015-09-05T08:34:51Z</time>
      </trkpt>
      <trkpt lat="33.74527" lon="77.6396">
        <ele>5037.4</ele>
        <time>2015-09-05T08:34:56Z</time>
      </trkpt>
      <trkpt lat="33.74526" lon="77.63964">
        <ele>5036.4</ele>
        <time>2015-09-05T08:35:01Z</time>
      </trkpt>
      <trkpt lat="33.74524" lon="77.63969">
        <ele>5035.2</ele>
        <time>2015-09-05T08:35:11Z</time>
      </trkpt>
      <trkpt lat="33.74523" lon="77.63975">
        <ele>5034.2</ele>
        <time>2015-09-05T08:35:18Z</time>
      </trkpt>
      <trkpt lat="33.74521" lon="77.63983">
        <ele>5033.2</ele>
        <time>2015-09-05T08:35:25Z</time>
      </trkpt>
      <trkpt lat="33.7452" lon="77.63988">
        <ele>5032</ele>
        <time>2015-09-05T08:35:31Z</time>
      </trkpt>
      <trkpt lat="33.7452" lon="77.63995">
        <ele>5030.8</ele>
        <time>2015-09-05T08:35:39Z</time>
      </trkpt>
      <trkpt lat="33.74519" lon="77.63999">
        <ele>5029.8</ele>
        <time>2015-09-05T08:35:44Z</time>
      </trkpt>
      <trkpt lat="33.74517" lon="77.64003">
        <ele>5028.6</ele>
        <time>2015-09-05T08:35:50Z</time>
      </trkpt>
      <trkpt lat="33.74514" lon="77.64006">
        <ele>5027.4</ele>
        <time>2015-09-05T08:35:56Z</time>
      </trkpt>
      <trkpt lat="33.74512" lon="77.64008">
        <ele>5026.8</ele>
        <time>2015-09-05T08:35:59Z</time>
      </trkpt>
      <trkpt lat="33.74513" lon="77.6401">
        <ele>5026.4</ele>
        <time>2015-09-05T08:36:08Z</time>
      </trkpt>
      <trkpt lat="33.74513" lon="77.64012">
        <ele>5026</ele>
        <time>2015-09-05T08:36:10Z</time>
      </trkpt>
      <trkpt lat="33.74514" lon="77.64015">
        <ele>5025.2</ele>
        <time>2015-09-05T08:36:14Z</time>
      </trkpt>
      <trkpt lat="33.74517" lon="77.64019">
        <ele>5024</ele>
        <time>2015-09-05T08:36:19Z</time>
      </trkpt>
      <trkpt lat="33.7452" lon="77.64023">
        <ele>5023</ele>
        <time>2015-09-05T08:36:25Z</time>
      </trkpt>
      <trkpt lat="33.74523" lon="77.64026">
        <ele>5021.8</ele>
        <time>2015-09-05T08:36:34Z</time>
      </trkpt>
      <trkpt lat="33.74526" lon="77.64028">
        <ele>5021</ele>
        <time>2015-09-05T08:36:37Z</time>
      </trkpt>
      <trkpt lat="33.74526" lon="77.6403">
        <ele>5020.4</ele>
        <time>2015-09-05T08:36:39Z</time>
      </trkpt>
      <trkpt lat="33.74523" lon="77.64033">
        <ele>5019.4</ele>
        <time>2015-09-05T08:36:44Z</time>
      </trkpt>
      <trkpt lat="33.74518" lon="77.64037">
        <ele>5018.4</ele>
        <time>2015-09-05T08:36:52Z</time>
      </trkpt>
      <trkpt lat="33.74515" lon="77.64043">
        <ele>5017.2</ele>
        <time>2015-09-05T08:36:58Z</time>
      </trkpt>
      <trkpt lat="33.74515" lon="77.64046">
        <ele>5017</ele>
        <time>2015-09-05T08:36:59Z</time>
      </trkpt>
      <trkpt lat="33.74518" lon="77.6405">
        <ele>5015.8</ele>
        <time>2015-09-05T08:37:03Z</time>
      </trkpt>
      <trkpt lat="33.74519" lon="77.64051">
        <ele>5015.4</ele>
        <time>2015-09-05T08:37:05Z</time>
      </trkpt>
      <trkpt lat="33.74521" lon="77.64052">
        <ele>5014.6</ele>
        <time>2015-09-05T08:37:08Z</time>
      </trkpt>
      <trkpt lat="33.74525" lon="77.64056">
        <ele>5013.6</ele>
        <time>2015-09-05T08:37:13Z</time>
      </trkpt>
      <trkpt lat="33.74526" lon="77.64056">
        <ele>5013.4</ele>
        <time>2015-09-05T08:37:14Z</time>
      </trkpt>
      <trkpt lat="33.74525" lon="77.6406">
        <ele>5012.6</ele>
        <time>2015-09-05T08:37:23Z</time>
      </trkpt>
      <trkpt lat="33.74518" lon="77.64062">
        <ele>5011.4</ele>
        <time>2015-09-05T08:37:32Z</time>
      </trkpt>
      <trkpt lat="33.74516" lon="77.64069">
        <ele>5010.4</ele>
        <time>2015-09-05T08:37:37Z</time>
      </trkpt>
      <trkpt lat="33.74519" lon="77.64072">
        <ele>5009.2</ele>
        <time>2015-09-05T08:37:41Z</time>
      </trkpt>
      <trkpt lat="33.7452" lon="77.64073">
        <ele>5008.8</ele>
        <time>2015-09-05T08:37:43Z</time>
      </trkpt>
      <trkpt lat="33.74517" lon="77.64076">
        <ele>5008.2</ele>
        <time>2015-09-05T08:37:51Z</time>
      </trkpt>
      <trkpt lat="33.74514" lon="77.64076">
        <ele>5007.8</ele>
        <time>2015-09-05T08:37:54Z</time>
      </trkpt>
      <trkpt lat="33.74512" lon="77.64076">
        <ele>5007.2</ele>
        <time>2015-09-05T08:37:58Z</time>
      </trkpt>
      <trkpt lat="33.74512" lon="77.64083">
        <ele>5005.8</ele>
        <time>2015-09-05T08:38:03Z</time>
      </trkpt>
      <trkpt lat="33.74514" lon="77.64086">
        <ele>5005</ele>
        <time>2015-09-05T08:38:06Z</time>
      </trkpt>
      <trkpt lat="33.74515" lon="77.64088">
        <ele>5004.6</ele>
        <time>2015-09-05T08:38:08Z</time>
      </trkpt>
      <trkpt lat="33.74512" lon="77.64091">
        <ele>5003.4</ele>
        <time>2015-09-05T08:38:16Z</time>
      </trkpt>
      <trkpt lat="33.7451" lon="77.64094">
        <ele>5002.4</ele>
        <time>2015-09-05T08:38:21Z</time>
      </trkpt>
      <trkpt lat="33.74508" lon="77.64102">
        <ele>5001.2</ele>
        <time>2015-09-05T08:38:27Z</time>
      </trkpt>
      <trkpt lat="33.74505" lon="77.64107">
        <ele>5000.2</ele>
        <time>2015-09-05T08:38:34Z</time>
      </trkpt>
      <trkpt lat="33.74507" lon="77.64112">
        <ele>4999</ele>
        <time>2015-09-05T08:38:41Z</time>
      </trkpt>
      <trkpt lat="33.7451" lon="77.64114">
        <ele>4997.8</ele>
        <time>2015-09-05T08:38:46Z</time>
      </trkpt>
      <trkpt lat="33.74508" lon="77.64118">
        <ele>4996.8</ele>
        <time>2015-09-05T08:38:54Z</time>
      </trkpt>
      <trkpt lat="33.74505" lon="77.64125">
        <ele>4995.6</ele>
        <time>2015-09-05T08:39:04Z</time>
      </trkpt>
      <trkpt lat="33.74498" lon="77.64132">
        <ele>4994.6</ele>
        <time>2015-09-05T08:39:13Z</time>
      </trkpt>
      <trkpt lat="33.74498" lon="77.64134">
        <ele>4993.4</ele>
        <time>2015-09-05T08:39:19Z</time>
      </trkpt>
      <trkpt lat="33.74496" lon="77.64135">
        <ele>4992.2</ele>
        <time>2015-09-05T08:39:24Z</time>
      </trkpt>
      <trkpt lat="33.74491" lon="77.64139">
        <ele>4991</ele>
        <time>2015-09-05T08:39:30Z</time>
      </trkpt>
      <trkpt lat="33.7449" lon="77.64141">
        <ele>4990.8</ele>
        <time>2015-09-05T08:39:31Z</time>
      </trkpt>
      <trkpt lat="33.74488" lon="77.64149">
        <ele>4990.2</ele>
        <time>2015-09-05T08:39:38Z</time>
      </trkpt>
      <trkpt lat="33.74487" lon="77.6415">
        <ele>4990</ele>
        <time>2015-09-05T08:39:40Z</time>
      </trkpt>
      <trkpt lat="33.74485" lon="77.64155">
        <ele>4988.8</ele>
        <time>2015-09-05T08:39:48Z</time>
      </trkpt>
      <trkpt lat="33.74487" lon="77.64161">
        <ele>4987.6</ele>
        <time>2015-09-05T08:39:55Z</time>
      </trkpt>
      <trkpt lat="33.74486" lon="77.64161">
        <ele>4987.4</ele>
        <time>2015-09-05T08:39:56Z</time>
      </trkpt>
      <trkpt lat="33.74493" lon="77.64164">
        <ele>4986.6</ele>
        <time>2015-09-05T08:40:08Z</time>
      </trkpt>
      <trkpt lat="33.74495" lon="77.64167">
        <ele>4985.6</ele>
        <time>2015-09-05T08:40:12Z</time>
      </trkpt>
      <trkpt lat="33.74494" lon="77.64171">
        <ele>4984.6</ele>
        <time>2015-09-05T08:40:16Z</time>
      </trkpt>
      <trkpt lat="33.74492" lon="77.64174">
        <ele>4983.6</ele>
        <time>2015-09-05T08:40:19Z</time>
      </trkpt>
      <trkpt lat="33.74491" lon="77.64174">
        <ele>4983.4</ele>
        <time>2015-09-05T08:40:20Z</time>
      </trkpt>
      <trkpt lat="33.74488" lon="77.64174">
        <ele>4983.2</ele>
        <time>2015-09-05T08:40:22Z</time>
      </trkpt>
      <trkpt lat="33.74486" lon="77.64174">
        <ele>4982.8</ele>
        <time>2015-09-05T08:40:24Z</time>
      </trkpt>
      <trkpt lat="33.74484" lon="77.64175">
        <ele>4982.2</ele>
        <time>2015-09-05T08:40:26Z</time>
      </trkpt>
      <trkpt lat="33.74479" lon="77.64175">
        <ele>4981.2</ele>
        <time>2015-09-05T08:40:32Z</time>
      </trkpt>
      <trkpt lat="33.74475" lon="77.64182">
        <ele>4980</ele>
        <time>2015-09-05T08:40:39Z</time>
      </trkpt>
      <trkpt lat="33.74471" lon="77.64187">
        <ele>4979</ele>
        <time>2015-09-05T08:40:45Z</time>
      </trkpt>
      <trkpt lat="33.74471" lon="77.64188">
        <ele>4978.6</ele>
        <time>2015-09-05T08:40:47Z</time>
      </trkpt>
      <trkpt lat="33.74469" lon="77.64196">
        <ele>4978</ele>
        <time>2015-09-05T08:41:02Z</time>
      </trkpt>
      <trkpt lat="33.74472" lon="77.64199">
        <ele>4977.6</ele>
        <time>2015-09-05T08:41:16Z</time>
      </trkpt>
      <trkpt lat="33.7447" lon="77.64196">
        <ele>4977.4</ele>
        <time>2015-09-05T08:41:30Z</time>
      </trkpt>
      <trkpt lat="33.74467" lon="77.64198">
        <ele>4977.6</ele>
        <time>2015-09-05T08:41:53Z</time>
      </trkpt>
      <trkpt lat="33.74464" lon="77.64206">
        <ele>4976.8</ele>
        <time>2015-09-05T08:42:17Z</time>
      </trkpt>
      <trkpt lat="33.74465" lon="77.64209">
        <ele>4976.8</ele>
        <time>2015-09-05T08:42:19Z</time>
      </trkpt>
      <trkpt lat="33.74466" lon="77.64212">
        <ele>4976.4</ele>
        <time>2015-09-05T08:42:22Z</time>
      </trkpt>
      <trkpt lat="33.74467" lon="77.64213">
        <ele>4976.4</ele>
        <time>2015-09-05T08:42:24Z</time>
      </trkpt>
      <trkpt lat="33.74468" lon="77.64216">
        <ele>4975.8</ele>
        <time>2015-09-05T08:42:27Z</time>
      </trkpt>
      <trkpt lat="33.74468" lon="77.64217">
        <ele>4975.8</ele>
        <time>2015-09-05T08:42:28Z</time>
      </trkpt>
      <trkpt lat="33.74467" lon="77.64226">
        <ele>4974.8</ele>
        <time>2015-09-05T08:42:38Z</time>
      </trkpt>
      <trkpt lat="33.74468" lon="77.64226">
        <ele>4974.6</ele>
        <time>2015-09-05T08:42:39Z</time>
      </trkpt>
      <trkpt lat="33.74477" lon="77.6423">
        <ele>4973.8</ele>
        <time>2015-09-05T08:43:06Z</time>
      </trkpt>
      <trkpt lat="33.74476" lon="77.64236">
        <ele>4972.8</ele>
        <time>2015-09-05T08:43:15Z</time>
      </trkpt>
      <trkpt lat="33.74479" lon="77.64242">
        <ele>4971.8</ele>
        <time>2015-09-05T08:43:27Z</time>
      </trkpt>
      <trkpt lat="33.74478" lon="77.64252">
        <ele>4970.6</ele>
        <time>2015-09-05T08:43:41Z</time>
      </trkpt>
      <trkpt lat="33.74476" lon="77.64261">
        <ele>4969.8</ele>
        <time>2015-09-05T08:43:49Z</time>
      </trkpt>
      <trkpt lat="33.74476" lon="77.64263">
        <ele>4969.6</ele>
        <time>2015-09-05T08:43:50Z</time>
      </trkpt>
      <trkpt lat="33.7448" lon="77.64269">
        <ele>4968.6</ele>
        <time>2015-09-05T08:43:57Z</time>
      </trkpt>
      <trkpt lat="33.74481" lon="77.6427">
        <ele>4968.4</ele>
        <time>2015-09-05T08:43:58Z</time>
      </trkpt>
      <trkpt lat="33.74483" lon="77.6427">
        <ele>4968</ele>
        <time>2015-09-05T08:44:01Z</time>
      </trkpt>
      <trkpt lat="33.74487" lon="77.64271">
        <ele>4967.6</ele>
        <time>2015-09-05T08:44:09Z</time>
      </trkpt>
      <trkpt lat="33.74494" lon="77.64276">
        <ele>4966.4</ele>
        <time>2015-09-05T08:44:20Z</time>
      </trkpt>
      <trkpt lat="33.74495" lon="77.64277">
        <ele>4966.4</ele>
        <time>2015-09-05T08:44:21Z</time>
      </trkpt>
      <trkpt lat="33.74496" lon="77.64279">
        <ele>4966</ele>
        <time>2015-09-05T08:44:23Z</time>
      </trkpt>
      <trkpt lat="33.74501" lon="77.64282">
        <ele>4965.4</ele>
        <time>2015-09-05T08:44:27Z</time>
      </trkpt>
      <trkpt lat="33.74505" lon="77.64285">
        <ele>4964.2</ele>
        <time>2015-09-05T08:44:33Z</time>
      </trkpt>
      <trkpt lat="33.74505" lon="77.64289">
        <ele>4963.8</ele>
        <time>2015-09-05T08:44:37Z</time>
      </trkpt>
      <trkpt lat="33.74504" lon="77.64291">
        <ele>4963.4</ele>
        <time>2015-09-05T08:44:41Z</time>
      </trkpt>
      <trkpt lat="33.74507" lon="77.64293">
        <ele>4963.2</ele>
        <time>2015-09-05T08:44:43Z</time>
      </trkpt>
      <trkpt lat="33.74509" lon="77.64295">
        <ele>4962.8</ele>
        <time>2015-09-05T08:44:46Z</time>
      </trkpt>
      <trkpt lat="33.74511" lon="77.64297">
        <ele>4962.2</ele>
        <time>2015-09-05T08:44:49Z</time>
      </trkpt>
      <trkpt lat="33.74513" lon="77.64296">
        <ele>4962</ele>
        <time>2015-09-05T08:45:06Z</time>
      </trkpt>
      <trkpt lat="33.74513" lon="77.64297">
        <ele>4961.8</ele>
        <time>2015-09-05T08:45:08Z</time>
      </trkpt>
      <trkpt lat="33.74509" lon="77.64297">
        <ele>4961.6</ele>
        <time>2015-09-05T08:45:13Z</time>
      </trkpt>
      <trkpt lat="33.74508" lon="77.64299">
        <ele>4961.6</ele>
        <time>2015-09-05T08:45:15Z</time>
      </trkpt>
      <trkpt lat="33.74511" lon="77.64302">
        <ele>4961</ele>
        <time>2015-09-05T08:45:20Z</time>
      </trkpt>
      <trkpt lat="33.74515" lon="77.64308">
        <ele>4960</ele>
        <time>2015-09-05T08:45:29Z</time>
      </trkpt>
      <trkpt lat="33.74526" lon="77.64314">
        <ele>4959.2</ele>
        <time>2015-09-05T08:45:41Z</time>
      </trkpt>
      <trkpt lat="33.74527" lon="77.64315">
        <ele>4959</ele>
        <time>2015-09-05T08:45:42Z</time>
      </trkpt>
      <trkpt lat="33.74533" lon="77.64322">
        <ele>4957.8</ele>
        <time>2015-09-05T08:45:52Z</time>
      </trkpt>
      <trkpt lat="33.7454" lon="77.64327">
        <ele>4956.8</ele>
        <time>2015-09-05T08:46:00Z</time>
      </trkpt>
      <trkpt lat="33.74541" lon="77.64328">
        <ele>4956.6</ele>
        <time>2015-09-05T08:46:01Z</time>
      </trkpt>
      <trkpt lat="33.74543" lon="77.64331">
        <ele>4956.2</ele>
        <time>2015-09-05T08:46:05Z</time>
      </trkpt>
      <trkpt lat="33.74545" lon="77.64333">
        <ele>4955.8</ele>
        <time>2015-09-05T08:46:08Z</time>
      </trkpt>
      <trkpt lat="33.74551" lon="77.64337">
        <ele>4954.8</ele>
        <time>2015-09-05T08:46:15Z</time>
      </trkpt>
      <trkpt lat="33.74553" lon="77.64339">
        <ele>4954.6</ele>
        <time>2015-09-05T08:46:17Z</time>
      </trkpt>
      <trkpt lat="33.74556" lon="77.6434">
        <ele>4954.2</ele>
        <time>2015-09-05T08:46:24Z</time>
      </trkpt>
      <trkpt lat="33.74559" lon="77.64344">
        <ele>4953.6</ele>
        <time>2015-09-05T08:46:30Z</time>
      </trkpt>
      <trkpt lat="33.74564" lon="77.64347">
        <ele>4952.6</ele>
        <time>2015-09-05T08:46:37Z</time>
      </trkpt>
      <trkpt lat="33.74569" lon="77.6435">
        <ele>4951.4</ele>
        <time>2015-09-05T08:46:45Z</time>
      </trkpt>
      <trkpt lat="33.7457" lon="77.64352">
        <ele>4950.2</ele>
        <time>2015-09-05T08:46:53Z</time>
      </trkpt>
      <trkpt lat="33.74575" lon="77.64355">
        <ele>4949.2</ele>
        <time>2015-09-05T08:46:59Z</time>
      </trkpt>
      <trkpt lat="33.74577" lon="77.64359">
        <ele>4948</ele>
        <time>2015-09-05T08:47:05Z</time>
      </trkpt>
      <trkpt lat="33.74584" lon="77.64362">
        <ele>4947</ele>
        <time>2015-09-05T08:47:12Z</time>
      </trkpt>
      <trkpt lat="33.7459" lon="77.64363">
        <ele>4945.8</ele>
        <time>2015-09-05T08:47:20Z</time>
      </trkpt>
      <trkpt lat="33.74595" lon="77.64365">
        <ele>4944.8</ele>
        <time>2015-09-05T08:47:27Z</time>
      </trkpt>
      <trkpt lat="33.74603" lon="77.64369">
        <ele>4943.6</ele>
        <time>2015-09-05T08:47:36Z</time>
      </trkpt>
      <trkpt lat="33.74605" lon="77.64371">
        <ele>4943.2</ele>
        <time>2015-09-05T08:47:39Z</time>
      </trkpt>
      <trkpt lat="33.74609" lon="77.64372">
        <ele>4942.6</ele>
        <time>2015-09-05T08:47:43Z</time>
      </trkpt>
      <trkpt lat="33.74616" lon="77.64379">
        <ele>4941.6</ele>
        <time>2015-09-05T08:47:55Z</time>
      </trkpt>
      <trkpt lat="33.74621" lon="77.64384">
        <ele>4940.4</ele>
        <time>2015-09-05T08:48:04Z</time>
      </trkpt>
      <trkpt lat="33.7463" lon="77.6439">
        <ele>4939.4</ele>
        <time>2015-09-05T08:48:13Z</time>
      </trkpt>
      <trkpt lat="33.74635" lon="77.64396">
        <ele>4938.4</ele>
        <time>2015-09-05T08:48:22Z</time>
      </trkpt>
      <trkpt lat="33.74636" lon="77.64399">
        <ele>4938</ele>
        <time>2015-09-05T08:48:25Z</time>
      </trkpt>
      <trkpt lat="33.7464" lon="77.64403">
        <ele>4937.8</ele>
        <time>2015-09-05T08:48:31Z</time>
      </trkpt>
      <trkpt lat="33.74646" lon="77.6441">
        <ele>4937.4</ele>
        <time>2015-09-05T08:48:43Z</time>
      </trkpt>
      <trkpt lat="33.74649" lon="77.64414">
        <ele>4936.2</ele>
        <time>2015-09-05T08:48:49Z</time>
      </trkpt>
      <trkpt lat="33.7465" lon="77.64416">
        <ele>4936</ele>
        <time>2015-09-05T08:48:51Z</time>
      </trkpt>
      <trkpt lat="33.74652" lon="77.6442">
        <ele>4935.8</ele>
        <time>2015-09-05T08:48:55Z</time>
      </trkpt>
      <trkpt lat="33.74657" lon="77.64423">
        <ele>4935.2</ele>
        <time>2015-09-05T08:48:58Z</time>
      </trkpt>
      <trkpt lat="33.74658" lon="77.64424">
        <ele>4935</ele>
        <time>2015-09-05T08:48:59Z</time>
      </trkpt>
      <trkpt lat="33.74665" lon="77.64432">
        <ele>4934.2</ele>
        <time>2015-09-05T08:49:12Z</time>
      </trkpt>
      <trkpt lat="33.74672" lon="77.64438">
        <ele>4933.2</ele>
        <time>2015-09-05T08:49:21Z</time>
      </trkpt>
      <trkpt lat="33.74675" lon="77.64441">
        <ele>4932.8</ele>
        <time>2015-09-05T08:49:25Z</time>
      </trkpt>
      <trkpt lat="33.7468" lon="77.64445">
        <ele>4932.2</ele>
        <time>2015-09-05T08:49:30Z</time>
      </trkpt>
      <trkpt lat="33.74686" lon="77.64453">
        <ele>4931.2</ele>
        <time>2015-09-05T08:49:39Z</time>
      </trkpt>
      <trkpt lat="33.74692" lon="77.64465">
        <ele>4930.2</ele>
        <time>2015-09-05T08:49:51Z</time>
      </trkpt>
      <trkpt lat="33.74692" lon="77.64465">
        <ele>4930</ele>
        <time>2015-09-05T08:49:52Z</time>
      </trkpt>
      <trkpt lat="33.74695" lon="77.64471">
        <ele>4929</ele>
        <time>2015-09-05T08:50:00Z</time>
      </trkpt>
      <trkpt lat="33.747" lon="77.64482">
        <ele>4928</ele>
        <time>2015-09-05T08:50:10Z</time>
      </trkpt>
      <trkpt lat="33.747" lon="77.64487">
        <ele>4927.6</ele>
        <time>2015-09-05T08:50:15Z</time>
      </trkpt>
      <trkpt lat="33.74699" lon="77.64489">
        <ele>4927.4</ele>
        <time>2015-09-05T08:50:17Z</time>
      </trkpt>
      <trkpt lat="33.747" lon="77.64492">
        <ele>4926.8</ele>
        <time>2015-09-05T08:50:21Z</time>
      </trkpt>
      <trkpt lat="33.74706" lon="77.64502">
        <ele>4925.8</ele>
        <time>2015-09-05T08:50:32Z</time>
      </trkpt>
      <trkpt lat="33.74714" lon="77.6451">
        <ele>4924.8</ele>
        <time>2015-09-05T08:50:41Z</time>
      </trkpt>
      <trkpt lat="33.74714" lon="77.64512">
        <ele>4923.6</ele>
        <time>2015-09-05T08:50:47Z</time>
      </trkpt>
      <trkpt lat="33.74716" lon="77.64518">
        <ele>4922.6</ele>
        <time>2015-09-05T08:50:54Z</time>
      </trkpt>
      <trkpt lat="33.7472" lon="77.64526">
        <ele>4921.6</ele>
        <time>2015-09-05T08:51:03Z</time>
      </trkpt>
      <trkpt lat="33.74723" lon="77.6453">
        <ele>4921</ele>
        <time>2015-09-05T08:51:07Z</time>
      </trkpt>
      <trkpt lat="33.74725" lon="77.64534">
        <ele>4920.4</ele>
        <time>2015-09-05T08:51:11Z</time>
      </trkpt>
      <trkpt lat="33.74726" lon="77.64543">
        <ele>4919.2</ele>
        <time>2015-09-05T08:51:21Z</time>
      </trkpt>
      <trkpt lat="33.74731" lon="77.64551">
        <ele>4918.2</ele>
        <time>2015-09-05T08:51:29Z</time>
      </trkpt>
      <trkpt lat="33.74739" lon="77.64558">
        <ele>4917</ele>
        <time>2015-09-05T08:51:38Z</time>
      </trkpt>
      <trkpt lat="33.7474" lon="77.64562">
        <ele>4916</ele>
        <time>2015-09-05T08:51:47Z</time>
      </trkpt>
      <trkpt lat="33.7475" lon="77.64568">
        <ele>4915.6</ele>
        <time>2015-09-05T08:51:56Z</time>
      </trkpt>
      <trkpt lat="33.74752" lon="77.64571">
        <ele>4915.2</ele>
        <time>2015-09-05T08:51:59Z</time>
      </trkpt>
      <trkpt lat="33.74753" lon="77.64572">
        <ele>4915</ele>
        <time>2015-09-05T08:52:01Z</time>
      </trkpt>
      <trkpt lat="33.74755" lon="77.64574">
        <ele>4914.8</ele>
        <time>2015-09-05T08:52:03Z</time>
      </trkpt>
      <trkpt lat="33.74755" lon="77.64576">
        <ele>4914.6</ele>
        <time>2015-09-05T08:52:06Z</time>
      </trkpt>
      <trkpt lat="33.74755" lon="77.64566">
        <ele>4914</ele>
        <time>2015-09-05T08:52:14Z</time>
      </trkpt>
      <trkpt lat="33.74754" lon="77.64566">
        <ele>4913.8</ele>
        <time>2015-09-05T08:52:16Z</time>
      </trkpt>
      <trkpt lat="33.74751" lon="77.64571">
        <ele>4913.8</ele>
        <time>2015-09-05T08:52:18Z</time>
      </trkpt>
      <trkpt lat="33.74754" lon="77.64581">
        <ele>4913.6</ele>
        <time>2015-09-05T08:52:24Z</time>
      </trkpt>
      <trkpt lat="33.74757" lon="77.64585">
        <ele>4912.8</ele>
        <time>2015-09-05T08:52:28Z</time>
      </trkpt>
      <trkpt lat="33.74761" lon="77.64592">
        <ele>4912</ele>
        <time>2015-09-05T08:52:35Z</time>
      </trkpt>
      <trkpt lat="33.74765" lon="77.64598">
        <ele>4911.8</ele>
        <time>2015-09-05T08:52:56Z</time>
      </trkpt>
      <trkpt lat="33.74765" lon="77.64598">
        <ele>4911.6</ele>
        <time>2015-09-05T08:52:57Z</time>
      </trkpt>
      <trkpt lat="33.74768" lon="77.64602">
        <ele>4910.8</ele>
        <time>2015-09-05T08:53:03Z</time>
      </trkpt>
      <trkpt lat="33.74769" lon="77.64604">
        <ele>4910.6</ele>
        <time>2015-09-05T08:53:05Z</time>
      </trkpt>
      <trkpt lat="33.74771" lon="77.64609">
        <ele>4909.6</ele>
        <time>2015-09-05T08:53:11Z</time>
      </trkpt>
      <trkpt lat="33.74778" lon="77.64616">
        <ele>4909.4</ele>
        <time>2015-09-05T08:53:22Z</time>
      </trkpt>
      <trkpt lat="33.74788" lon="77.64625">
        <ele>4908.6</ele>
        <time>2015-09-05T08:53:33Z</time>
      </trkpt>
      <trkpt lat="33.74793" lon="77.64633">
        <ele>4907.4</ele>
        <time>2015-09-05T08:53:41Z</time>
      </trkpt>
      <trkpt lat="33.74801" lon="77.6464">
        <ele>4906.4</ele>
        <time>2015-09-05T08:53:50Z</time>
      </trkpt>
      <trkpt lat="33.74808" lon="77.64645">
        <ele>4905.4</ele>
        <time>2015-09-05T08:53:57Z</time>
      </trkpt>
      <trkpt lat="33.74811" lon="77.64655">
        <ele>4904.2</ele>
        <time>2015-09-05T08:54:06Z</time>
      </trkpt>
      <trkpt lat="33.74811" lon="77.64661">
        <ele>4903.6</ele>
        <time>2015-09-05T08:54:12Z</time>
      </trkpt>
      <trkpt lat="33.74811" lon="77.64663">
        <ele>4903.2</ele>
        <time>2015-09-05T08:54:15Z</time>
      </trkpt>
      <trkpt lat="33.74809" lon="77.64666">
        <ele>4902.8</ele>
        <time>2015-09-05T08:54:18Z</time>
      </trkpt>
      <trkpt lat="33.7481" lon="77.64674">
        <ele>4902.2</ele>
        <time>2015-09-05T08:54:26Z</time>
      </trkpt>
      <trkpt lat="33.74814" lon="77.64681">
        <ele>4901.6</ele>
        <time>2015-09-05T08:54:33Z</time>
      </trkpt>
      <trkpt lat="33.74818" lon="77.64685">
        <ele>4901.2</ele>
        <time>2015-09-05T08:54:36Z</time>
      </trkpt>
      <trkpt lat="33.74822" lon="77.64695">
        <ele>4900</ele>
        <time>2015-09-05T08:54:45Z</time>
      </trkpt>
      <trkpt lat="33.74826" lon="77.64707">
        <ele>4899</ele>
        <time>2015-09-05T08:54:55Z</time>
      </trkpt>
      <trkpt lat="33.74828" lon="77.64721">
        <ele>4897.8</ele>
        <time>2015-09-05T08:55:08Z</time>
      </trkpt>
      <trkpt lat="33.74833" lon="77.64737">
        <ele>4896.8</ele>
        <time>2015-09-05T08:55:24Z</time>
      </trkpt>
      <trkpt lat="33.74836" lon="77.64752">
        <ele>4895.8</ele>
        <time>2015-09-05T08:55:38Z</time>
      </trkpt>
      <trkpt lat="33.74835" lon="77.64762">
        <ele>4894.6</ele>
        <time>2015-09-05T08:55:48Z</time>
      </trkpt>
      <trkpt lat="33.74833" lon="77.64765">
        <ele>4894</ele>
        <time>2015-09-05T08:56:02Z</time>
      </trkpt>
      <trkpt lat="33.74835" lon="77.64774">
        <ele>4893.6</ele>
        <time>2015-09-05T08:56:10Z</time>
      </trkpt>
      <trkpt lat="33.74837" lon="77.64776">
        <ele>4893.4</ele>
        <time>2015-09-05T08:56:12Z</time>
      </trkpt>
      <trkpt lat="33.74838" lon="77.6478">
        <ele>4892.8</ele>
        <time>2015-09-05T08:56:17Z</time>
      </trkpt>
      <trkpt lat="33.74838" lon="77.64781">
        <ele>4892.6</ele>
        <time>2015-09-05T08:56:18Z</time>
      </trkpt>
      <trkpt lat="33.74837" lon="77.64788">
        <ele>4892</ele>
        <time>2015-09-05T08:56:23Z</time>
      </trkpt>
      <trkpt lat="33.74837" lon="77.64795">
        <ele>4891.6</ele>
        <time>2015-09-05T08:56:29Z</time>
      </trkpt>
      <trkpt lat="33.74837" lon="77.648">
        <ele>4891.2</ele>
        <time>2015-09-05T08:56:35Z</time>
      </trkpt>
      <trkpt lat="33.74834" lon="77.64805">
        <ele>4890.4</ele>
        <time>2015-09-05T08:56:41Z</time>
      </trkpt>
      <trkpt lat="33.74835" lon="77.64812">
        <ele>4890</ele>
        <time>2015-09-05T08:56:47Z</time>
      </trkpt>
      <trkpt lat="33.74836" lon="77.64818">
        <ele>4889.4</ele>
        <time>2015-09-05T08:56:53Z</time>
      </trkpt>
      <trkpt lat="33.74841" lon="77.64834">
        <ele>4888.4</ele>
        <time>2015-09-05T08:57:06Z</time>
      </trkpt>
      <trkpt lat="33.74839" lon="77.64849">
        <ele>4887.4</ele>
        <time>2015-09-05T08:57:17Z</time>
      </trkpt>
      <trkpt lat="33.74841" lon="77.64858">
        <ele>4886.6</ele>
        <time>2015-09-05T08:57:26Z</time>
      </trkpt>
      <trkpt lat="33.7484" lon="77.64862">
        <ele>4886.2</ele>
        <time>2015-09-05T08:57:29Z</time>
      </trkpt>
      <trkpt lat="33.74842" lon="77.64875">
        <ele>4885</ele>
        <time>2015-09-05T08:57:39Z</time>
      </trkpt>
      <trkpt lat="33.74841" lon="77.6488">
        <ele>4884.6</ele>
        <time>2015-09-05T08:57:43Z</time>
      </trkpt>
      <trkpt lat="33.74836" lon="77.64891">
        <ele>4884</ele>
        <time>2015-09-05T08:57:54Z</time>
      </trkpt>
      <trkpt lat="33.74833" lon="77.64899">
        <ele>4883.4</ele>
        <time>2015-09-05T08:58:03Z</time>
      </trkpt>
      <trkpt lat="33.74832" lon="77.64903">
        <ele>4883</ele>
        <time>2015-09-05T08:58:07Z</time>
      </trkpt>
      <trkpt lat="33.74834" lon="77.64907">
        <ele>4882.6</ele>
        <time>2015-09-05T08:58:10Z</time>
      </trkpt>
      <trkpt lat="33.74833" lon="77.6491">
        <ele>4882.4</ele>
        <time>2015-09-05T08:58:13Z</time>
      </trkpt>
      <trkpt lat="33.7483" lon="77.64914">
        <ele>4882.2</ele>
        <time>2015-09-05T08:58:16Z</time>
      </trkpt>
      <trkpt lat="33.74829" lon="77.64916">
        <ele>4882</ele>
        <time>2015-09-05T08:58:18Z</time>
      </trkpt>
      <trkpt lat="33.74828" lon="77.64917">
        <ele>4881.8</ele>
        <time>2015-09-05T08:58:19Z</time>
      </trkpt>
      <trkpt lat="33.7483" lon="77.64924">
        <ele>4881.4</ele>
        <time>2015-09-05T08:58:38Z</time>
      </trkpt>
      <trkpt lat="33.74829" lon="77.64925">
        <ele>4881.4</ele>
        <time>2015-09-05T08:58:39Z</time>
      </trkpt>
      <trkpt lat="33.7483" lon="77.64924">
        <ele>4880.8</ele>
        <time>2015-09-05T08:58:43Z</time>
      </trkpt>
      <trkpt lat="33.74836" lon="77.64928">
        <ele>4880.4</ele>
        <time>2015-09-05T08:59:00Z</time>
      </trkpt>
      <trkpt lat="33.74838" lon="77.64933">
        <ele>4880.2</ele>
        <time>2015-09-05T08:59:04Z</time>
      </trkpt>
      <trkpt lat="33.74835" lon="77.64938">
        <ele>4879.8</ele>
        <time>2015-09-05T08:59:08Z</time>
      </trkpt>
      <trkpt lat="33.74834" lon="77.6494">
        <ele>4880</ele>
        <time>2015-09-05T08:59:11Z</time>
      </trkpt>
      <trkpt lat="33.74833" lon="77.6494">
        <ele>4879.8</ele>
        <time>2015-09-05T08:59:15Z</time>
      </trkpt>
      <trkpt lat="33.74835" lon="77.64934">
        <ele>4879.6</ele>
        <time>2015-09-05T08:59:22Z</time>
      </trkpt>
      <trkpt lat="33.74835" lon="77.64947">
        <ele>4879.4</ele>
        <time>2015-09-05T08:59:42Z</time>
      </trkpt>
      <trkpt lat="33.74838" lon="77.64952">
        <ele>4878.8</ele>
        <time>2015-09-05T08:59:47Z</time>
      </trkpt>
      <trkpt lat="33.7484" lon="77.64953">
        <ele>4878.4</ele>
        <time>2015-09-05T08:59:49Z</time>
      </trkpt>
      <trkpt lat="33.74842" lon="77.64955">
        <ele>4878.2</ele>
        <time>2015-09-05T08:59:52Z</time>
      </trkpt>
      <trkpt lat="33.74844" lon="77.64956">
        <ele>4878</ele>
        <time>2015-09-05T08:59:54Z</time>
      </trkpt>
      <trkpt lat="33.74845" lon="77.64959">
        <ele>4877.8</ele>
        <time>2015-09-05T08:59:58Z</time>
      </trkpt>
      <trkpt lat="33.74839" lon="77.64958">
        <ele>4877.2</ele>
        <time>2015-09-05T09:00:15Z</time>
      </trkpt>
      <trkpt lat="33.74835" lon="77.64956">
        <ele>4877.2</ele>
        <time>2015-09-05T09:00:18Z</time>
      </trkpt>
      <trkpt lat="33.74832" lon="77.64955">
        <ele>4877.4</ele>
        <time>2015-09-05T09:00:22Z</time>
      </trkpt>
      <trkpt lat="33.74834" lon="77.64953">
        <ele>4877.6</ele>
        <time>2015-09-05T09:00:33Z</time>
      </trkpt>
      <trkpt lat="33.74833" lon="77.64956">
        <ele>4877.8</ele>
        <time>2015-09-05T09:00:36Z</time>
      </trkpt>
      <trkpt lat="33.74835" lon="77.64953">
        <ele>4877.6</ele>
        <time>2015-09-05T09:00:39Z</time>
      </trkpt>
      <trkpt lat="33.74836" lon="77.64953">
        <ele>4877.4</ele>
        <time>2015-09-05T09:00:43Z</time>
      </trkpt>
      <trkpt lat="33.74838" lon="77.64953">
        <ele>4877.2</ele>
        <time>2015-09-05T09:00:45Z</time>
      </trkpt>
      <trkpt lat="33.74841" lon="77.64954">
        <ele>4877.2</ele>
        <time>2015-09-05T09:00:48Z</time>
      </trkpt>
      <trkpt lat="33.7484" lon="77.64958">
        <ele>4876.8</ele>
        <time>2015-09-05T09:00:55Z</time>
      </trkpt>
      <trkpt lat="33.74841" lon="77.6496">
        <ele>4876.6</ele>
        <time>2015-09-05T09:00:57Z</time>
      </trkpt>
      <trkpt lat="33.7484" lon="77.64962">
        <ele>4889</ele>
        <time>2015-09-05T09:01:04Z</time>
      </trkpt>
    </trkseg>
  </trk>
</gpx>